[[{"header":{"parameterUnit":"m.s-1","parameterCategory":1,"la1":31.0,"la2":29.5877,"lo1":-88.7671,"lo2":-86.6584,"dy":0.0162,"dx":0.0185,"nx":115,"ny":88,"refTime":"2026-03-17T00:00:00:Z","depth":0,"parameterNumber":2,"parameterNumberName":"U-component_of_WINDS"},"data":[0.0,0.0,0.0,0.0,0.0,0.0,0.0,0.0,0.0,0.0,0.0,0.0,0.0,0.0,0.0,0.0,0.0,0.0,0.0,0.0,0.0,0.0,0.0,0.0,0.0,0.0,0.0,0.0,0.0,0.0,0.0,0.0,0.0,0.0,0.0,0.0,0.0,0.0,0.0,0.0,0.0,0.0,0.0,0.0,0.0,0.0,0.0,0.0,0.0,0.0,0.0,0.0,0.0,0.0,0.0,0.0,0.0,0.0,0.0,0.0,0.0,0.0,0.0,0.0,0.0,0.0,0.0,0.0,0.0,0.0,0.0,0.0,0.0,0.0,0.0,0.0,0.0,0.0,0.0,0.0,0.0,0.0,0.0,0.0,0.0,0.0,0.0,0.0,0.0,0.0,0.0,0.0,0.0,0.0,0.0,0.0,0.0,0.0,0.0,0.0,0.0,0.0,0.0,0.0,0.0,0.0,0.0,0.0,0.0,0.0,0.0,0.0,0.0,0.0,0.0,0.0,0.0,0.0,0.0,0.0,0.0,0.0,0.0,0.0,0.0,0.0,0.0,0.0,0.0,0.0,0.0,0.0,0.0,0.0,0.0,0.0,0.0,0.0,0.0,0.0,0.0,0.0,0.0,0.0,0.0,0.0,0.0,0.0,0.0,0.0,0.0,0.0,0.0,0.0,0.0,0.0,0.0,0.0,0.0,0.0,0.0,0.0,0.0,0.0,0.0,0.0,0.0,0.0,0.0,0.0,0.0,0.0,0.0,0.0,0.0,0.0,0.0,0.0,0.0,0.0,0.0,0.0,0.0,0.0,0.0,0.0,0.0,0.0,0.0,0.0,0.0,0.0,0.0,0.0,0.0,0.0,0.0,0.0,0.0,0.0,0.0,0.0,0.0,0.0,0.0,0.0,0.0,0.0,0.0,0.0,0.0,0.0,0.0,0.0,0.0,0.0,0.0,0.0,0.0,0.0,0.0,0.0,0.0,0.0,0.0,0.0,0.0,0.0,0.0,0.0,0.0,0.0,0.0,0.0,0.0,0.0,0.0,0.0,0.0,0.0,0.0,0.0,0.0,0.0,0.0,0.0,0.0,0.0,0.0,0.0,0.0,0.0,0.0,0.0,0.0,0.0,0.0,0.0,0.0,0.0,0.0,0.0,0.0,0.0,0.0,0.0,0.0,0.0,0.0,0.0,0.0,0.0,0.0,0.0,0.0,0.0,0.0,0.0,0.0,0.0,0.0,0.0,0.0,0.0,0.0,0.0,0.0,0.0,0.0,0.0,0.0,0.0,0.0,0.0,0.0,0.0,0.0,0.0,0.0,0.0,0.0,0.0,0.0,0.0,0.0,0.0,0.0,0.0,0.0,0.0,0.0,0.0,0.0,0.0,0.0,0.0,0.0,0.0,0.0,0.0,0.0,0.0,0.0,0.0,0.0,0.0,0.0,0.0,0.0,0.0,0.0,0.0,0.0,0.0,0.0,0.0,0.0,0.0,0.0,0.0,0.0,0.0,0.0,0.0,0.0,0.0,0.0,0.0,0.0,0.0,0.0,0.0,0.0,0.0,0.0,0.0,0.0,0.0,0.0,0.0,0.0,0.0,0.0,0.0,0.0,0.0,0.0,0.0,0.0,0.0,0.0,0.0,0.0,0.0,0.0,0.0,0.0,0.0,0.0,0.0,0.0,0.0,0.0,0.0,0.0,0.0,0.0,0.0,0.0,0.0,0.0,0.0,0.0,0.0,0.0,0.0,0.0,0.0,0.0,0.0,0.0,0.0,0.0,0.0,0.0,0.0,0.0,0.0,0.0,0.0,0.0,0.0,0.0,0.0,0.0,0.0,0.0,0.0,0.0,0.0,0.0,0.0,0.0,0.0,0.0,0.0,0.0,0.0,0.0,0.0,0.0,0.0,0.0,0.0,0.0,0.0,0.0,0.0,0.0,0.0,0.0,0.0,0.0,0.0,0.0,0.0,0.0,0.0,0.0,0.0,0.0,0.0,0.0,0.0,0.0,0.0,0.0,0.0,0.0,0.0,0.0,0.0,0.0,0.0,0.0,0.0,0.0,0.0,0.0,0.0,0.0,0.0,0.0,0.0,0.0,0.0,0.0,0.0,0.0,0.0,0.0,0.0,0.0,0.0,0.0,0.0,0.0,0.0,0.0,0.0,0.0,0.0,0.0,0.0,0.0,0.0,0.0,0.0,0.0,0.0,0.0,0.0,0.0,0.0,0.0,0.0,0.0,0.0,0.0,0.0,0.0,0.0,0.0,0.0,0.0,0.0,0.0,0.0,0.0,0.0,0.0,0.0,0.0,0.0,0.0,0.0,0.0,0.0,0.0,0.0,0.0,0.0,0.0,0.0,0.0,0.0,0.0,0.0,0.0,0.0,0.0,0.0,0.0,0.0,0.0,0.0,0.0,0.0,0.0,0.0,0.0,0.0,0.0,0.0,0.0,0.0,0.0,0.0,0.0,0.0,0.0,0.0,0.0,0.0,0.0,0.0,0.0,0.0,0.0,0.0,0.0,0.0,0.0,0.0,0.0,0.0,0.0,0.0,0.0,0.0,0.0,0.0,0.0,0.0,0.0,0.0,0.0,0.0,0.0,0.0,0.0,0.0,0.0,0.0,0.0,0.0,0.0,0.0,0.0,0.0,0.0,0.0,0.0,0.0,0.0,0.0,0.0,0.0,0.0,0.0,0.0,0.0,0.0,0.0,0.0,0.0,0.0,0.0,0.0,0.0,0.0,0.0,0.0,0.0,0.0,0.0,0.0,0.0,0.0,0.0,0.0,0.0,0.0,0.0,0.0,0.0,0.0,0.0,0.0,0.0,0.0,0.0,0.0,0.0,0.0,0.0,0.0,0.0,0.0,0.0,0.0,0.0,0.0,0.0,0.0,0.0,0.0,0.0,0.0,0.0,0.0,0.0,0.0,0.0,0.0,0.0,0.0,0.0,0.0,0.0,0.0,0.0,0.0,0.0,0.0,0.0,0.0,0.0,0.0,0.0,0.0,0.0,0.0,0.0,0.0,0.0,0.0,0.0,0.0,0.0,0.0,0.0,0.0,0.0,0.0,0.0,0.0,0.0,0.0,0.0,0.0,0.0,0.0,0.0,0.0,0.0,0.0,0.0,0.0,0.0,0.0,0.0,0.0,0.0,0.0,0.0,0.0,0.0,0.0,0.0,0.0,0.0,0.0,0.0,0.0,0.0,0.0,0.0,0.0,0.0,0.0,0.0,0.0,0.0,0.0,0.0,0.0,0.0,0.0,0.0,0.0,0.0,0.0,0.0,0.0,0.0,0.0,0.0,0.0,0.0,0.0,0.0,0.0,0.0,0.0,0.0,0.0,0.0,0.0,0.0,0.0,0.0,0.0,0.0,0.0,0.0,0.0,0.0,0.0,0.0,0.0,0.0,0.0,0.0,0.0,0.0,0.0,0.0,0.0,0.0,0.0,0.0,0.0,0.0,0.0,0.0,0.0,0.0,0.0,0.0,0.0,0.0,0.0,0.0,0.0,0.0,0.0,0.0,0.0,0.0,0.0,0.0,0.0,0.0,0.0,0.0,0.0,0.0,0.0,0.0,0.0,0.0,0.0,0.0,0.0,0.0,0.0,0.0,0.0,0.0,0.0,0.0,0.0,0.0,0.0,0.0,0.0,0.0,0.0,0.0,0.0,0.0,0.0,0.0,0.0,0.0,0.0,0.0,0.0,0.0,0.0,0.0,0.0,0.0,0.0,0.0,0.0,0.0,0.0,0.0,0.0,0.0,0.0,0.0,0.0,0.0,0.0,0.0,0.0,0.0,0.0,0.0,0.0,0.0,0.0,0.0,0.0,0.0,0.0,0.0,0.0,0.0,0.0,0.0,0.0,0.0,0.0,0.0,0.0,0.0,0.0,0.0,0.0,0.0,0.0,0.0,0.0,0.0,0.0,0.0,0.0,0.0,0.0,0.0,0.0,0.0,0.0,0.0,0.0,0.0,0.0,0.0,0.0,0.0,0.0,0.0,0.0,0.0,0.0,0.0,0.0,0.0,0.0,0.0,0.0,0.0,0.0,0.0,0.0,0.0,0.0,0.0,0.0,0.0,0.0,0.0,0.0,0.0,0.0,0.0,0.0,0.0,0.0,0.0,0.0,0.0,0.0,0.0,0.0,0.0,0.0,0.0,0.0,0.0,0.0,0.0,0.0,0.0,0.0,0.0,0.0,0.0,0.0,0.0,0.0,0.0,0.0,0.0,0.0,0.0,0.0,0.0,0.0,0.0,0.0,0.0,-0.5121,0.0,0.0,0.0,0.0,0.0,0.0,0.0,0.0,0.0,0.0,0.0,0.0,0.0,0.0,0.0,0.0,0.0,0.0,0.0,0.0,0.0,0.0,0.0,0.0,0.0,0.0,0.0,0.0,0.0,0.0,0.0,0.0,0.0,0.0,0.0,0.0,0.0,0.0,0.0,0.0,0.0,0.0,0.0,0.0,0.0,0.0,0.0,0.0,0.0,0.0,0.0,0.0,0.0,0.0,0.0,0.0,0.0,0.0,0.0,0.0,0.0,0.0,0.0,0.0,0.0,0.0,0.0,0.0,0.0,0.0,0.0,0.0,0.0,0.0,0.0,0.0,0.0,0.0,0.0,0.0,0.0,0.0,0.0,0.0,0.0,0.0,0.0,0.0,0.0,0.0,0.0,0.0,0.0,0.0,0.0,0.0,0.0,0.0,0.0,0.0,0.0,0.0,0.0,0.0,0.0,0.0,0.0,0.0,0.0,0.0,-0.5303,-0.5661,-0.5312,-0.5091,-0.512,0.0,0.0,0.0,0.0,0.0,0.0,0.0,0.0,0.0,0.0,0.0,0.0,0.0,0.0,0.0,0.0,0.0,0.0,0.0,0.0,0.0,0.0,0.0,0.0,0.0,0.0,0.0,0.0,0.0,0.0,0.0,0.0,0.0,0.0,0.0,0.0,0.0,0.0,0.0,0.0,0.0,0.0,0.0,0.0,0.0,0.0,0.0,0.0,0.0,0.0,0.0,0.0,0.0,0.0,0.0,0.0,0.0,0.0,0.0,0.0,0.0,0.0,0.0,0.0,0.0,0.0,0.0,0.0,0.0,0.0,0.0,0.0,0.0,0.0,0.0,0.0,0.0,0.0,0.0,0.0,0.0,0.0,0.0,0.0,0.0,0.0,0.0,0.0,0.0,0.0,0.0,0.0,0.0,0.0,0.0,0.0,0.0,0.0,0.0,0.0,0.0,0.0,0.0,0.0,0.0,0.0,0.0,0.0,0.0,0.0,0.0,0.0,-0.5406,-0.5474,-0.5691,0.0,0.0,0.0,0.0,0.0,0.0,0.0,0.0,0.0,0.0,0.0,0.0,0.0,0.0,0.0,0.0,0.0,0.0,0.0,0.0,0.0,0.0,0.0,0.0,0.0,0.0,0.0,0.0,0.0,0.0,0.0,0.0,0.0,0.0,0.0,0.0,0.0,0.0,0.0,0.0,0.0,0.0,0.0,0.0,0.0,0.0,0.0,0.0,0.0,0.0,0.0,0.0,0.0,0.0,0.0,0.0,0.0,0.0,0.0,0.0,0.0,0.0,0.0,0.0,0.0,0.0,0.0,0.0,0.0,0.0,0.0,0.0,0.0,0.0,0.0,0.0,0.0,0.0,0.0,0.0,0.0,0.0,0.0,0.0,0.0,0.0,0.0,0.0,0.0,0.0,0.0,0.0,0.0,0.0,0.0,0.0,0.0,0.0,0.0,0.0,0.0,0.0,0.0,0.0,0.0,0.0,0.0,0.0,0.0,0.0,-0.5488,-0.6248,-0.627,0.0,-0.7325,0.0,0.0,0.0,0.0,0.0,0.0,0.0,0.0,0.0,0.0,0.0,0.0,0.0,0.0,0.0,0.0,0.0,0.0,0.0,0.0,0.0,0.0,0.0,0.0,0.0,0.0,0.0,0.0,0.0,0.0,0.0,0.0,0.0,0.0,0.0,0.0,0.0,0.0,0.0,0.0,0.0,0.0,0.0,0.0,0.0,0.0,0.0,0.0,0.0,0.0,0.0,0.0,0.0,0.0,0.0,0.0,0.0,0.0,0.0,0.0,0.0,0.0,0.0,0.0,0.0,0.0,0.0,0.0,0.0,0.0,0.0,0.0,0.0,0.0,0.0,0.0,0.0,0.0,0.0,0.0,0.0,0.0,0.0,0.0,0.0,0.0,0.0,0.0,0.0,0.0,0.0,0.0,0.0,0.0,0.0,0.0,0.0,0.0,0.0,0.0,0.0,0.0,0.0,0.0,0.0,0.0,0.0,0.0,0.0,0.0,-0.6033,-0.6408,-0.6406,-0.6788,0.0,0.0,0.0,0.0,0.0,0.0,0.0,0.0,0.0,0.0,0.0,0.0,0.0,0.0,0.0,0.0,0.0,0.0,0.0,0.0,0.0,0.0,0.0,0.0,0.0,0.0,0.0,0.0,0.0,0.0,0.0,0.0,0.0,0.0,0.0,0.0,0.0,0.0,0.0,0.0,0.0,0.0,0.0,0.0,0.0,0.0,0.0,0.0,0.0,0.0,0.0,0.0,0.0,0.0,0.0,0.0,0.0,0.0,0.0,0.0,0.0,0.0,0.0,0.0,0.0,0.0,0.0,0.0,0.0,0.0,0.0,0.0,0.0,0.0,0.0,0.0,0.0,0.0,0.0,0.0,0.0,0.0,0.0,0.0,0.0,0.0,0.0,0.0,0.0,0.0,0.0,0.0,0.0,0.0,0.0,0.0,0.0,0.0,0.0,0.0,0.0,0.0,0.0,0.0,0.0,0.0,0.0,0.0,0.0,0.0,-0.6188,0.0,-0.6725,-0.6748,-0.6884,-0.7202,0.0,0.0,0.0,0.0,0.0,0.0,0.0,0.0,0.0,0.0,0.0,0.0,0.0,0.0,0.0,0.0,0.0,0.0,0.0,0.0,0.0,0.0,0.0,0.0,0.0,0.0,0.0,0.0,0.0,0.0,0.0,0.0,0.0,0.0,0.0,0.0,0.0,0.0,0.0,0.0,0.0,0.0,0.0,0.0,0.0,0.0,0.0,0.0,0.0,0.0,0.0,0.0,0.0,0.0,0.0,0.0,0.0,0.0,0.0,0.0,0.0,0.0,0.0,0.0,0.0,0.0,0.0,0.0,0.0,0.0,0.0,0.0,0.0,0.0,0.0,0.0,0.0,0.0,0.0,0.0,0.0,0.0,0.0,0.0,0.0,0.0,0.0,0.0,0.0,0.0,0.0,0.0,0.0,0.0,0.0,0.0,0.0,0.0,0.0,0.0,0.0,0.0,0.0,0.0,0.0,0.0,0.0,0.0,0.0,-0.6786,-0.6763,-0.7513,-0.7547,-0.7159,0.0,0.0,0.0,0.0,0.0,0.0,0.0,0.0,0.0,0.0,0.0,0.0,0.0,0.0,0.0,0.0,0.0,0.0,0.0,0.0,0.0,0.0,0.0,0.0,0.0,0.0,0.0,0.0,0.0,0.0,0.0,0.0,0.0,0.0,0.0,0.0,0.0,0.0,0.0,0.0,0.0,0.0,0.0,0.0,0.0,0.0,0.0,0.0,0.0,0.0,0.0,0.0,0.0,0.0,0.0,0.0,0.0,0.0,0.0,0.0,0.0,0.0,0.0,0.0,0.0,0.0,0.0,0.0,0.0,0.0,0.0,0.0,0.0,0.0,0.0,0.0,0.0,0.0,0.0,0.0,0.0,0.0,0.0,0.0,0.0,0.0,0.0,0.0,0.0,0.0,0.0,0.0,0.0,0.0,0.0,0.0,0.0,0.0,0.0,0.0,0.0,0.0,0.0,0.0,0.0,0.0,0.0,0.0,0.0,-0.6003,-0.623,-0.6944,-0.8145,-0.7242,-0.6709,0.0,0.0,0.0,0.0,0.0,0.0,0.0,0.0,0.0,0.0,0.0,0.0,0.0,0.0,0.0,0.0,0.0,0.0,0.0,0.0,0.0,0.0,0.0,0.0,0.0,0.0,0.0,0.0,0.0,0.0,0.0,0.0,0.0,0.0,0.0,0.0,0.0,0.0,0.0,0.0,0.0,0.0,0.0,0.0,0.0,0.0,0.0,0.0,0.0,0.0,0.0,0.0,0.0,0.0,0.0,0.0,0.0,0.0,0.0,0.0,0.0,0.0,0.0,0.0,0.0,0.0,0.0,0.0,0.0,0.0,0.0,0.0,0.0,0.0,0.0,0.0,0.0,0.0,0.0,0.0,0.0,0.0,0.0,0.0,0.0,0.0,0.0,0.0,0.0,0.0,0.0,0.0,0.0,0.0,0.0,0.0,0.0,0.0,0.0,0.0,0.0,0.0,0.0,0.0,0.0,0.0,0.0,0.0,0.0,-0.5809,0.0,-0.7342,0.0,-0.7079,-0.6436,0.0,0.0,0.0,0.0,0.0,0.0,0.0,0.0,0.0,0.0,0.0,0.0,0.0,0.0,0.0,0.0,0.0,0.0,0.0,0.0,0.0,0.0,0.0,0.0,0.0,0.0,0.0,0.0,0.0,0.0,0.0,0.0,0.0,0.0,0.0,0.0,0.0,0.0,0.0,0.0,0.0,0.0,0.0,0.0,0.0,0.0,0.0,0.0,0.0,0.0,0.0,0.0,0.0,0.0,0.0,0.0,0.0,0.0,0.0,0.0,0.0,0.0,0.0,0.0,0.0,0.0,0.0,0.0,0.0,0.0,0.0,0.0,0.0,0.0,0.0,0.0,0.0,0.0,0.0,0.0,0.0,0.0,0.0,0.0,0.0,0.0,0.0,0.0,0.0,0.0,0.0,0.0,0.0,0.0,0.0,0.0,0.0,0.0,0.0,0.0,0.0,0.0,0.0,0.0,0.0,0.0,0.0,0.0,-0.5839,-0.7223,-0.7877,-0.7831,-0.716,-0.7087,-0.6321,0.0,0.0,0.0,0.0,0.0,0.0,0.0,0.0,0.0,0.0,0.0,0.0,0.0,0.0,0.0,0.0,0.0,0.0,0.0,0.0,0.0,0.0,0.0,0.0,0.0,0.0,0.0,0.0,0.0,0.0,0.0,0.0,0.0,0.0,0.0,0.0,0.0,0.0,0.0,0.0,0.0,0.0,0.0,0.0,0.0,0.0,0.0,0.0,0.0,0.0,0.0,0.0,0.0,0.0,0.0,0.0,0.0,0.0,0.0,0.0,0.0,0.0,0.0,0.0,0.0,0.0,0.0,0.0,0.0,0.0,0.0,0.0,0.0,0.0,0.0,0.0,0.0,0.0,0.0,0.0,0.0,0.0,0.0,0.0,0.0,0.0,0.0,0.0,0.0,0.0,0.0,0.0,0.0,0.0,0.0,0.0,0.0,0.0,0.0,0.0,0.0,0.0,0.0,0.0,0.0,0.0,0.0,0.0,0.0,-0.7284,-0.7241,-0.7297,-0.7497,-0.7023,-0.6715,0.0,0.0,0.0,0.0,0.0,0.0,0.0,0.0,0.0,0.0,0.0,0.0,0.0,0.0,0.0,0.0,0.0,0.0,0.0,0.0,0.0,0.0,0.0,0.0,0.0,0.0,0.0,0.0,0.0,0.0,0.0,0.0,0.0,0.0,0.0,0.0,0.0,0.0,0.0,0.0,0.0,0.0,0.0,0.0,0.0,0.0,0.0,0.0,0.0,0.0,0.0,0.0,0.0,0.0,0.0,0.0,0.0,0.0,0.0,0.0,0.0,0.0,0.0,0.0,0.0,0.0,0.0,0.0,0.0,0.0,0.0,0.0,0.0,0.0,0.0,0.0,0.0,0.0,0.0,0.0,0.0,0.0,0.0,0.0,0.0,0.0,0.0,0.0,0.0,0.0,0.0,0.0,0.0,0.0,0.0,0.0,0.0,0.0,0.0,0.0,0.0,0.0,0.0,0.0,0.0,0.0,0.0,0.0,0.0,-0.783,-0.7578,-0.7507,-0.7622,-0.7168,-0.6945,-0.699,0.0,0.0,0.0,0.0,0.0,0.0,0.0,0.0,0.0,0.0,0.0,0.0,0.0,0.0,0.0,0.0,0.0,0.0,0.0,0.0,0.0,0.0,0.0,0.0,0.0,0.0,0.0,0.0,0.0,0.0,0.0,0.0,0.0,0.0,0.0,0.0,0.0,0.0,0.0,0.0,0.0,0.0,0.0,0.0,0.0,0.0,0.0,0.0,0.0,0.0,0.0,0.0,0.0,0.0,0.0,0.0,0.0,0.0,0.0,0.0,0.0,0.0,0.0,0.0,0.0,0.0,0.0,0.0,0.0,0.0,0.0,0.0,0.0,0.0,0.0,0.0,0.0,0.0,0.0,0.0,0.0,0.0,0.0,0.0,0.0,0.0,0.0,0.0,0.0,0.0,0.0,0.0,0.0,0.0,0.0,0.0,0.0,0.0,0.0,0.0,0.0,0.0,0.0,0.0,0.0,0.0,0.0,0.0,-0.875,-0.8692,-0.8267,-0.7568,-0.7524,-0.7136,0.0,0.0,0.0,0.0,0.0,0.0,0.0,0.0,0.0,0.0,0.0,0.0,0.0,0.0,0.0,0.0,0.0,0.0,0.0,0.0,0.0,0.0,0.0,0.0,0.0,0.0,0.0,0.0,0.0,0.0,0.0,0.0,0.0,0.0,0.0,0.0,0.0,0.0,0.0,0.0,0.0,0.0,0.0,0.0,0.0,0.0,0.0,0.0,0.0,0.0,0.0,0.0,0.0,0.0,0.0,0.0,0.0,0.0,0.0,0.0,0.0,0.0,0.0,0.0,0.0,0.0,0.0,0.0,0.0,0.0,0.0,0.0,0.0,0.0,0.0,0.0,0.0,0.0,0.0,0.0,0.0,0.0,0.0,0.0,0.0,0.0,0.0,0.0,0.0,0.0,0.0,0.0,0.0,0.0,0.0,0.0,0.0,0.0,0.0,0.0,0.0,0.0,0.0,0.0,0.0,0.0,0.0,0.0,0.0,-0.9394,-0.8653,-0.8078,-0.7741,-0.788,-0.7761,0.0,0.0,0.0,0.0,0.0,0.0,0.0,0.0,0.0,0.0,0.0,0.0,0.0,0.0,0.0,0.0,0.0,0.0,0.0,0.0,0.0,0.0,0.0,0.0,0.0,0.0,0.0,0.0,0.0,0.0,0.0,0.0,0.0,0.0,0.0,0.0,0.0,0.0,0.0,0.0,0.0,0.0,0.0,0.0,0.0,0.0,0.0,0.0,0.0,0.0,0.0,0.0,0.0,0.0,0.0,0.0,0.0,0.0,0.0,0.0,0.0,0.0,0.0,0.0,0.0,0.0,0.0,0.0,0.0,0.0,0.0,0.0,0.0,0.0,0.0,0.0,0.0,0.0,0.0,0.0,0.0,0.0,0.0,0.0,0.0,0.0,0.0,0.0,0.0,0.0,0.0,0.0,0.0,0.0,0.0,0.0,0.0,0.0,0.0,0.0,0.0,0.0,0.0,0.0,0.0,0.0,0.0,0.0,-0.9279,-0.9424,-0.8566,-0.8103,-0.8099,-0.8025,-0.7931,0.0,0.0,0.0,0.0,0.0,0.0,0.0,0.0,0.0,0.0,0.0,0.0,0.0,0.0,0.0,0.0,0.0,0.0,0.0,0.0,0.0,0.0,0.0,0.0,0.0,0.0,0.0,0.0,0.0,0.0,0.0,0.0,0.0,0.0,0.0,0.0,0.0,0.0,0.0,0.0,0.0,0.0,0.0,0.0,0.0,0.0,0.0,0.0,0.0,0.0,0.0,0.0,0.0,0.0,0.0,0.0,0.0,0.0,0.0,0.0,0.0,0.0,0.0,0.0,0.0,0.0,0.0,0.0,0.0,0.0,0.0,0.0,0.0,0.0,0.0,0.0,0.0,0.0,0.0,0.0,0.0,0.0,0.0,0.0,0.0,0.0,0.0,0.0,0.0,0.0,0.0,0.0,0.0,0.0,0.0,0.0,0.0,0.0,0.0,0.0,0.0,0.0,0.0,0.0,0.0,0.0,0.0,0.0,-0.9076,-0.9188,-0.8464,-0.8243,-0.8556,-0.8046,-0.7782,0.0,0.0,0.0,0.0,0.0,0.0,0.0,0.0,0.0,0.0,0.0,0.0,0.0,0.0,0.0,0.0,0.0,0.0,0.0,0.0,0.0,0.0,0.0,0.0,0.0,0.0,0.0,0.0,0.0,0.0,0.0,0.0,0.0,0.0,0.0,0.0,0.0,0.0,0.0,0.0,0.0,0.0,0.0,0.0,0.0,0.0,0.0,0.0,0.0,0.0,0.0,0.0,0.0,0.0,0.0,0.0,0.0,0.0,0.0,0.0,0.0,0.0,0.0,0.0,0.0,0.0,0.0,0.0,0.0,0.0,0.0,0.0,0.0,0.0,0.0,0.0,0.0,0.0,0.0,0.0,0.0,0.0,0.0,0.0,0.0,0.0,0.0,0.0,0.0,0.0,0.0,0.0,0.0,0.0,0.0,0.0,0.0,0.0,0.0,0.0,0.0,0.0,0.0,0.0,0.0,0.0,0.0,0.0,-0.8937,-0.9693,-0.8568,-0.8369,-0.9253,-0.8015,-0.7418,0.0,0.0,0.0,0.0,0.0,0.0,0.0,0.0,0.0,0.0,0.0,0.0,0.0,0.0,0.0,0.0,0.0,0.0,0.0,0.0,0.0,0.0,0.0,0.0,0.0,0.0,0.0,0.0,0.0,0.0,0.0,0.0,0.0,0.0,0.0,0.0,0.0,0.0,0.0,0.0,0.0,0.0,0.0,0.0,0.0,0.0,0.0,0.0,0.618,0.0,0.0,0.0,0.0,0.0,0.0,0.0,0.0,0.0,0.0,0.0,0.0,0.0,0.0,0.0,0.0,0.0,0.0,0.0,0.0,0.0,0.0,0.0,0.0,0.0,0.0,0.0,0.0,0.0,0.0,0.0,0.0,0.0,0.0,0.0,0.0,0.0,0.0,0.0,0.0,0.0,0.0,0.0,0.0,0.0,0.0,0.0,0.0,0.0,0.0,0.0,0.0,0.0,0.0,0.0,0.0,0.0,0.0,0.0,-0.905,-0.9929,-0.9072,-0.8893,-0.9401,-0.8098,-0.7433,0.0,0.0,0.0,0.0,0.0,0.0,0.0,0.0,0.0,0.0,0.0,0.0,0.0,0.0,0.0,0.0,0.0,0.0,0.0,0.0,0.0,0.0,0.0,0.0,0.0,0.0,0.0,0.0,0.0,0.0,0.0,0.0,0.0,0.0,0.0,0.0,0.0,0.0,0.0,0.0,0.0,0.0,0.0,0.0,0.0,0.0,0.0,0.0,0.0,0.0,0.0,0.0,0.0,0.0,0.0,0.0,0.0,0.0,0.0,0.0,0.0,0.0,0.0,0.0,0.0,0.0,0.0,0.0,0.0,0.0,0.0,0.0,0.0,0.0,0.0,0.0,0.0,0.0,0.0,0.0,0.0,0.0,0.0,0.0,0.0,0.0,0.0,0.0,0.0,0.0,0.0,0.0,0.0,0.0,0.0,0.0,0.0,0.0,0.0,0.0,0.0,0.0,0.0,0.0,0.0,0.0,0.0,-0.862,-0.9306,-1.003,-0.9703,-0.948,-0.9399,-0.8165,-0.7491,-0.7437,0.0,0.0,0.0,0.0,0.0,0.0,0.0,0.0,0.0,0.0,0.0,0.0,0.0,0.0,0.0,0.0,0.0,0.0,0.0,0.0,0.0,0.0,0.0,0.0,0.0,0.0,0.0,0.0,0.0,0.0,0.0,0.0,0.0,0.0,0.0,0.0,0.0,0.0,0.6456,0.7621,0.0,0.0,0.0,0.0,0.0,0.0,0.0,0.0,0.7673,0.0,0.0,0.0,0.0,0.0,0.0,0.0,0.0,0.0,0.0,0.0,0.0,0.0,0.0,0.0,0.0,0.0,0.0,0.0,0.0,0.0,0.0,0.0,0.0,0.0,0.0,0.0,0.0,0.0,0.0,0.0,0.0,0.0,0.0,0.0,0.0,0.0,0.0,0.0,0.0,0.0,0.0,0.0,0.0,0.0,0.0,0.0,0.0,0.0,0.0,0.0,0.0,0.0,0.0,0.0,0.0,-0.8543,-0.9124,-0.961,-1.009,-1.009,-0.9727,-0.9012,-0.8026,-0.7276,-0.6756,0.0,0.0,0.0,0.0,0.0,0.0,0.0,0.0,0.0,0.0,0.0,0.0,0.0,0.0,0.0,0.0,0.0,0.0,0.0,0.0,0.0,0.0,0.0,0.0,0.0,0.0,0.0,0.0,0.0,0.0,0.0,0.0,0.0,0.0,0.0,0.0,0.0,0.0,0.0,0.8088,0.843,0.0,0.0,0.0,0.0,0.0,0.0,0.0,0.0,0.6902,0.0,0.0,0.0,0.0,0.0,0.0,0.0,0.0,0.0,0.0,0.0,0.0,0.0,0.0,0.0,0.0,0.0,0.0,0.0,0.0,0.0,0.0,0.0,0.0,0.0,0.0,0.0,0.0,0.0,0.0,0.0,0.0,0.0,0.0,0.0,0.0,0.0,0.0,0.0,0.0,0.0,0.0,0.0,0.0,0.0,0.0,0.0,0.0,0.0,0.0,0.0,0.0,0.0,0.0,0.0,-0.8636,-0.9065,-0.9515,-0.9972,-1.0273,-0.9917,-0.892,-0.8156,-0.7279,0.0,0.0,0.0,0.0,0.0,0.0,0.0,0.0,0.0,0.0,0.0,0.0,0.0,0.0,0.0,0.0,0.0,0.0,0.0,0.0,0.0,0.0,0.0,0.0,0.0,0.0,0.0,0.0,0.0,0.0,0.0,0.0,0.0,0.0,0.0,0.0,0.0,0.0,0.0,0.0,0.8333,0.8744,0.844,0.0,0.0,0.0,0.0,0.0,0.0,0.7652,0.7357,0.0,0.0,0.0,0.0,0.0,0.0,0.0,0.0,0.0,0.0,0.0,0.0,0.0,0.0,0.0,0.0,0.0,0.0,0.0,0.0,0.0,0.0,0.0,0.0,0.0,0.0,0.0,0.0,0.0,0.0,0.0,0.0,0.0,0.0,0.0,0.0,0.0,0.0,0.0,0.0,0.0,0.0,0.0,0.0,0.0,0.0,0.0,0.0,0.0,0.0,0.0,0.0,0.0,0.0,0.0,-0.8597,-0.9123,-0.9532,-0.9842,-1.0481,-1.0146,-0.8759,-0.8249,-0.7318,0.0,0.0,0.0,0.0,0.0,0.0,0.0,0.0,0.0,0.0,0.0,0.0,0.0,0.0,0.0,0.0,0.0,0.0,0.0,0.0,0.0,0.0,0.0,0.0,0.0,0.0,0.0,0.0,0.0,0.0,0.0,0.0,0.0,0.0,0.0,0.0,0.0,0.0,0.0,0.0,0.0,0.9055,0.8207,0.8539,0.0,0.0,0.0,0.0,0.8769,0.8385,0.0,0.0,0.0,0.0,0.0,0.0,0.0,0.0,0.0,0.0,0.0,0.0,0.0,0.0,0.0,0.0,0.0,0.0,0.0,0.0,0.0,0.0,0.0,0.0,0.0,0.0,0.0,0.0,0.0,0.0,0.0,0.0,0.0,0.0,0.0,0.0,0.0,0.0,0.0,0.0,0.0,0.0,0.0,0.0,0.0,0.0,0.0,0.0,0.0,0.0,0.0,0.0,0.0,0.0,0.0,0.0,-0.8687,-0.9783,-1.0107,-0.9721,-1.0917,-1.0481,-0.8202,-0.8036,-0.7225,0.0,0.0,0.0,0.0,0.0,0.0,0.0,0.0,0.0,0.0,0.0,0.0,0.0,0.0,0.0,0.0,0.0,0.0,0.0,0.0,0.0,0.0,0.0,0.0,0.0,0.0,0.0,0.0,0.0,0.0,0.0,0.0,0.0,0.0,0.0,0.0,0.0,0.0,0.0,0.0,0.0,0.9178,0.8743,0.8807,0.8801,0.0,0.0,0.8584,0.8985,0.8514,0.0,0.0,0.0,0.0,0.0,0.0,0.0,0.0,0.0,0.0,0.0,0.0,0.0,0.0,0.0,0.0,0.0,0.0,0.0,0.0,0.0,0.0,0.0,0.0,0.0,0.0,0.0,0.0,0.0,0.0,0.0,0.0,0.0,0.0,0.0,0.0,0.0,0.0,0.0,0.0,0.0,0.0,0.0,0.0,0.0,0.0,0.0,0.0,0.0,0.0,0.0,0.0,0.0,0.0,0.0,-0.7823,-0.8533,-0.9428,-0.9758,-0.9517,-1.0228,-0.9796,-0.8049,-0.7631,-0.6749,0.0,0.0,0.0,0.0,0.0,0.0,0.0,0.0,0.0,0.0,0.0,0.0,0.0,0.0,0.0,0.0,0.0,0.0,0.0,0.0,0.0,0.0,0.0,0.0,0.0,0.0,0.0,0.0,0.0,0.0,0.0,0.0,0.0,0.0,0.0,0.0,0.0,0.0,0.0,0.0,0.0,0.0,0.9259,0.941,0.0,0.0,0.0,0.9032,0.908,0.0,0.0,0.0,0.0,0.0,0.0,0.0,0.0,0.0,0.0,0.0,0.0,0.0,0.0,0.0,0.0,0.0,0.0,0.0,0.0,0.0,0.0,0.0,0.0,0.0,0.0,0.0,0.0,0.0,0.0,0.0,0.0,0.0,0.0,0.0,0.0,0.0,0.0,0.0,0.0,0.0,0.0,0.0,0.0,0.0,0.0,0.0,0.0,0.0,0.0,0.0,0.0,0.0,0.0,0.0,0.0,0.0,-0.8249,-0.8949,-0.9232,-0.908,-0.9537,-0.912,-0.7687,-0.7154,0.0,0.0,0.0,0.0,0.0,0.0,0.0,0.0,0.0,0.0,0.0,0.0,0.0,0.0,0.0,0.0,0.0,0.0,0.0,0.0,0.0,0.0,0.0,0.0,0.0,0.0,0.0,0.0,0.0,0.0,0.0,0.0,0.0,0.0,0.0,0.0,0.0,0.0,0.0,0.0,0.0,0.0,0.9094,0.9314,0.966,0.983,0.0,0.0,0.9323,0.908,0.8364,0.7842,0.0,0.0,0.0,0.0,0.0,0.0,0.0,0.0,0.0,0.0,0.0,0.0,0.0,0.0,0.0,0.0,0.0,0.0,0.0,0.0,0.0,0.0,0.0,0.0,0.0,0.0,0.0,0.0,0.0,0.0,0.0,0.0,0.0,0.0,0.0,0.0,0.0,0.0,0.0,0.0,0.0,0.0,0.0,0.0,0.0,0.0,0.0,0.0,0.0,0.0,0.0,0.0,0.0,0.0,0.0,-0.7818,-0.8688,-0.8799,-0.8157,-0.9204,-0.8812,-0.6778,-0.6654,-0.6033,0.0,0.0,0.0,0.0,0.0,0.0,0.0,0.0,0.0,0.0,0.0,0.0,0.0,0.0,0.0,0.0,0.0,0.0,0.0,0.0,0.0,0.0,0.0,0.0,0.0,0.0,0.0,0.0,0.0,0.0,0.0,0.0,0.0,0.0,0.0,0.0,0.0,0.0,0.0,0.0,0.0,0.8773,0.8677,0.9103,0.9126,0.0,0.0,0.9073,0.893,0.8189,0.7891,0.8677,0.0,0.0,0.0,0.0,0.0,0.0,0.0,0.0,0.0,0.0,0.0,0.0,0.0,0.0,0.0,0.0,0.0,0.0,0.0,0.0,0.0,0.0,0.0,0.0,0.0,0.0,0.0,0.0,0.0,0.0,0.0,0.0,0.0,0.0,0.0,0.0,0.0,0.0,0.0,0.0,0.0,0.0,0.0,0.0,0.0,0.0,0.0,0.0,0.0,0.0,0.0,0.0,0.0,-0.6394,-0.7789,-0.8457,-0.8539,-0.8062,-0.8775,-0.8416,-0.6881,-0.6445,-0.5757,0.0,0.0,0.0,0.0,0.0,0.0,0.0,0.0,0.0,0.0,0.0,0.0,0.0,0.0,0.0,0.0,0.0,0.0,0.0,0.0,0.0,0.0,0.0,0.0,0.0,0.0,0.0,0.0,0.4699,0.4675,0.4757,0.0,0.0,0.0,0.0,0.0,0.0,0.0,0.0,0.0,0.0,0.8784,0.889,0.9126,0.0,0.0,0.895,0.8988,0.9025,0.8333,0.7921,0.835,0.7818,0.0,0.0,0.0,0.0,0.0,0.0,0.0,0.0,0.0,0.0,0.0,0.0,0.0,0.0,0.0,0.0,0.0,0.0,0.0,0.0,0.0,0.0,0.0,0.0,0.0,0.0,0.0,0.0,0.0,0.0,0.0,0.0,0.0,0.0,0.0,0.0,0.0,0.0,0.0,0.0,0.0,0.0,0.0,0.0,0.0,0.0,0.0,0.0,0.0,0.0,0.0,0.0,-0.6545,-0.7875,-0.8186,-0.8234,-0.8001,-0.8432,-0.8042,-0.6756,-0.6165,-0.5479,0.0,0.0,0.0,0.0,0.0,0.0,0.0,0.0,0.0,0.0,0.0,0.0,0.0,0.0,0.0,0.0,0.0,0.0,0.0,0.0,0.0,0.0,0.0,0.0,0.0,0.0,0.0,0.0,0.4632,0.4647,0.46,0.0,0.0,0.0,0.0,0.0,0.0,0.0,0.0,0.0,0.0,0.8626,0.8904,0.9219,0.9436,0.9458,0.9398,0.931,0.9198,0.858,0.8149,0.8319,0.0,0.0,0.0,0.0,0.0,0.0,0.0,0.0,0.0,0.0,0.0,0.0,0.0,0.0,0.0,0.0,0.0,0.0,0.0,0.0,0.0,0.0,0.0,0.0,0.0,0.0,0.0,0.0,0.0,0.0,-0.5705,0.0,0.0,0.0,0.0,0.0,0.0,0.0,0.0,0.0,0.0,0.0,0.0,0.0,0.0,0.0,0.0,0.0,0.0,0.0,0.0,0.0,0.0,-0.6868,-0.8054,-0.7858,-0.7819,-0.7981,-0.8206,-0.7599,-0.6104,-0.5758,-0.5198,-0.4321,0.0,0.0,0.0,0.0,0.0,0.0,0.0,0.0,0.0,0.0,0.0,0.0,0.0,0.0,0.0,0.0,0.0,0.0,0.0,0.0,0.0,0.0,0.0,0.0,0.0,0.0,0.4569,0.4614,0.4595,0.0,0.0,0.0,0.0,0.0,0.0,0.0,0.0,0.0,0.0,0.7775,0.8222,0.859,0.9344,0.9721,0.9413,0.991,1.0121,0.9456,0.8929,0.865,0.0,0.0,0.0,0.0,0.0,0.0,0.0,0.0,0.0,0.0,0.0,0.0,0.0,0.0,0.0,0.0,0.0,0.0,0.0,0.0,0.0,0.0,0.0,0.0,0.0,0.0,0.0,-0.6554,-0.6148,0.0,0.0,0.0,0.0,0.0,0.0,0.0,0.0,0.0,0.0,0.0,-0.7828,-0.7711,0.0,0.0,0.0,0.0,0.0,0.0,0.0,0.0,0.0,0.0,0.0,0.0,-0.6759,-0.7647,-0.7681,-0.7656,-0.7607,-0.8052,-0.7569,-0.6037,-0.5746,-0.4938,-0.3544,0.0,0.0,0.0,0.0,0.0,0.0,0.0,0.0,0.0,0.0,0.0,0.0,0.0,0.0,0.0,0.0,0.0,0.0,0.0,0.0,0.0,0.0,0.0,0.0,0.0,0.4266,0.0,0.0,0.0,0.0,0.0,0.0,0.0,0.0,0.0,0.0,0.0,0.7025,0.8324,0.8349,0.8466,0.9036,0.9072,0.8867,0.0,0.0,0.0,0.0,0.0,0.0,0.0,0.0,0.0,0.0,0.0,0.0,0.0,0.0,0.914,0.8437,0.8137,0.8012,0.7991,0.0,0.0,0.0,0.0,0.0,0.0,0.0,0.0,0.0,0.0,0.0,0.0,0.0,0.0,-0.8022,0.0,-0.7502,0.0,0.0,0.0,0.0,0.0,0.0,0.0,0.0,-0.7653,-0.7868,-0.8154,-0.8205,-0.8218,0.0,-0.8339,-0.7892,0.0,0.0,0.0,0.0,0.0,0.0,0.0,0.0,-0.7048,-0.7647,-0.762,-0.7634,-0.7727,-0.7955,-0.7474,-0.6219,-0.5544,-0.4468,-0.2982,-0.2749,-0.237,0.0,0.0,0.0,0.0,0.0,0.0,0.0,0.0,0.0,0.0,0.0,0.0,0.0,0.0,0.0,0.0,0.0,0.0,0.0,0.0,0.0,0.0,0.0,0.4163,0.0,0.0,0.0,0.0,0.0,0.0,0.0,0.0,0.0,0.7167,0.7049,0.7358,0.8584,0.8459,0.8525,0.928,0.0,0.0,0.0,0.0,0.0,0.0,0.0,0.971,1.0277,0.9918,0.9506,0.9324,0.9348,0.9363,0.9313,0.0,0.0,0.8989,0.87,0.8575,0.8575,0.8575,0.8573,0.8575,0.8888,0.9202,0.0,0.0,0.0,0.0,0.0,0.0,0.0,0.0,-0.9901,-0.9863,0.0,-0.9512,0.0,0.0,0.0,0.0,0.0,-0.8251,0.0,0.0,-0.8363,-0.8224,-0.8038,-0.8296,-0.8251,-0.8029,-0.8671,-0.8723,-0.816,-0.6689,0.0,0.0,0.0,0.0,0.0,0.0,-0.7683,-0.7972,-0.7637,-0.7714,-0.8216,-0.7904,-0.7301,-0.6462,-0.5122,-0.3842,-0.2707,-0.2896,-0.2532,-0.1404,-0.1729,0.0,0.0,0.0,0.0,0.0,0.0,0.0,0.0,0.0,0.0,0.0,0.0,0.0,0.0,0.0,0.0,0.0,0.0,0.0,0.0,0.3978,0.0,0.0,0.0,0.0,0.0,0.0,0.0,0.0,0.0,0.0,0.6625,0.7731,0.8441,0.8221,0.0,0.0,0.0,0.0,0.9603,1.0873,1.1136,1.1293,1.1749,1.1157,1.0657,1.0682,0.0,0.0,0.9251,0.9579,0.9742,0.9239,0.9579,0.9893,0.9867,0.9441,0.9126,0.9126,0.9126,0.9151,0.9214,0.9918,1.0745,-1.2316,0.0,0.0,0.0,0.0,-1.034,-1.0414,-1.0868,-1.0446,-1.0257,-1.0247,-1.0166,0.0,0.0,0.0,0.0,0.0,0.0,-0.9518,-0.9772,-0.9786,-0.9758,-0.968,-0.9766,-0.9634,-0.933,-0.9165,-0.8988,-0.88,-0.7822,-0.7347,-0.7403,0.0,0.0,0.0,0.0,-0.8268,-0.8205,-0.7949,-0.7824,-0.7865,-0.7754,-0.7126,-0.5878,-0.4715,-0.3747,-0.2979,-0.2727,-0.2396,-0.1964,-0.1465,0.0,0.0,0.0,0.0,0.0,0.0,0.0,0.0,0.0,0.0,0.0,0.0,0.0,0.0,0.0,0.0,0.0,0.0,0.0,0.4258,0.4097,0.4235,0.0,0.0,0.0,0.0,0.0,0.0,0.0,0.0,0.0,0.6892,0.7112,0.7837,0.0,0.0,0.9135,1.0006,0.9871,0.9673,0.9701,1.0021,0.0,0.0,1.0045,1.0256,1.0631,1.0568,1.0419,1.0269,1.0056,0.9855,0.9692,0.9792,0.9893,0.988,0.978,0.9679,0.9654,0.9667,0.9805,1.0182,1.0519,1.0883,-1.3455,-1.1768,-1.1958,-1.2007,-1.1887,-1.1491,-1.1409,-1.1487,-1.111,-1.096,-1.0935,-1.0807,-1.0564,-1.0249,-1.0,0.0,0.0,0.0,-1.0285,-1.0581,-1.0618,-1.0595,-1.0604,-1.0593,-1.0422,-1.011,-0.9897,-0.9681,-0.9403,-0.9063,-0.8755,-0.8508,0.0,0.0,-0.8318,-0.8571,-0.8541,-0.8193,-0.8151,-0.7997,-0.7715,-0.7383,-0.6705,-0.563,-0.4667,-0.3782,-0.2972,-0.2676,-0.2346,-0.1974,-0.1397,-0.1035,0.0,0.0,0.0,0.0,0.0,0.0,0.0,0.0,0.0,0.0,0.0,0.2301,0.0,0.0,0.0,0.0,0.3469,0.3961,0.4639,0.4605,0.0,0.0,0.0,0.0,0.0,0.0,0.0,0.65,0.7103,0.7407,0.713,0.7064,0.7514,0.8747,0.8628,0.8779,0.9757,0.0,0.9366,0.9667,1.0018,1.0194,1.0119,1.0169,1.0256,1.0369,1.0382,1.0381,1.0369,1.0093,0.9893,0.9893,0.9893,0.9893,0.9893,0.9893,0.9981,1.0182,1.0219,1.0408,1.0946,1.1222,1.1485,-1.4415,-1.4136,-1.455,-1.4154,-1.3274,-1.3232,-1.276,-1.1969,-1.1954,-1.1954,-1.1933,-1.1581,-1.1223,-1.0842,-1.0309,0.0,-1.0498,-1.0508,-1.0684,-1.0968,-1.0968,-1.0944,-1.0932,-1.0932,-1.0763,-1.0433,-1.0765,-1.057,-0.997,-1.0247,-1.0,-0.9226,-0.8676,-0.8482,-0.8646,-0.8873,-0.8669,-0.8081,-0.8252,-0.8109,-0.7652,-0.6904,-0.6213,-0.5558,-0.4794,-0.3861,-0.2761,-0.2686,-0.2364,-0.1657,-0.1396,-0.1151,-0.0921,0.0,0.0,0.0,0.0,0.0,0.0,0.0,0.0,0.0,0.0,0.0,0.0,0.0,0.0,0.0,0.3576,0.0,0.4889,0.5274,0.0,0.0,0.0,0.592,0.6289,0.6102,0.6184,0.6801,0.0,0.0,0.725,0.7349,0.7387,0.7335,0.7449,0.7924,0.8938,0.874,0.893,1.0289,1.0552,1.0778,1.1001,1.0805,1.0407,1.0018,0.9893,0.9918,0.9918,0.9905,0.9893,0.9893,0.9893,0.9918,0.9943,0.9993,1.0144,1.0758,1.0758,1.0869,1.1512,1.2002,1.2328,-1.709,-1.6519,-1.6075,-1.5021,-1.3669,-1.3654,-1.3515,-1.3346,-1.3331,-1.3331,-1.3274,-1.2692,-1.2123,-1.1565,-1.1416,-1.1399,-1.1459,-1.1459,-1.1515,-1.1593,-1.1582,-1.1449,-1.1219,-1.1207,-1.1057,-1.0787,-1.0861,-1.0691,-1.0298,-1.0347,-1.0379,-1.0321,-1.0193,-0.9742,-0.9019,-0.9441,-0.931,-0.861,-0.8651,-0.822,-0.7266,-0.6751,-0.6069,-0.5171,-0.4658,-0.3861,-0.2739,-0.2686,-0.2419,-0.178,-0.1266,-0.0977,-0.0899,-0.038,0.0,0.0,0.0,0.0,0.0,0.0,0.0,0.0,0.0,0.2669,0.2846,0.0,0.3434,0.0,0.4032,0.4434,0.4541,0.5125,0.0,0.0,0.6219,0.6424,0.6519,0.6465,0.6499,0.6651,0.6993,0.7025,0.6554,0.7025,0.7215,0.6805,0.7868,0.8812,0.9063,0.9132,0.9261,0.9636,0.9746,0.9757,0.9956,1.0034,1.0056,0.9931,0.9893,0.9893,0.9893,0.9893,0.9893,0.9893,0.9893,1.003,1.0419,1.0493,1.0883,1.1685,1.1322,1.1007,1.1989,1.2325,1.2526,-1.8399,-1.7573,-1.7001,-1.6078,-1.4886,-1.4429,-1.4066,-1.3797,-1.3797,-1.3797,-1.3782,-1.3421,-1.3032,-1.2703,-1.2676,-1.2691,-1.2703,-1.2703,-1.2534,-1.225,-1.225,-1.1985,-1.1534,-1.1523,-1.1355,-1.1094,-1.1083,-1.0845,-1.0421,-1.0408,-1.0379,-1.0357,-1.0344,-1.0056,-0.9504,-1.0019,-0.9914,-0.9167,-0.8602,-0.7907,-0.7124,-0.6706,-0.6012,-0.5057,-0.4712,-0.398,-0.2761,-0.2806,-0.2553,-0.1836,-0.1347,-0.1031,-0.091,-0.0445,-0.0061,0.0,0.0,0.0,0.0,0.0,0.0,0.0,0.0,0.0,0.0,0.0,0.3544,0.0,0.443,0.4784,0.504,0.5432,0.5783,0.6044,0.6278,0.6427,0.6418,0.6418,0.6436,0.6406,0.6605,0.6563,0.6143,0.6618,0.6875,0.6548,0.7714,0.8609,0.8621,0.872,0.8914,0.9322,0.9408,0.9462,0.9606,0.9764,0.9893,0.9893,0.9893,0.9893,0.9893,0.9893,0.9893,0.9893,0.9893,1.0056,1.0581,1.0708,1.1071,1.1949,1.1899,1.1836,1.2576,1.2764,1.286,-1.9156,-1.8221,-1.7834,-1.7197,-1.6365,-1.5511,-1.4716,-1.4064,-1.4049,-1.3991,-1.3929,-1.3917,-1.3887,-1.3797,-1.3797,-1.3797,-1.3797,-1.3797,-1.3481,-1.2936,-1.2846,-1.249,-1.1925,-1.1846,-1.1659,-1.1352,-1.1318,-1.1008,-1.0483,-1.0408,-1.0274,-0.9993,-1.0018,-1.0044,-1.0118,-1.0522,-1.0344,-0.9526,-0.8306,-0.7515,-0.7094,-0.67,-0.6036,-0.5121,-0.4851,-0.4137,-0.2846,-0.2932,-0.2665,-0.1839,-0.1455,-0.1144,-0.0894,-0.0549,-0.0188,0.0,0.046,0.0,0.0,0.0,0.0,0.0,0.0,0.0,0.0,0.29,0.3541,0.4383,0.47,0.5108,0.5677,0.5802,0.5835,0.5863,0.6034,0.6153,0.6153,0.6165,0.6165,0.6165,0.5998,0.5913,0.5967,0.6272,0.6496,0.6652,0.7361,0.7946,0.7973,0.8042,0.8402,0.9175,0.9289,0.9369,0.962,0.9815,0.988,0.9841,0.988,0.9893,0.9893,0.9893,0.9893,0.9893,0.9893,1.0106,1.0681,1.0833,1.1222,1.2312,1.2504,1.2601,1.3023,1.316,1.321,-2.0571,-2.0038,-1.9361,-1.8368,-1.7161,-1.698,-1.6338,-1.541,-1.5424,-1.511,-1.4618,-1.4603,-1.4317,-1.3812,-1.3797,-1.3797,-1.3797,-1.3797,-1.3735,-1.36,-1.3044,-1.2729,-1.2591,-1.2055,-1.1757,-1.1692,-1.1423,-1.1127,-1.0787,-1.0532,-1.0457,-1.0532,-1.0557,-1.0797,-1.1219,0.0,0.0,0.0,-0.8138,-0.75,-0.7109,-0.6706,-0.6119,-0.5363,-0.4774,0.0,-0.308,-0.2858,-0.2479,-0.1821,-0.1269,0.0,0.0,0.0,0.0,0.0,0.0,0.0,0.0,0.0,0.0,0.0,0.2431,0.2756,0.2968,0.3627,0.4083,0.4176,0.4511,0.4744,0.4771,0.5254,0.5576,0.5576,0.5799,0.5954,0.5952,0.5964,0.5954,0.5954,0.5918,0.5964,0.6127,0.6359,0.6629,0.693,0.7292,0.7564,0.7738,0.8035,0.8311,0.8509,0.8773,0.8926,0.8983,0.9529,0.9789,0.9619,0.9738,0.988,0.9893,0.9893,0.9893,0.9893,0.9893,1.0257,1.1199,1.1437,1.1763,1.2852,1.3023,1.3085,1.3185,1.321,1.321,-2.142,0.0,-2.0287,-1.9416,0.0,-1.8053,-1.7588,-1.7028,-1.6156,-1.5619,-1.5304,-1.529,-1.5095,-1.4782,-1.4782,-1.4796,-1.4781,-1.4782,-1.4618,-1.4274,-1.3944,-1.3613,-1.3283,-1.2957,-1.2517,-1.2053,-1.1864,-1.1424,-1.0681,-1.0483,-1.0366,-1.0307,-1.0294,-1.047,-1.0733,-0.9965,-0.9256,-0.8658,-0.7822,-0.722,-0.6814,-0.6412,-0.5852,-0.5145,0.0,0.0,0.0,0.0,0.0,0.0,0.0,0.0,0.0,0.0,0.0,-0.002,0.0181,0.0482,0.0872,0.1295,0.171,0.2068,0.2544,0.288,0.3078,0.3716,0.4079,0.4037,0.4433,0.4614,0.4454,0.4943,0.5262,0.5146,0.5473,0.5698,0.5708,0.5708,0.5796,0.5993,0.5926,0.5962,0.625,0.6594,0.6856,0.7071,0.7348,0.7587,0.769,0.787,0.8048,0.8266,0.8578,0.8858,0.9076,0.9356,0.9686,0.9646,0.9789,0.988,0.9893,0.9893,0.9893,0.9918,1.0182,1.0685,1.1161,1.165,1.2253,1.2977,1.321,1.321,1.321,1.321,1.321,-2.1955,-2.1366,-2.0938,-2.0341,-1.9539,-1.8851,-1.847,-1.8192,0.0,0.0,0.0,-1.5814,-1.5814,-1.5814,-1.5814,-1.5814,-1.5814,-1.5814,-1.5514,-1.4975,-1.4856,-1.4498,-1.3989,-1.3842,-1.3348,-1.2481,-1.2287,-1.1654,-1.0567,-1.04,-1.0173,-0.9919,-0.9893,-0.9828,-0.9673,-0.9116,-0.8631,-0.8275,-0.7568,-0.6999,-0.6629,-0.6182,-0.5642,-0.5,-0.5094,-0.457,-0.3452,-0.3604,-0.3199,-0.2117,-0.1985,-0.1655,-0.0995,-0.0886,-0.0607,-0.0047,0.0199,0.0486,0.0798,0.1241,0.1653,0.1971,0.2594,0.3017,0.3128,0.3572,0.3848,0.39,0.4305,0.4485,0.4325,0.4686,0.4873,0.4646,0.5069,0.5389,0.548,0.5539,0.5755,0.6125,0.6044,0.6056,0.6487,0.6849,0.7139,0.7236,0.7476,0.7695,0.7695,0.771,0.7841,0.8109,0.8449,0.8814,0.9101,0.9329,0.9489,0.9711,0.9828,0.9893,0.9893,0.9893,0.9893,0.9893,1.0671,1.1274,1.1286,1.1851,1.2547,1.3098,1.321,1.321,1.321,1.321,1.321,-2.2229,-2.2099,-2.1659,-2.0874,-1.9912,-1.9437,-1.8713,-1.775,-1.6937,-1.6293,-1.5814,-1.5814,-1.5814,-1.5814,-1.5814,-1.5814,-1.5814,-1.5814,-1.5754,-1.5649,-1.5065,-1.4737,-1.4618,-1.4066,-1.3544,-1.3049,-1.2317,-1.1675,-1.1057,-1.0341,-0.9931,-0.9905,-0.9893,-0.9594,-0.9008,-0.8858,-0.8471,-0.7812,-0.7681,-0.7433,-0.7005,-0.6397,-0.5963,-0.5725,-0.4953,-0.429,-0.3765,-0.35,-0.3,-0.2222,-0.1956,-0.159,-0.1101,-0.0854,-0.0516,-0.0041,0.0,0.0179,0.0448,0.0899,0.1411,0.1972,0.2763,0.3249,0.328,0.3436,0.3657,0.3869,0.3976,0.4089,0.4273,0.4366,0.4426,0.4394,0.4635,0.4973,0.538,0.5641,0.5948,0.6331,0.6342,0.6482,0.6901,0.708,0.7266,0.7525,0.7637,0.7695,0.7695,0.7695,0.771,0.7827,0.8119,0.8365,0.8575,0.9033,0.9369,0.9461,0.9723,0.9916,0.9955,0.9918,0.9943,0.9943,1.1497,1.24,1.2102,1.2165,1.2626,1.3115,1.321,1.321,1.321,1.321,1.321,-2.2313,-2.2282,-2.2077,-2.1536,-2.0819,-2.016,-1.9278,-1.8238,-1.7923,-1.722,-1.6323,-1.6293,-1.6129,-1.5814,-1.5814,-1.5814,-1.5814,-1.5814,-1.5814,-1.5769,-1.5197,-1.4964,-1.4921,-1.4429,-1.3813,-1.309,-1.2388,-1.1655,-1.0905,-1.0222,-0.9893,-0.9893,-0.9712,-0.9356,-0.883,-0.862,-0.8365,-0.8033,-0.7599,-0.7281,-0.7086,-0.6185,-0.5767,-0.5887,-0.506,-0.4396,-0.3936,-0.3771,-0.3274,-0.2401,-0.2263,-0.1868,-0.1164,-0.0979,-0.0645,0.0,0.0,0.0175,0.0547,0.1146,0.1668,0.2087,0.2543,0.2808,0.2826,0.3406,0.3749,0.3699,0.3796,0.39,0.389,0.413,0.4303,0.4356,0.4777,0.5203,0.5575,0.5911,0.6287,0.6699,0.6774,0.6963,0.7379,0.7427,0.7462,0.7676,0.7695,0.7695,0.7695,0.7695,0.7695,0.7725,0.8033,0.8262,0.8333,0.891,0.9341,0.9408,0.9702,1.0025,1.0213,1.0157,1.0257,1.0985,1.2312,1.2952,1.2718,1.2747,1.2947,1.3102,1.321,1.321,1.321,1.321,1.321,-2.2223,-2.2152,-2.2049,-2.169,-2.1118,-2.0449,-1.9693,-1.8942,-1.8912,-1.8252,-1.7204,-1.6845,-1.6443,-1.6024,-1.5859,-1.5814,-1.5814,-1.5814,-1.5814,-1.5755,-1.5329,-1.5119,-1.5059,-1.4705,-1.4051,-1.3207,-1.2633,-1.1928,-1.1087,-1.0325,-0.9836,-0.9659,-0.9396,-0.9076,-0.8679,-0.8435,-0.8262,-0.8142,-0.7448,-0.7051,-0.6932,-0.593,-0.5479,-0.5601,-0.509,-0.452,-0.395,-0.3963,-0.3556,-0.2625,-0.2549,-0.213,-0.1233,-0.1153,-0.0819,0.0,0.0,0.0225,0.0775,0.1313,0.1802,0.218,0.2363,0.2473,0.2549,0.3355,0.3823,0.3581,0.3834,0.3935,0.3837,0.4068,0.4347,0.4431,0.5003,0.5438,0.5696,0.6202,0.6687,0.7044,0.7168,0.7359,0.7608,0.7695,0.7686,0.7686,0.7695,0.7695,0.7695,0.7695,0.7695,0.7754,0.7986,0.8191,0.8305,0.8742,0.9158,0.9364,0.9674,1.0003,1.0322,1.0312,1.0721,1.1801,1.2626,1.3115,1.3198,1.3185,1.3185,1.321,1.321,1.321,1.321,1.321,1.321,-2.2046,-2.1628,-2.1323,-2.0632,-1.9962,-1.9818,-1.9699,-1.9588,-1.9618,-1.9196,-1.8401,-1.7234,-1.6696,-1.6547,-1.6054,-1.5829,-1.5829,-1.5814,-1.5785,-1.5726,-1.5329,-1.5104,-1.5014,-1.4658,-1.4267,-1.3748,-1.3158,-1.2597,-1.2055,-1.0775,-0.9723,-0.8999,-0.8871,-0.8679,-0.8375,-0.8319,-0.8119,-0.7754,-0.7336,-0.6935,-0.6529,-0.5785,-0.5231,-0.4897,-0.4851,-0.4408,-0.364,-0.3825,-0.3588,-0.2774,-0.2669,-0.2249,-0.1412,-0.1283,-0.0889,0.0,0.0,0.0299,0.096,0.1132,0.1483,0.2128,0.2471,0.265,0.2668,0.3313,0.3666,0.3627,0.4024,0.4287,0.4309,0.4353,0.4397,0.4458,0.5004,0.5414,0.5575,0.6389,0.7042,0.7092,0.7381,0.7656,0.7686,0.7695,0.7695,0.7695,0.7695,0.7695,0.7705,0.7754,0.7763,0.7734,0.7764,0.7944,0.8243,0.8333,0.8836,0.937,0.9519,0.9822,1.0236,1.0871,1.1638,1.1994,1.2701,1.316,1.321,1.321,1.321,1.321,1.321,1.321,1.321,1.3265,1.3278,-2.2032,-2.1582,-2.1414,-2.083,-2.0087,-1.98,-1.9723,-1.9723,-1.9723,-1.9543,-1.9196,-1.8281,-1.7669,-1.7249,-1.6637,-1.6188,-1.5945,-1.5564,-1.524,-1.5013,-1.4596,-1.439,-1.4342,-1.395,-1.3648,-1.3458,-1.292,-1.2411,-1.1806,-1.0513,-0.9459,-0.8893,-0.8631,-0.8312,-0.7976,-0.7947,-0.786,-0.7695,-0.7068,-0.6644,-0.6432,-0.578,-0.5426,-0.5399,-0.5016,-0.4487,-0.3884,-0.3863,-0.3522,-0.2778,-0.2627,-0.2194,-0.1351,-0.1319,-0.0907,0.0,0.0,0.0333,0.1053,0.1095,0.141,0.2154,0.232,0.2397,0.2442,0.3213,0.3727,0.3747,0.4109,0.4395,0.4409,0.4402,0.4454,0.4654,0.5091,0.5471,0.569,0.6525,0.7109,0.713,0.7442,0.7695,0.7695,0.7695,0.7695,0.7695,0.7695,0.7695,0.7715,0.7924,0.8105,0.8145,0.8311,0.8397,0.8435,0.8753,0.9116,0.9456,0.9766,1.0071,1.0476,1.0579,1.1109,1.2135,1.279,1.3168,1.321,1.321,1.321,1.321,1.321,1.321,1.321,1.3496,1.3672,-2.2021,-2.1446,-2.1197,-2.0699,-2.0124,-1.9821,-1.9723,-1.9723,-1.9723,-1.9723,-1.9648,-1.9181,-1.8631,-1.7963,-1.7146,-1.6515,-1.6059,-1.544,-1.4922,-1.4483,-1.4098,-1.3901,-1.3852,-1.3425,-1.321,-1.3148,-1.2826,-1.2246,-1.1497,-1.0367,-0.9418,-0.8808,-0.8473,-0.8126,-0.7734,-0.7695,-0.7695,-0.7613,-0.6918,-0.6495,-0.6416,-0.5762,-0.545,-0.5529,-0.5054,-0.4456,-0.3882,-0.3734,-0.336,-0.2755,-0.2606,-0.2183,-0.1382,-0.1319,-0.0905,0.0,0.0,0.0317,0.1047,0.1105,0.1455,0.2177,0.2276,0.2288,0.2481,0.3262,0.3817,0.3888,0.4326,0.4677,0.4657,0.4643,0.474,0.4934,0.5297,0.5613,0.5747,0.6515,0.7056,0.699,0.7368,0.7695,0.7695,0.7695,0.7695,0.7695,0.7695,0.7773,0.7885,0.8189,0.842,0.8558,0.8818,0.8848,0.8662,0.8893,0.9361,0.9601,0.9838,1.0171,1.0719,1.0552,1.08,1.2089,1.276,1.3163,1.321,1.321,1.3223,1.321,1.3223,1.3328,1.3509,1.3858,1.4198,-2.2034,-2.0974,-2.0137,-1.9818,-1.9726,-1.9708,-1.9723,-1.9708,-1.969,-1.969,-1.9672,-1.9561,-1.9299,-1.87,-1.7454,-1.6611,-1.6076,-1.5533,-1.5002,-1.4456,-1.4075,-1.3898,-1.3868,-1.3425,-1.321,-1.321,-1.3135,-1.244,-1.1206,-1.0588,-0.9698,-0.8533,-0.8403,-0.8156,-0.7783,-0.7686,-0.7695,-0.7569,-0.685,-0.648,-0.6388,-0.5697,-0.517,-0.4965,-0.471,-0.429,-0.363,-0.3411,-0.3135,-0.2729,-0.2675,-0.2255,-0.1427,-0.1295,-0.0858,0.0,0.0,0.0326,0.0973,0.1099,0.15,0.2313,0.2475,0.2546,0.2666,0.3458,0.3943,0.3984,0.4715,0.5193,0.5208,0.5146,0.5195,0.5255,0.5592,0.5651,0.539,0.6328,0.6835,0.673,0.7181,0.7613,0.7681,0.7695,0.7715,0.7734,0.7725,0.7861,0.8271,0.8414,0.8613,0.8877,0.9016,0.9023,0.9011,0.9127,0.9281,0.959,0.9898,1.0014,1.0397,1.0829,1.1449,1.2036,1.2756,1.3146,1.3193,1.3223,1.3265,1.329,1.3323,1.3453,1.3954,1.4047,1.4425,-2.1582,-2.0515,-1.9945,-1.9723,-1.9723,-1.9723,-1.9723,-1.9657,-1.9332,-1.9207,-1.9118,-1.8822,-1.8574,-1.8333,-1.7515,-1.6862,-1.6327,-1.5712,-1.4999,-1.4289,-1.4088,-1.3839,-1.3467,-1.3267,-1.321,-1.321,-1.321,-1.2624,-1.153,-1.0448,-0.9671,-0.9165,-0.8649,-0.8297,-0.8085,-0.7574,-0.732,-0.7216,-0.6518,-0.6106,-0.6083,-0.5578,-0.5239,-0.5115,-0.4777,-0.4364,-0.382,-0.3418,-0.3019,-0.2692,-0.2623,-0.2185,-0.1361,-0.0761,-0.0346,0.0,0.0,0.0289,0.089,0.1126,0.1631,0.2488,0.2636,0.2644,0.2827,0.3467,0.3993,0.4134,0.4778,0.5261,0.5309,0.5309,0.5309,0.5325,0.5428,0.5475,0.5467,0.5913,0.6259,0.6275,0.6829,0.7388,0.7642,0.7695,0.7827,0.8101,0.8145,0.834,0.8701,0.8984,0.9192,0.9387,0.962,0.9824,0.9824,0.9542,0.9523,0.9863,1.0154,1.0381,1.0695,1.1196,1.1799,1.2138,1.2791,1.3163,1.321,1.3315,1.3341,1.3647,1.3684,1.3973,1.4513,1.4689,1.5085,-2.1264,-2.0408,-1.9908,-1.9723,-1.9723,-1.9723,-1.9723,-1.9639,-1.9132,-1.8893,-1.8784,-1.8341,-1.8007,-1.7807,-1.7476,-1.7025,-1.6452,-1.5847,-1.512,-1.4368,-1.4191,-1.3883,-1.3521,-1.3303,-1.3129,-1.2925,-1.262,-1.2138,-1.1483,-1.0382,-0.9766,-0.9544,-0.9033,-0.8574,-0.8179,-0.7602,-0.7211,-0.6846,-0.6229,-0.5898,-0.5843,-0.5349,-0.5071,-0.4985,-0.45,-0.4129,-0.3988,-0.3344,-0.2904,-0.2714,-0.2597,-0.2192,-0.134,-0.0474,0.0,0.0,0.0,0.0252,0.0808,0.1156,0.1705,0.2596,0.2679,0.2679,0.2746,0.3368,0.3728,0.3951,0.4554,0.5087,0.5103,0.5198,0.5309,0.5309,0.5309,0.5309,0.5325,0.5656,0.6014,0.6381,0.6948,0.7412,0.7656,0.7826,0.8066,0.8381,0.8493,0.875,0.9143,0.9416,0.9698,0.9825,1.0068,1.0195,1.0175,0.9941,0.9834,1.0126,1.0224,1.0514,1.0905,1.1457,1.1927,1.2282,1.2668,1.3042,1.3278,1.3366,1.3659,1.4047,1.4299,1.4519,1.4959,1.5387,1.5668,-2.1109,-2.0629,-1.9974,-1.9753,-1.969,-1.9654,-1.9672,-1.9548,-1.9024,-1.8708,-1.8612,-1.8243,-1.7686,-1.7374,-1.7242,-1.6967,-1.6473,-1.6002,-1.5464,-1.4896,-1.435,-1.4074,-1.3912,-1.3305,-1.2843,-1.2443,-1.1531,-1.1065,-1.1027,-1.0512,-1.0029,-0.968,-0.9499,-0.889,-0.7855,-0.7687,-0.7258,-0.6588,-0.6067,-0.5836,-0.5774,-0.5058,-0.465,-0.4532,-0.3816,-0.3577,-0.3923,-0.3179,-0.2719,-0.2692,-0.2656,-0.2239,-0.1296,-0.0466,0.0,0.0,0.0,0.0,0.079,0.1174,0.179,0.251,0.2679,0.2679,0.2746,0.3101,0.3392,0.3588,0.4156,0.465,0.4778,0.5071,0.5309,0.5309,0.5309,0.5309,0.5372,0.5641,0.6198,0.682,0.7322,0.7647,0.7817,0.8125,0.8434,0.859,0.8809,0.916,0.9523,0.9689,0.9835,1.0136,1.0263,1.0312,1.0322,1.0312,1.0302,1.0312,1.0302,1.0428,1.0867,1.1364,1.1726,1.2108,1.2773,1.3159,1.3516,1.3659,1.4042,1.44,1.4689,1.5072,1.5512,1.5881,1.6019,-2.1652,-2.0722,-2.0464,-2.0109,-1.9669,-1.9314,-1.9169,-1.9024,-1.8204,-1.7807,-1.7706,-1.7229,-1.6888,-1.6774,-1.6752,-1.6659,-1.6497,-1.6287,-1.5957,-1.5344,-1.4497,-1.3934,-1.3445,-1.2655,-1.2168,-1.192,-1.1338,-1.0989,-1.0886,-1.0515,-1.0195,-1.0002,-0.9376,-0.8876,-0.838,-0.7399,-0.6582,-0.6334,-0.578,-0.5343,-0.5042,-0.474,-0.4484,-0.4167,-0.3605,-0.3372,-0.3462,-0.299,-0.2696,-0.2679,-0.2397,-0.1811,-0.0972,-0.0335,0.0,0.0,0.0319,0.037,0.0386,0.1224,0.2011,0.2547,0.2679,0.2679,0.2729,0.3052,0.3409,0.3723,0.4291,0.4708,0.5017,0.5198,0.5313,0.5316,0.5309,0.5309,0.5309,0.5435,0.5859,0.6543,0.7045,0.7501,0.8092,0.8561,0.8887,0.9141,0.9318,0.9572,0.9941,1.0029,1.0088,1.0283,1.0303,1.0322,1.0322,1.0322,1.0322,1.0322,1.0322,1.0361,1.0783,1.1263,1.1597,1.2242,1.2888,1.3366,1.3711,1.4092,1.4469,1.4909,1.5324,1.5718,1.612,1.6296,1.6346,-2.2203,-2.1391,-2.0882,-2.0321,-1.9708,-1.9155,-1.8798,-1.8496,-1.7686,-1.7312,-1.7209,-1.6752,-1.6513,-1.6513,-1.6513,-1.6358,-1.6173,-1.6173,-1.5847,-1.5344,-1.4722,-1.4068,-1.3402,-1.2296,-1.1639,-1.1434,-1.0992,-1.0734,-1.0715,-1.0448,-1.0196,-0.9885,-0.9361,-0.8744,-0.8276,-0.7279,-0.6601,-0.6263,-0.5742,-0.5225,-0.4817,-0.4519,-0.4178,-0.3756,-0.3298,-0.3101,-0.3052,-0.2828,-0.2679,-0.258,-0.2111,-0.1408,-0.0739,0.0,0.0,0.0,0.042,0.0671,0.0737,0.1525,0.2197,0.258,0.2679,0.2679,0.2729,0.297,0.3266,0.3707,0.4113,0.4554,0.4944,0.5326,0.5431,0.5454,0.536,0.5322,0.5309,0.5435,0.5886,0.6608,0.7149,0.7729,0.8427,0.8975,0.9289,0.9554,0.9757,0.9893,1.0205,1.0302,1.0303,1.0303,1.0303,1.0322,1.0322,1.0322,1.0322,1.0322,1.0322,1.038,1.0621,1.1161,1.1601,1.2777,1.3593,1.3884,1.4231,1.4644,1.5047,1.5512,1.5856,1.6145,1.6409,1.6412,1.645,-2.2697,-2.2497,-2.1247,-2.0357,-1.9723,-1.9017,-1.8458,-1.8013,-1.7442,-1.7209,-1.7084,-1.671,-1.6457,-1.6445,-1.6358,-1.6064,-1.5644,-1.5555,-1.5219,-1.4812,-1.4525,-1.4204,-1.3344,-1.2213,-1.1514,-1.1032,-1.0546,-1.0293,-1.0235,-1.0098,-0.9961,-0.9469,-0.9255,-0.8751,-0.7757,-0.7393,-0.6881,-0.6288,-0.585,-0.5428,-0.4993,-0.4368,-0.3789,-0.3336,-0.2985,-0.2794,-0.278,-0.266,-0.2596,-0.2494,-0.1757,-0.1139,-0.0655,-0.0219,0.0,0.0101,0.0504,0.1057,0.1609,0.1945,0.2281,0.2646,0.2679,0.2679,0.2712,0.2825,0.3068,0.3478,0.3932,0.434,0.481,0.533,0.5694,0.5705,0.5581,0.5463,0.5399,0.5725,0.6329,0.7,0.7553,0.8159,0.8945,0.9387,0.962,0.9747,1.002,1.0205,1.0273,1.0322,1.0322,1.0322,1.0322,1.0322,1.0322,1.0518,1.0528,1.0577,1.0596,1.0716,1.0874,1.1418,1.2114,1.325,1.4168,1.4453,1.4764,1.5164,1.548,1.5831,1.6124,1.6412,1.6513,1.6513,1.6638,-2.2837,-2.1916,-2.1172,-2.0188,-1.9106,-1.8133,-1.7666,-1.7442,-1.6951,-1.6731,-1.668,-1.6586,-1.6225,-1.5864,-1.5842,-1.5499,-1.5062,-1.4949,-1.4595,-1.4099,-1.4036,-1.3328,-1.2414,-1.186,-1.1383,-1.0903,-1.0438,-1.0003,-0.9695,-0.9386,-0.9096,-0.8918,-0.8553,-0.8195,-0.7741,-0.7133,-0.6736,-0.6408,-0.5733,-0.5206,-0.4711,-0.4168,-0.3635,-0.3176,-0.2954,-0.2856,-0.2783,-0.2412,-0.2009,-0.1673,-0.1471,-0.0955,-0.0302,0.0,0.0134,0.0487,0.0888,0.1323,0.1776,0.2245,0.2547,0.2663,0.2679,0.2679,0.2712,0.2973,0.3331,0.3817,0.4388,0.4956,0.5367,0.5788,0.6055,0.6068,0.599,0.5947,0.6002,0.6405,0.6914,0.7445,0.814,0.8782,0.9358,0.9785,1.0078,1.0098,1.0195,1.0322,1.0322,1.0322,1.0322,1.0322,1.0322,1.0322,1.0381,1.0635,1.0771,1.085,1.0998,1.1228,1.1552,1.2061,1.2893,1.3891,1.4631,1.5042,1.5274,1.558,1.5894,1.6137,1.63,1.6513,1.6513,1.6525,1.6835,-2.2666,-2.1701,-2.0841,-1.9761,-1.8607,-1.7674,-1.7167,-1.693,-1.6659,-1.6513,-1.6445,-1.6216,-1.593,-1.561,-1.5343,-1.4892,-1.4376,-1.4329,-1.399,-1.3491,-1.3433,-1.2846,-1.2083,-1.1858,-1.1492,-1.0806,-1.0468,-0.9956,-0.9423,-0.901,-0.8729,-0.8381,-0.8049,-0.7767,-0.7467,-0.7086,-0.6625,-0.6356,-0.5762,-0.5176,-0.445,-0.4024,-0.3582,-0.3184,-0.3017,-0.2924,-0.2606,-0.2248,-0.1838,-0.14,-0.1122,-0.0721,0.0,0.0,0.0,0.0672,0.1072,0.1455,0.1892,0.2394,0.2663,0.2679,0.2679,0.2733,0.286,0.3211,0.3708,0.4229,0.4886,0.5418,0.5856,0.6184,0.6411,0.6519,0.6539,0.6439,0.6262,0.6418,0.7035,0.7707,0.8334,0.9021,0.9733,1.0137,1.0254,1.0312,1.0263,1.0322,1.0322,1.0322,1.0351,1.0361,1.042,1.0469,1.0606,1.084,1.1267,1.1335,1.2034,1.2166,1.2478,1.2982,1.3842,1.4663,1.5191,1.5593,1.5806,1.5994,1.617,1.6362,1.6475,1.6525,1.655,1.6839,1.7124,-2.2254,-2.1599,-2.0283,-1.9136,-1.816,-1.7479,-1.693,-1.6573,-1.6402,-1.6358,-1.625,-1.5754,-1.541,-1.5387,-1.4778,-1.4294,-1.3708,-1.3708,-1.342,-1.3113,-1.2949,-1.2613,-1.2114,-1.2043,-1.1564,-1.0822,-1.0602,-0.9874,-0.9188,-0.8925,-0.8514,-0.8005,-0.7811,-0.751,-0.7147,-0.6917,-0.6634,-0.6198,-0.5649,-0.5035,-0.4357,-0.3947,-0.3575,-0.3282,-0.2991,-0.2714,-0.2351,-0.2034,-0.1703,-0.1232,-0.0896,-0.0504,0.0,0.0,0.0,0.0773,0.1206,0.164,0.2028,0.2497,0.2716,0.2733,0.272,0.2822,0.3118,0.3618,0.4134,0.4687,0.5254,0.5839,0.6237,0.6526,0.67,0.6867,0.694,0.6747,0.6438,0.6339,0.685,0.8027,0.8292,0.9021,0.981,1.0322,1.0322,1.0322,1.0322,1.0322,1.0371,1.0449,1.0469,1.0479,1.0567,1.0674,1.087,1.1084,1.1565,1.1995,1.3085,1.3576,1.3725,1.4238,1.4983,1.5612,1.5857,1.607,1.6249,1.6412,1.645,1.6572,1.6651,1.6672,1.671,1.7225,1.7589,-2.1431,-2.0313,-1.9145,-1.8249,-1.7552,-1.6934,-1.6595,-1.6445,-1.5986,-1.5798,-1.5654,-1.5141,-1.4664,-1.4226,-1.4073,-1.3671,-1.32,-1.3152,-1.2992,-1.2954,-1.2915,-1.2496,-1.199,-1.1816,-1.152,-1.0886,-1.0058,-0.9376,-0.8813,-0.8273,-0.779,-0.7641,-0.7432,-0.7154,-0.6979,-0.6583,-0.6328,-0.6039,-0.5221,-0.4641,-0.4341,-0.3888,-0.3581,-0.3379,-0.2935,-0.251,-0.2102,-0.143,-0.0975,-0.0822,-0.0708,-0.0444,-0.0051,0.034,0.0713,0.112,0.1589,0.2055,0.247,0.2646,0.2737,0.2849,0.2933,0.3119,0.3726,0.4178,0.4702,0.5282,0.5926,0.6429,0.672,0.6867,0.692,0.698,0.6993,0.6953,0.6922,0.7207,0.7767,0.8402,0.8952,0.9497,1.0186,1.0303,1.0322,1.0322,1.0342,1.0332,1.0449,1.0596,1.0723,1.0802,1.0939,1.1105,1.1348,1.1691,1.2329,1.2834,1.3849,1.4707,1.4875,1.5079,1.5648,1.6042,1.6341,1.6488,1.6513,1.65,1.6488,1.6638,1.6873,1.7024,1.725,1.7702,1.8053,-2.0033,-1.9131,-1.8248,-1.7542,-1.6948,-1.633,-1.6073,-1.5964,-1.5444,-1.5163,-1.5039,-1.4537,-1.4097,-1.3792,-1.3515,-1.3176,-1.2978,-1.2905,-1.2691,-1.2476,-1.2344,-1.199,-1.135,-1.1007,-1.0723,-1.0442,-0.9953,-0.9257,-0.8598,-0.814,-0.7855,-0.752,-0.7316,-0.7011,-0.6681,-0.6307,-0.5894,-0.5329,-0.4761,-0.4286,-0.4008,-0.3774,-0.3398,-0.3211,-0.2751,-0.234,-0.1571,-0.1123,-0.0689,0.0,0.0,0.0,0.0018,0.0489,0.0976,0.1427,0.1951,0.2421,0.2764,0.2893,0.2909,0.2998,0.3246,0.3627,0.4195,0.4739,0.5356,0.5835,0.6364,0.6847,0.6973,0.6993,0.6993,0.6993,0.6993,0.6993,0.7084,0.753,0.809,0.8643,0.9113,0.9658,1.0079,1.0264,1.0332,1.0342,1.0655,1.0674,1.0782,1.0958,1.1154,1.1271,1.1439,1.1614,1.1865,1.239,1.3221,1.3784,1.4519,1.526,1.5717,1.5895,1.6123,1.6346,1.6488,1.65,1.6513,1.6513,1.6663,1.6974,1.7225,1.7486,1.7825,1.8242,1.8519,-1.8663,-1.8105,-1.7508,-1.6917,-1.6331,-1.5842,-1.5565,-1.5365,-1.4812,-1.456,-1.4456,-1.3909,-1.3647,-1.3529,-1.3176,-1.2895,-1.2691,-1.2471,-1.2064,-1.1724,-1.1674,-1.125,-1.0669,-1.0236,-0.9884,-0.9684,-0.9551,-0.9099,-0.8655,-0.8395,-0.8094,-0.7698,-0.7363,-0.6966,-0.6415,-0.5927,-0.5437,-0.4648,-0.4329,-0.4049,-0.3685,-0.3512,-0.3103,-0.265,-0.2291,-0.186,-0.1162,-0.0776,0.0,0.0,0.0,0.0,0.0,0.0648,0.1218,0.1705,0.2289,0.2708,0.2971,0.309,0.3122,0.3238,0.3563,0.4139,0.462,0.5239,0.5782,0.6273,0.6721,0.696,0.6993,0.6993,0.6993,0.6993,0.6993,0.6993,0.7105,0.753,0.807,0.8459,0.8898,0.9419,0.995,1.0283,1.0332,1.0469,1.0771,1.1025,1.1154,1.134,1.1575,1.18,1.1946,1.2093,1.2324,1.3034,1.3852,1.4333,1.5039,1.5634,1.6207,1.6293,1.6337,1.6414,1.65,1.6538,1.6626,1.6748,1.6961,1.73,1.7714,1.8078,1.8442,1.8782,1.8983,-1.8079,-1.7492,-1.6904,-1.6312,-1.5776,-1.561,-1.5276,-1.4789,-1.4213,-1.3956,-1.3873,-1.3334,-1.3113,-1.3017,-1.2992,-1.2559,-1.2015,-1.16,-1.12,-1.0981,-1.0939,-1.0618,-1.0012,-0.9788,-0.9484,-0.908,-0.8956,-0.8803,-0.8716,-0.8497,-0.8217,-0.7995,-0.723,-0.6612,-0.6102,-0.5436,-0.4779,-0.4329,-0.3987,-0.3707,-0.3483,-0.3059,-0.2566,-0.2006,-0.1607,-0.1207,-0.0873,-0.0424,-0.0089,0.0,0.0,0.0,0.0,0.0961,0.1627,0.2125,0.2685,0.3063,0.3135,0.3128,0.3435,0.373,0.3797,0.4408,0.5245,0.5668,0.6054,0.6569,0.6873,0.6993,0.6993,0.6993,0.6993,0.6993,0.7026,0.7026,0.7139,0.7581,0.801,0.8299,0.8672,0.9246,1.0004,1.0572,1.0731,1.0948,1.1221,1.1406,1.1526,1.1758,1.2038,1.2275,1.2471,1.2631,1.2773,1.3629,1.44,1.4641,1.5197,1.5766,1.6228,1.6414,1.6513,1.6663,1.6676,1.6676,1.681,1.7024,1.7325,1.7714,1.8204,1.8682,1.8945,1.9196,1.9422,-1.7017,-1.6441,-1.6149,-1.5688,-1.5118,-1.479,-1.4503,-1.4167,-1.36,-1.3324,-1.3238,-1.3041,-1.2915,-1.2808,-1.2452,-1.1931,-1.1316,-1.099,-1.0618,-1.0389,-1.0244,-0.9943,-0.9361,-0.9283,-0.9106,-0.8745,-0.848,-0.848,-0.8712,-0.8254,-0.7992,-0.7634,-0.6852,-0.6166,-0.5626,-0.4952,-0.4353,-0.4043,-0.3733,-0.342,-0.3103,-0.2541,-0.1962,-0.1407,-0.1051,-0.0761,-0.0404,-0.0225,0.0,0.0,0.0,0.0,0.0685,0.1235,0.1815,0.2213,0.2888,0.3351,0.3354,0.3361,0.3531,0.3829,0.4053,0.4683,0.5551,0.599,0.638,0.6782,0.6993,0.6993,0.6993,0.7,0.6993,0.7026,0.7176,0.727,0.7456,0.8005,0.8268,0.8471,0.9168,0.9927,1.0658,1.1068,1.123,1.1447,1.1692,1.1829,1.1917,1.2158,1.2447,1.2568,1.2729,1.2898,1.3031,1.3576,1.4445,1.4835,1.5335,1.5907,1.6392,1.6644,1.6867,1.7049,1.7011,1.7112,1.7388,1.7739,1.794,1.8129,1.8581,1.8995,1.9321,1.961,1.9736,-1.5986,-1.5398,-1.541,-1.5073,-1.4491,-1.4027,-1.3755,-1.3552,-1.3138,-1.2929,-1.2915,-1.2891,-1.2808,-1.2461,-1.1792,-1.1065,-1.0593,-1.0466,-1.0012,-0.9718,-0.9588,-0.929,-0.8962,-0.8752,-0.8699,-0.8401,-0.8076,-0.8023,-0.8242,-0.778,-0.7384,-0.7013,-0.6416,-0.57,-0.5024,-0.4615,-0.4165,-0.3811,-0.3426,-0.3078,-0.2386,-0.1873,-0.1341,-0.0784,-0.0716,-0.0471,-0.0112,0.0,0.0,0.0,0.0,0.0471,0.1097,0.1674,0.1962,0.2142,0.3015,0.3467,0.3593,0.358,0.3621,0.3938,0.46,0.5082,0.569,0.6337,0.693,0.6993,0.6993,0.6993,0.7006,0.7081,0.7114,0.7166,0.7426,0.7727,0.7981,0.8391,0.8913,0.93,0.9921,1.0442,1.1047,1.1533,1.1667,1.1848,1.208,1.2299,1.2406,1.2563,1.2754,1.2817,1.2914,1.3098,1.32,1.3262,1.4061,1.4698,1.5349,1.6001,1.652,1.6963,1.7262,1.7664,1.7815,1.7965,1.8216,1.8355,1.8444,1.8644,1.897,1.9284,1.956,1.9685,1.9761,-1.5343,-1.4812,-1.4789,-1.4468,-1.3944,-1.3802,-1.3481,-1.3041,-1.2954,-1.2915,-1.2881,-1.2832,-1.2486,-1.1726,-1.0652,-1.009,-0.9788,-0.9465,-0.9211,-0.9061,-0.9008,-0.8956,-0.8811,-0.8778,-0.8374,-0.7969,-0.7696,-0.775,-0.7584,-0.7015,-0.6713,-0.6471,-0.586,-0.5289,-0.4984,-0.4411,-0.3882,-0.3675,-0.3114,-0.2259,-0.139,-0.1099,-0.0695,-0.0337,0.0,0.0,0.0,0.0,0.0,0.0,0.0515,0.0806,0.1118,0.2029,0.2472,0.2763,0.317,0.36,0.36,0.36,0.3818,0.4114,0.4522,0.5087,0.591,0.6556,0.7,0.6993,0.7013,0.7073,0.7153,0.7316,0.7397,0.7538,0.7712,0.815,0.8517,0.9064,0.9525,1.0112,1.0722,1.0854,1.1183,1.1704,1.2145,1.2291,1.2461,1.2646,1.2798,1.2876,1.2915,1.2915,1.2915,1.3041,1.3272,1.3358,1.3918,1.4592,1.5418,1.616,1.677,1.7376,1.8109,1.8431,1.8593,1.8606,1.8643,1.8719,1.8895,1.9096,1.9321,1.9547,1.9736,1.9798,1.9811,-1.4434,-1.419,-1.419,-1.3826,-1.331,-1.3286,-1.3152,-1.2954,-1.2915,-1.2915,-1.2798,-1.2427,-1.1717,-1.0728,-0.9969,-0.9614,-0.9237,-0.8936,-0.8811,-0.8778,-0.8778,-0.8778,-0.8699,-0.8374,-0.791,-0.753,-0.6902,-0.6357,-0.633,-0.6222,-0.5982,-0.586,-0.5278,-0.4767,-0.4763,-0.4248,-0.3736,-0.3126,-0.2294,-0.1484,-0.0968,-0.0568,0.0,0.0,0.0,0.0,0.0,0.0,0.0,0.0359,0.0583,0.0962,0.1674,0.2342,0.2677,0.3236,0.342,0.3578,0.36,0.3626,0.3924,0.4373,0.4739,0.5475,0.6401,0.6872,0.7121,0.7261,0.7268,0.7335,0.7453,0.7649,0.7695,0.7816,0.8003,0.829,0.8863,0.9735,1.0327,1.0934,1.1456,1.1544,1.1673,1.2091,1.2476,1.2578,1.2656,1.2778,1.2856,1.2886,1.2915,1.2915,1.2915,1.2929,1.3176,1.3368,1.4024,1.4761,1.5742,1.6479,1.717,1.7823,1.8572,1.902,1.9158,1.9133,1.9058,1.9171,1.9371,1.951,1.9648,1.9736,1.9798,1.9836,1.9886,-1.3721,-1.36,-1.3576,-1.33,-1.2905,-1.2915,-1.2915,-1.2915,-1.2915,-1.2798,-1.2403,-1.1699,-1.0695,-0.9943,-0.9614,-0.9256,-0.8831,-0.8778,-0.8778,-0.8778,-0.8752,-0.8666,-0.8395,-0.7937,-0.7503,-0.7149,-0.619,-0.5597,-0.5355,-0.5246,-0.5246,-0.5246,-0.4827,-0.448,-0.4267,-0.3889,-0.3365,-0.2274,-0.1466,-0.0913,-0.0593,-0.0255,0.0,0.0,0.0,0.0,0.0,0.0,0.0,0.0672,0.1006,0.1561,0.2406,0.2746,0.3018,0.342,0.3578,0.3761,0.388,0.3987,0.4064,0.4461,0.5188,0.5987,0.6875,0.7141,0.7261,0.7555,0.7575,0.7686,0.7846,0.7939,0.8036,0.813,0.8303,0.8523,0.8882,0.9826,1.0556,1.098,1.1543,1.222,1.2397,1.2653,1.2842,1.2886,1.2915,1.2915,1.2915,1.2915,1.2935,1.2935,1.2935,1.3115,1.3626,1.389,1.4408,1.5147,1.6124,1.7003,1.7836,1.8425,1.9058,1.9409,1.9585,1.9572,1.9434,1.9623,1.9798,1.9761,1.9736,1.9761,1.9811,1.9899,2.0238,-1.3457,-1.2954,-1.2978,-1.2954,-1.2915,-1.2915,-1.2915,-1.2881,-1.2881,-1.2437,-1.1649,-1.0644,-1.0012,-0.964,-0.9211,-0.8929,-0.8778,-0.8778,-0.8778,-0.8778,-0.8725,-0.8368,-0.7963,-0.7503,-0.6929,-0.6,-0.5433,-0.5081,-0.4759,-0.4732,-0.4653,-0.4546,-0.4543,-0.4512,-0.4184,-0.3592,-0.2588,-0.1593,-0.0909,-0.0545,0.0,0.0,0.0,0.0,0.0,0.0,0.0,0.0474,0.0858,0.1038,0.1716,0.2291,0.2849,0.3232,0.354,0.3614,0.3675,0.3967,0.4375,0.4431,0.4402,0.4748,0.5511,0.658,0.7348,0.7457,0.7595,0.7819,0.7889,0.7912,0.8049,0.815,0.8342,0.8404,0.8594,0.8931,0.9314,1.0017,1.0671,1.1032,1.1633,1.2412,1.2642,1.2798,1.2881,1.2915,1.2915,1.2915,1.2915,1.2915,1.2954,1.2964,1.2974,1.3371,1.4303,1.4786,1.5282,1.6187,1.724,1.7983,1.871,1.9233,1.9497,1.9597,1.9723,1.9773,1.9798,1.9798,1.9798,1.9798,1.9811,1.9861,2.0188,2.0489,2.0978,-1.3113,-1.2915,-1.2915,-1.2915,-1.2915,-1.2915,-1.2915,-1.2808,-1.2427,-1.1584,-1.0568,-1.0012,-0.9562,-0.9211,-0.9008,-0.8778,-0.8778,-0.8778,-0.8778,-0.8586,-0.8342,-0.799,-0.7503,-0.6767,-0.6005,-0.5487,-0.5136,-0.4838,-0.457,-0.4491,-0.4491,-0.4491,-0.4405,-0.4487,-0.4121,-0.3189,-0.2006,-0.1179,0.0,0.0,0.0,0.0,0.0,0.0,0.0,0.0,0.0,0.0,0.1138,0.165,0.2335,0.2874,0.336,0.3767,0.3866,0.3853,0.3866,0.4309,0.4871,0.4963,0.507,0.6119,0.6804,0.74,0.7736,0.7749,0.7909,0.809,0.821,0.8237,0.8452,0.8571,0.8651,0.8671,0.886,0.9235,0.978,1.0432,1.0914,1.1325,1.199,1.2715,1.2774,1.2774,1.2856,1.2915,1.2915,1.2925,1.2974,1.3047,1.3145,1.3232,1.3262,1.3917,1.4877,1.5516,1.6101,1.7217,1.8311,1.8771,1.9283,1.9484,1.971,1.9786,1.9823,1.9861,1.9861,1.9811,1.9836,1.9924,1.9949,1.9974,2.044,2.1069,2.1581,-1.2915,-1.2915,-1.2915,-1.2915,-1.2915,-1.2915,-1.2749,-1.2476,-1.2055,-1.1065,-0.9814,-0.9614,-0.929,-0.8883,-0.8778,-0.8778,-0.8699,-0.856,-0.848,-0.8182,-0.775,-0.7316,-0.674,-0.614,-0.5515,-0.5164,-0.4842,-0.4491,-0.4491,-0.4491,-0.4294,-0.4181,-0.4153,-0.4098,-0.379,-0.2704,-0.1535,-0.0805,0.0,0.0,0.0,0.0,0.0,0.0,0.0,0.0,0.0,0.109,0.1717,0.2275,0.2873,0.3379,0.3785,0.4066,0.4077,0.4096,0.4271,0.4655,0.524,0.5678,0.6073,0.7049,0.7478,0.7834,0.8012,0.807,0.8196,0.845,0.851,0.8591,0.8778,0.8778,0.8975,0.9047,0.9188,0.9536,1.0143,1.0763,1.1208,1.1641,1.2304,1.2939,1.3198,1.3192,1.311,1.3135,1.3135,1.3174,1.3223,1.335,1.351,1.3597,1.3691,1.4552,1.5519,1.6093,1.6789,1.8207,1.9068,1.9257,1.961,1.9761,1.9798,1.9798,1.9836,1.9911,2.0075,2.0263,2.02,2.01,2.0288,2.0577,2.1091,2.1732,2.2046,-1.2915,-1.2915,-1.2881,-1.2856,-1.2832,-1.2881,-1.2476,-1.1947,-1.169,-1.0914,-0.971,-0.9159,-0.891,-0.8778,-0.8778,-0.8725,-0.8507,-0.8076,-0.7777,-0.7563,-0.6961,-0.6276,-0.5869,-0.5433,-0.5081,-0.4625,-0.4491,-0.4491,-0.4491,-0.4322,-0.4015,-0.3566,-0.3372,-0.3178,-0.3234,-0.1898,-0.0811,0.0,0.0,0.0,0.0,0.0,0.0,0.0,0.0,0.0,0.088,0.1683,0.2334,0.2888,0.3519,0.3903,0.4046,0.4097,0.4097,0.4105,0.4628,0.5362,0.6228,0.6722,0.7303,0.7759,0.8063,0.8145,0.8335,0.8415,0.8444,0.8671,0.8731,0.8751,0.8778,0.8837,0.9142,0.9468,0.9582,1.0124,1.0764,1.136,1.1869,1.2383,1.2704,1.3057,1.3467,1.3656,1.3471,1.3418,1.3398,1.3447,1.351,1.3627,1.3821,1.4016,1.4167,1.5161,1.6052,1.6627,1.7488,1.8944,1.971,1.9697,1.9736,1.9773,1.9798,1.9823,2.0024,2.0238,2.0539,2.0815,2.084,2.0928,2.1167,2.1493,2.197,2.2322,2.2543,-1.2915,-1.2856,-1.2369,-1.2163,-1.2153,-1.2153,-1.2021,-1.1665,-1.0864,-0.9969,-0.9237,-0.8857,-0.8778,-0.8778,-0.8699,-0.8507,-0.8076,-0.7937,-0.7589,-0.6885,-0.6199,-0.5842,-0.5433,-0.5058,-0.4759,-0.457,-0.4491,-0.4491,-0.4491,-0.4125,-0.3763,-0.3314,-0.2369,-0.1898,-0.1786,-0.1174,-0.0756,0.0,0.0,0.0,0.0,0.0,0.0,0.0054,0.0448,0.0861,0.1278,0.2239,0.2942,0.3367,0.3951,0.425,0.4284,0.4284,0.4294,0.4327,0.4725,0.5284,0.6468,0.7402,0.8229,0.8414,0.8445,0.8497,0.8651,0.8657,0.8731,0.8771,0.8778,0.8778,0.8778,0.8811,0.9096,0.9705,1.0128,1.0963,1.1664,1.2239,1.276,1.3288,1.3688,1.3691,1.3899,1.4143,1.4062,1.3984,1.3984,1.389,1.3929,1.3968,1.4104,1.4414,1.4792,1.5773,1.6618,1.6992,1.7785,1.9082,1.9658,1.9773,1.9786,1.9899,2.0125,2.0326,2.0464,2.0614,2.1104,2.1531,2.1719,2.1882,2.1983,2.2033,2.2259,2.2569,2.2882,-1.2501,-1.2452,-1.1749,-1.1466,-1.1466,-1.1466,-1.1341,-1.0931,-0.9935,-0.9185,-0.885,-0.8804,-0.8778,-0.8725,-0.848,-0.8268,-0.7643,-0.7069,-0.6821,-0.6118,-0.5464,-0.5191,-0.4948,-0.4759,-0.4598,-0.4491,-0.446,-0.4432,-0.4015,-0.3622,-0.3065,-0.2315,-0.1397,-0.0951,-0.0755,-0.0615,0.0,0.0,0.0,0.0,0.0,0.0,0.0,0.0444,0.0849,0.1323,0.197,0.2721,0.3503,0.3797,0.4144,0.4491,0.4491,0.4491,0.4491,0.4491,0.5117,0.5905,0.7331,0.8031,0.8652,0.8718,0.8778,0.8778,0.8778,0.8745,0.8751,0.8778,0.8798,0.8871,0.8918,0.8945,0.9314,0.9945,1.0752,1.1587,1.2374,1.2937,1.3396,1.3976,1.4155,1.4211,1.4338,1.4533,1.463,1.4591,1.4562,1.4465,1.4377,1.4436,1.4494,1.4756,1.5064,1.5823,1.6607,1.7225,1.8086,1.9204,1.9617,1.9886,2.0151,2.0314,2.0564,2.0788,2.0953,2.123,2.1857,2.2217,2.2343,2.2443,2.2531,2.2556,2.2569,2.2782,2.3083,-1.1765,-1.1665,-1.104,-1.0762,-1.0762,-1.0695,-1.0372,-0.9762,-0.9133,-0.8831,-0.8778,-0.8778,-0.8778,-0.8646,-0.8076,-0.7696,-0.7343,-0.6253,-0.5733,-0.5382,-0.4924,-0.4708,-0.4625,-0.4515,-0.4491,-0.446,-0.4322,-0.3956,-0.34,-0.2954,-0.2287,-0.134,-0.0587,0.0,0.0,0.0,0.0,0.0,0.0,0.0,0.0,0.0,0.0476,0.0864,0.1332,0.2046,0.2707,0.3402,0.3877,0.4192,0.4457,0.4491,0.4491,0.4491,0.4491,0.4869,0.5823,0.7128,0.8068,0.8526,0.8811,0.8871,0.8865,0.8818,0.8798,0.8831,0.8891,0.8911,0.8978,0.9078,0.9171,0.9432,0.9673,1.0444,1.1269,1.2112,1.2964,1.3513,1.3941,1.4247,1.4321,1.4445,1.4775,1.499,1.5001,1.5068,1.501,1.4951,1.4874,1.5029,1.5078,1.5117,1.5446,1.5764,1.6482,1.7313,1.8221,1.9281,1.9817,2.0138,2.0415,2.0704,2.0928,2.1152,2.1418,2.1807,2.2372,2.2706,2.292,2.2982,2.2895,2.2895,2.2832,2.2895,2.3133,-1.1091,-1.1015,-1.0364,-1.0115,-1.002,-0.9588,-0.9256,-0.9061,-0.8864,-0.8778,-0.8778,-0.8778,-0.8725,-0.8725,-0.8049,-0.7396,-0.6713,-0.6009,-0.53,-0.4869,-0.4625,-0.4515,-0.4491,-0.4491,-0.4491,-0.4294,-0.3987,-0.3566,-0.3037,-0.248,-0.1424,-0.0392,0.0,0.0,0.0,0.0,0.0,0.0,0.0,0.0,0.0,0.0,0.0895,0.1313,0.212,0.2813,0.3289,0.3873,0.4263,0.4405,0.4491,0.4491,0.4491,0.4515,0.4594,0.5324,0.6443,0.7628,0.8039,0.8513,0.8871,0.9046,0.9095,0.8951,0.8911,0.8964,0.9084,0.9152,0.9239,0.9392,0.9549,0.9782,1.0279,1.1054,1.1853,1.2609,1.3428,1.4037,1.4449,1.473,1.4786,1.4835,1.5156,1.5205,1.5254,1.5361,1.5381,1.5303,1.5273,1.5352,1.5391,1.541,1.5526,1.5777,1.668,1.7545,1.8405,1.9226,1.9901,2.0451,2.0742,2.1004,2.1252,2.1616,2.2046,2.2435,2.2819,2.3045,2.3095,2.312,2.3045,2.307,2.3108,2.3208,2.3333,-1.0415,-1.0312,-0.9692,-0.9413,-0.9342,-0.8956,-0.8778,-0.8778,-0.8778,-0.8778,-0.8752,-0.848,-0.8348,-0.815,-0.7283,-0.6524,-0.6086,-0.5414,-0.4842,-0.4677,-0.4491,-0.4491,-0.4491,-0.446,-0.4239,-0.3987,-0.3569,-0.3067,-0.2374,-0.1397,0.0,0.0,0.0,0.0,0.0,0.0,0.0,0.0,0.0,0.0,0.0503,0.0922,0.1313,0.2037,0.301,0.3345,0.3763,0.4322,0.4432,0.4491,0.4491,0.4491,0.457,0.4732,0.5222,0.5977,0.6934,0.7762,0.8285,0.8689,0.8976,0.9181,0.9341,0.9344,0.9299,0.9339,0.9392,0.9439,0.9579,0.9735,0.9933,1.022,1.0975,1.1718,1.2427,1.3109,1.3809,1.4495,1.4925,1.5274,1.5361,1.5342,1.54,1.542,1.542,1.542,1.542,1.5391,1.5352,1.5381,1.541,1.541,1.5526,1.5748,1.6729,1.7773,1.8643,1.954,2.0447,2.0911,2.1114,2.143,2.1779,2.2268,2.2782,2.2982,2.3032,2.3058,2.3108,2.3158,2.3321,2.3502,2.3534,2.3559,2.3722,-0.9718,-0.9692,-0.9061,-0.8857,-0.8804,-0.8804,-0.8778,-0.8778,-0.8672,-0.8705,-0.854,-0.7996,-0.7723,-0.7423,-0.6384,-0.581,-0.5464,-0.4979,-0.4653,-0.4491,-0.4491,-0.4491,-0.4491,-0.446,-0.4125,-0.3622,-0.3042,-0.2437,-0.1238,0.0,0.0,0.0,0.0,0.0,0.0,0.0,0.0,0.0,0.0,0.0513,0.0954,0.134,0.1896,0.301,0.3483,0.3732,0.4236,0.4491,0.4491,0.4491,0.4491,0.4491,0.4842,0.5277,0.5928,0.6715,0.7595,0.8179,0.8676,0.9071,0.9241,0.9414,0.9538,0.9717,0.9753,0.9693,0.9713,0.976,0.988,1.0283,1.0523,1.0889,1.1533,1.2416,1.3216,1.3815,1.4401,1.4914,1.5157,1.542,1.542,1.542,1.542,1.542,1.542,1.542,1.542,1.542,1.5498,1.5498,1.5508,1.5498,1.5488,1.5847,1.7049,1.8042,1.8871,1.9813,2.0856,2.1447,2.1716,2.2017,2.2314,2.2694,2.3007,2.3045,2.3095,2.3108,2.3195,2.3396,2.3615,2.3916,2.4029,2.4104,2.4305,-0.9035,-0.9035,-0.8857,-0.8778,-0.8778,-0.8778,-0.8778,-0.8752,-0.8182,-0.7943,-0.7916,-0.7723,-0.7348,-0.6691,-0.5869,-0.5406,-0.5269,-0.4814,-0.4543,-0.4491,-0.4491,-0.4491,-0.446,-0.4377,-0.3959,-0.34,-0.2685,0.0,0.0,0.0,0.0,0.0,0.0,0.0,0.0,0.0,0.0,0.0774,0.113,0.1136,0.136,0.2266,0.3093,0.3547,0.3805,0.4188,0.4525,0.4511,0.4501,0.4491,0.4491,0.4759,0.5246,0.5964,0.6816,0.7716,0.8349,0.8834,0.9112,0.9395,0.9593,0.9749,0.994,1.0146,1.0194,1.0087,1.0047,1.0094,1.0289,1.0725,1.1178,1.1599,1.2142,1.3064,1.3944,1.4483,1.5012,1.5196,1.5381,1.542,1.542,1.542,1.542,1.542,1.542,1.542,1.542,1.5469,1.5654,1.5723,1.5752,1.5713,1.5478,1.5975,1.7295,1.844,1.9379,2.0454,2.1599,2.2042,2.2293,2.2518,2.2732,2.2895,2.3095,2.3095,2.3108,2.3133,2.3258,2.3547,2.4017,2.4381,2.472,2.4858,2.5071,-0.8778,-0.8778,-0.8778,-0.8778,-0.8725,-0.8448,-0.8321,-0.8156,-0.753,-0.7015,-0.6767,-0.6681,-0.6497,-0.6014,-0.5355,-0.5081,-0.5027,-0.4704,-0.4515,-0.4491,-0.4432,-0.4491,-0.4405,-0.4128,-0.3428,-0.279,-0.1705,0.0,0.0,0.0,0.0,0.0,0.0,0.0,0.0062,0.034,0.0772,0.1291,0.1943,0.2263,0.2243,0.3054,0.3785,0.405,0.4397,0.4657,0.4667,0.4663,0.4667,0.4865,0.5081,0.5391,0.6026,0.6909,0.7699,0.8354,0.8903,0.9428,0.9511,0.969,0.9909,1.004,1.0265,1.0414,1.0459,1.0327,1.0321,1.0392,1.0399,1.0763,1.152,1.2051,1.2821,1.3687,1.4421,1.5002,1.5235,1.5313,1.542,1.542,1.542,1.542,1.542,1.542,1.5478,1.5791,1.5743,1.5869,1.5996,1.6124,1.6114,1.6205,1.6137,1.6745,1.8181,1.9161,1.9941,2.1107,2.2268,2.2506,2.2732,2.2907,2.3095,2.3108,2.3108,2.3095,2.3108,2.3308,2.3496,2.3816,2.4343,2.4883,2.5222,2.5548,2.5711,-0.8778,-0.8778,-0.8778,-0.8725,-0.856,-0.7996,-0.767,-0.7423,-0.6777,-0.6122,-0.5651,-0.5515,-0.5382,-0.5164,-0.4814,-0.4625,-0.4491,-0.4515,-0.4491,-0.4432,-0.4294,-0.4156,-0.3885,-0.3532,-0.2804,-0.1888,-0.0842,0.0,0.0,0.0,0.0,0.0,0.0,0.0063,0.0374,0.0843,0.1413,0.2139,0.2865,0.3659,0.3876,0.3944,0.4309,0.4682,0.4918,0.4918,0.4884,0.4881,0.4877,0.5072,0.5426,0.5918,0.6502,0.7369,0.8247,0.8863,0.9405,0.9659,0.9761,0.999,1.0089,1.0222,1.0458,1.0555,1.0586,1.0586,1.0573,1.0724,1.0737,1.117,1.1934,1.2687,1.3485,1.4222,1.4874,1.5332,1.54,1.543,1.5439,1.5439,1.5449,1.5449,1.5527,1.5518,1.5713,1.6036,1.6261,1.6426,1.6572,1.6735,1.6837,1.7105,1.7313,1.8132,1.9107,1.9849,2.0587,2.1649,2.2681,2.2932,2.3095,2.3095,2.3108,2.3133,2.3133,2.3308,2.3521,2.376,2.3966,2.423,2.4695,2.5272,2.5686,2.6021,2.626,-0.8778,-0.8778,-0.8778,-0.848,-0.7937,-0.7717,-0.7369,-0.6745,-0.6036,-0.5597,-0.5355,-0.4893,-0.4677,-0.4677,-0.4598,-0.4491,-0.4491,-0.4491,-0.4491,-0.446,-0.3953,-0.3691,-0.3352,-0.2848,-0.2033,-0.1191,0.0,0.0,0.0,0.0,0.0,0.0,0.0,0.0,0.102,0.1511,0.2025,0.2902,0.3621,0.4305,0.4778,0.4835,0.4718,0.4887,0.4918,0.4918,0.4918,0.4918,0.4918,0.4975,0.5301,0.6094,0.6919,0.7751,0.8597,0.9416,0.9943,1.006,1.021,1.0334,1.04,1.0407,1.0586,1.0586,1.0586,1.0586,1.0793,1.1281,1.1469,1.1996,1.2696,1.3394,1.4154,1.4726,1.5352,1.542,1.5478,1.5498,1.5518,1.5547,1.5586,1.5732,1.5957,1.6016,1.6152,1.6416,1.6602,1.6755,1.6924,1.7199,1.7496,1.7975,1.8368,1.8988,1.9714,2.0512,2.1278,2.2314,2.2982,2.3058,2.3095,2.3095,2.312,2.3283,2.3534,2.3803,2.4029,2.4268,2.4669,2.4958,2.5222,2.5649,2.6097,2.6336,2.6436]},{"header":{"parameterUnit":"m.s-1","parameterCategory":1,"la1":31.0,"la2":29.5877,"lo1":-88.7671,"lo2":-86.6584,"dy":0.0162,"dx":0.0185,"nx":115,"ny":88,"refTime":"2026-03-17T00:00:00:Z","depth":0,"parameterNumber":3,"parameterNumberName":"V-component_of_WINDS"},"data":[0.0,0.0,0.0,0.0,0.0,0.0,0.0,0.0,0.0,0.0,0.0,0.0,0.0,0.0,0.0,0.0,0.0,0.0,0.0,0.0,0.0,0.0,0.0,0.0,0.0,0.0,0.0,0.0,0.0,0.0,0.0,0.0,0.0,0.0,0.0,0.0,0.0,0.0,0.0,0.0,0.0,0.0,0.0,0.0,0.0,0.0,0.0,0.0,0.0,0.0,0.0,0.0,0.0,0.0,0.0,0.0,0.0,0.0,0.0,0.0,0.0,0.0,0.0,0.0,0.0,0.0,0.0,0.0,0.0,0.0,0.0,0.0,0.0,0.0,0.0,0.0,0.0,0.0,0.0,0.0,0.0,0.0,0.0,0.0,0.0,0.0,0.0,0.0,0.0,0.0,0.0,0.0,0.0,0.0,0.0,0.0,0.0,0.0,0.0,0.0,0.0,0.0,0.0,0.0,0.0,0.0,0.0,0.0,0.0,0.0,0.0,0.0,0.0,0.0,0.0,0.0,0.0,0.0,0.0,0.0,0.0,0.0,0.0,0.0,0.0,0.0,0.0,0.0,0.0,0.0,0.0,0.0,0.0,0.0,0.0,0.0,0.0,0.0,0.0,0.0,0.0,0.0,0.0,0.0,0.0,0.0,0.0,0.0,0.0,0.0,0.0,0.0,0.0,0.0,0.0,0.0,0.0,0.0,0.0,0.0,0.0,0.0,0.0,0.0,0.0,0.0,0.0,0.0,0.0,0.0,0.0,0.0,0.0,0.0,0.0,0.0,0.0,0.0,0.0,0.0,0.0,0.0,0.0,0.0,0.0,0.0,0.0,0.0,0.0,0.0,0.0,0.0,0.0,0.0,0.0,0.0,0.0,0.0,0.0,0.0,0.0,0.0,0.0,0.0,0.0,0.0,0.0,0.0,0.0,0.0,0.0,0.0,0.0,0.0,0.0,0.0,0.0,0.0,0.0,0.0,0.0,0.0,0.0,0.0,0.0,0.0,0.0,0.0,0.0,0.0,0.0,0.0,0.0,0.0,0.0,0.0,0.0,0.0,0.0,0.0,0.0,0.0,0.0,0.0,0.0,0.0,0.0,0.0,0.0,0.0,0.0,0.0,0.0,0.0,0.0,0.0,0.0,0.0,0.0,0.0,0.0,0.0,0.0,0.0,0.0,0.0,0.0,0.0,0.0,0.0,0.0,0.0,0.0,0.0,0.0,0.0,0.0,0.0,0.0,0.0,0.0,0.0,0.0,0.0,0.0,0.0,0.0,0.0,0.0,0.0,0.0,0.0,0.0,0.0,0.0,0.0,0.0,0.0,0.0,0.0,0.0,0.0,0.0,0.0,0.0,0.0,0.0,0.0,0.0,0.0,0.0,0.0,0.0,0.0,0.0,0.0,0.0,0.0,0.0,0.0,0.0,0.0,0.0,0.0,0.0,0.0,0.0,0.0,0.0,0.0,0.0,0.0,0.0,0.0,0.0,0.0,0.0,0.0,0.0,0.0,0.0,0.0,0.0,0.0,0.0,0.0,0.0,0.0,0.0,0.0,0.0,0.0,0.0,0.0,0.0,0.0,0.0,0.0,0.0,0.0,0.0,0.0,0.0,0.0,0.0,0.0,0.0,0.0,0.0,0.0,0.0,0.0,0.0,0.0,0.0,0.0,0.0,0.0,0.0,0.0,0.0,0.0,0.0,0.0,0.0,0.0,0.0,0.0,0.0,0.0,0.0,0.0,0.0,0.0,0.0,0.0,0.0,0.0,0.0,0.0,0.0,0.0,0.0,0.0,0.0,0.0,0.0,0.0,0.0,0.0,0.0,0.0,0.0,0.0,0.0,0.0,0.0,0.0,0.0,0.0,0.0,0.0,0.0,0.0,0.0,0.0,0.0,0.0,0.0,0.0,0.0,0.0,0.0,0.0,0.0,0.0,0.0,0.0,0.0,0.0,0.0,0.0,0.0,0.0,0.0,0.0,0.0,0.0,0.0,0.0,0.0,0.0,0.0,0.0,0.0,0.0,0.0,0.0,0.0,0.0,0.0,0.0,0.0,0.0,0.0,0.0,0.0,0.0,0.0,0.0,0.0,0.0,0.0,0.0,0.0,0.0,0.0,0.0,0.0,0.0,0.0,0.0,0.0,0.0,0.0,0.0,0.0,0.0,0.0,0.0,0.0,0.0,0.0,0.0,0.0,0.0,0.0,0.0,0.0,0.0,0.0,0.0,0.0,0.0,0.0,0.0,0.0,0.0,0.0,0.0,0.0,0.0,0.0,0.0,0.0,0.0,0.0,0.0,0.0,0.0,0.0,0.0,0.0,0.0,0.0,0.0,0.0,0.0,0.0,0.0,0.0,0.0,0.0,0.0,0.0,0.0,0.0,0.0,0.0,0.0,0.0,0.0,0.0,0.0,0.0,0.0,0.0,0.0,0.0,0.0,0.0,0.0,0.0,0.0,0.0,0.0,0.0,0.0,0.0,0.0,0.0,0.0,0.0,0.0,0.0,0.0,0.0,0.0,0.0,0.0,0.0,0.0,0.0,0.0,0.0,0.0,0.0,0.0,0.0,0.0,0.0,0.0,0.0,0.0,0.0,0.0,0.0,0.0,0.0,0.0,0.0,0.0,0.0,0.0,0.0,0.0,0.0,0.0,0.0,0.0,0.0,0.0,0.0,0.0,0.0,0.0,0.0,0.0,0.0,0.0,0.0,0.0,0.0,0.0,0.0,0.0,0.0,0.0,0.0,0.0,0.0,0.0,0.0,0.0,0.0,0.0,0.0,0.0,0.0,0.0,0.0,0.0,0.0,0.0,0.0,0.0,0.0,0.0,0.0,0.0,0.0,0.0,0.0,0.0,0.0,0.0,0.0,0.0,0.0,0.0,0.0,0.0,0.0,0.0,0.0,0.0,0.0,0.0,0.0,0.0,0.0,0.0,0.0,0.0,0.0,0.0,0.0,0.0,0.0,0.0,0.0,0.0,0.0,0.0,0.0,0.0,0.0,0.0,0.0,0.0,0.0,0.0,0.0,0.0,0.0,0.0,0.0,0.0,0.0,0.0,0.0,0.0,0.0,0.0,0.0,0.0,0.0,0.0,0.0,0.0,0.0,0.0,0.0,0.0,0.0,0.0,0.0,0.0,0.0,0.0,0.0,0.0,0.0,0.0,0.0,0.0,0.0,0.0,0.0,0.0,0.0,0.0,0.0,0.0,0.0,0.0,0.0,0.0,0.0,0.0,0.0,0.0,0.0,0.0,0.0,0.0,0.0,0.0,0.0,0.0,0.0,0.0,0.0,0.0,0.0,0.0,0.0,0.0,0.0,0.0,0.0,0.0,0.0,0.0,0.0,0.0,0.0,0.0,0.0,0.0,0.0,0.0,0.0,0.0,0.0,0.0,0.0,0.0,0.0,0.0,0.0,0.0,0.0,0.0,0.0,0.0,0.0,0.0,0.0,0.0,0.0,0.0,0.0,0.0,0.0,0.0,0.0,0.0,0.0,0.0,0.0,0.0,0.0,0.0,0.0,0.0,0.0,0.0,0.0,0.0,0.0,0.0,0.0,0.0,0.0,0.0,0.0,0.0,0.0,0.0,0.0,0.0,0.0,0.0,0.0,0.0,0.0,0.0,0.0,0.0,0.0,0.0,0.0,0.0,0.0,0.0,0.0,0.0,0.0,0.0,0.0,0.0,0.0,0.0,0.0,0.0,0.0,0.0,0.0,0.0,0.0,0.0,0.0,0.0,0.0,0.0,0.0,0.0,0.0,0.0,0.0,0.0,0.0,0.0,0.0,0.0,0.0,0.0,0.0,0.0,0.0,0.0,0.0,0.0,0.0,0.0,0.0,0.0,0.0,0.0,0.0,0.0,0.0,0.0,0.0,0.0,0.0,0.0,0.0,0.0,0.0,0.0,0.0,0.0,0.0,0.0,0.0,0.0,0.0,0.0,0.0,0.0,0.0,0.0,0.0,0.0,0.0,0.0,0.0,0.0,0.0,0.0,0.0,0.0,0.0,0.0,0.0,0.0,0.0,0.0,0.0,0.0,0.0,0.0,0.0,0.0,0.0,0.0,0.0,0.0,0.0,0.0,0.0,0.0,0.0,0.0,0.0,0.0,0.0,0.0,0.0,0.0,0.0,0.0,0.0,0.0,0.0,0.0,0.0,0.0,0.0,0.0,0.0,0.0,0.0,0.0,0.0,0.0,0.0,0.0,0.0,0.0,0.0,0.0,0.0,0.0,0.0,0.0,0.0,0.0,0.0,0.0,0.0,0.0,0.0,0.0,0.0403,0.0,0.0,0.0,0.0,0.0,0.0,0.0,0.0,0.0,0.0,0.0,0.0,0.0,0.0,0.0,0.0,0.0,0.0,0.0,0.0,0.0,0.0,0.0,0.0,0.0,0.0,0.0,0.0,0.0,0.0,0.0,0.0,0.0,0.0,0.0,0.0,0.0,0.0,0.0,0.0,0.0,0.0,0.0,0.0,0.0,0.0,0.0,0.0,0.0,0.0,0.0,0.0,0.0,0.0,0.0,0.0,0.0,0.0,0.0,0.0,0.0,0.0,0.0,0.0,0.0,0.0,0.0,0.0,0.0,0.0,0.0,0.0,0.0,0.0,0.0,0.0,0.0,0.0,0.0,0.0,0.0,0.0,0.0,0.0,0.0,0.0,0.0,0.0,0.0,0.0,0.0,0.0,0.0,0.0,0.0,0.0,0.0,0.0,0.0,0.0,0.0,0.0,0.0,0.0,0.0,0.0,0.0,0.0,0.0,0.0,-0.0324,-0.0191,0.007,0.0256,0.0409,0.0,0.0,0.0,0.0,0.0,0.0,0.0,0.0,0.0,0.0,0.0,0.0,0.0,0.0,0.0,0.0,0.0,0.0,0.0,0.0,0.0,0.0,0.0,0.0,0.0,0.0,0.0,0.0,0.0,0.0,0.0,0.0,0.0,0.0,0.0,0.0,0.0,0.0,0.0,0.0,0.0,0.0,0.0,0.0,0.0,0.0,0.0,0.0,0.0,0.0,0.0,0.0,0.0,0.0,0.0,0.0,0.0,0.0,0.0,0.0,0.0,0.0,0.0,0.0,0.0,0.0,0.0,0.0,0.0,0.0,0.0,0.0,0.0,0.0,0.0,0.0,0.0,0.0,0.0,0.0,0.0,0.0,0.0,0.0,0.0,0.0,0.0,0.0,0.0,0.0,0.0,0.0,0.0,0.0,0.0,0.0,0.0,0.0,0.0,0.0,0.0,0.0,0.0,0.0,0.0,0.0,0.0,0.0,0.0,0.0,0.0,0.0,0.0218,0.0401,0.0604,0.0,0.0,0.0,0.0,0.0,0.0,0.0,0.0,0.0,0.0,0.0,0.0,0.0,0.0,0.0,0.0,0.0,0.0,0.0,0.0,0.0,0.0,0.0,0.0,0.0,0.0,0.0,0.0,0.0,0.0,0.0,0.0,0.0,0.0,0.0,0.0,0.0,0.0,0.0,0.0,0.0,0.0,0.0,0.0,0.0,0.0,0.0,0.0,0.0,0.0,0.0,0.0,0.0,0.0,0.0,0.0,0.0,0.0,0.0,0.0,0.0,0.0,0.0,0.0,0.0,0.0,0.0,0.0,0.0,0.0,0.0,0.0,0.0,0.0,0.0,0.0,0.0,0.0,0.0,0.0,0.0,0.0,0.0,0.0,0.0,0.0,0.0,0.0,0.0,0.0,0.0,0.0,0.0,0.0,0.0,0.0,0.0,0.0,0.0,0.0,0.0,0.0,0.0,0.0,0.0,0.0,0.0,0.0,0.0,0.0,-0.009,0.017,0.0487,0.0,0.1193,0.0,0.0,0.0,0.0,0.0,0.0,0.0,0.0,0.0,0.0,0.0,0.0,0.0,0.0,0.0,0.0,0.0,0.0,0.0,0.0,0.0,0.0,0.0,0.0,0.0,0.0,0.0,0.0,0.0,0.0,0.0,0.0,0.0,0.0,0.0,0.0,0.0,0.0,0.0,0.0,0.0,0.0,0.0,0.0,0.0,0.0,0.0,0.0,0.0,0.0,0.0,0.0,0.0,0.0,0.0,0.0,0.0,0.0,0.0,0.0,0.0,0.0,0.0,0.0,0.0,0.0,0.0,0.0,0.0,0.0,0.0,0.0,0.0,0.0,0.0,0.0,0.0,0.0,0.0,0.0,0.0,0.0,0.0,0.0,0.0,0.0,0.0,0.0,0.0,0.0,0.0,0.0,0.0,0.0,0.0,0.0,0.0,0.0,0.0,0.0,0.0,0.0,0.0,0.0,0.0,0.0,0.0,0.0,0.0,0.0,0.0178,0.0483,0.0709,0.0961,0.0,0.0,0.0,0.0,0.0,0.0,0.0,0.0,0.0,0.0,0.0,0.0,0.0,0.0,0.0,0.0,0.0,0.0,0.0,0.0,0.0,0.0,0.0,0.0,0.0,0.0,0.0,0.0,0.0,0.0,0.0,0.0,0.0,0.0,0.0,0.0,0.0,0.0,0.0,0.0,0.0,0.0,0.0,0.0,0.0,0.0,0.0,0.0,0.0,0.0,0.0,0.0,0.0,0.0,0.0,0.0,0.0,0.0,0.0,0.0,0.0,0.0,0.0,0.0,0.0,0.0,0.0,0.0,0.0,0.0,0.0,0.0,0.0,0.0,0.0,0.0,0.0,0.0,0.0,0.0,0.0,0.0,0.0,0.0,0.0,0.0,0.0,0.0,0.0,0.0,0.0,0.0,0.0,0.0,0.0,0.0,0.0,0.0,0.0,0.0,0.0,0.0,0.0,0.0,0.0,0.0,0.0,0.0,0.0,0.0,0.0203,0.0,0.0841,0.0963,0.1106,0.1335,0.0,0.0,0.0,0.0,0.0,0.0,0.0,0.0,0.0,0.0,0.0,0.0,0.0,0.0,0.0,0.0,0.0,0.0,0.0,0.0,0.0,0.0,0.0,0.0,0.0,0.0,0.0,0.0,0.0,0.0,0.0,0.0,0.0,0.0,0.0,0.0,0.0,0.0,0.0,0.0,0.0,0.0,0.0,0.0,0.0,0.0,0.0,0.0,0.0,0.0,0.0,0.0,0.0,0.0,0.0,0.0,0.0,0.0,0.0,0.0,0.0,0.0,0.0,0.0,0.0,0.0,0.0,0.0,0.0,0.0,0.0,0.0,0.0,0.0,0.0,0.0,0.0,0.0,0.0,0.0,0.0,0.0,0.0,0.0,0.0,0.0,0.0,0.0,0.0,0.0,0.0,0.0,0.0,0.0,0.0,0.0,0.0,0.0,0.0,0.0,0.0,0.0,0.0,0.0,0.0,0.0,0.0,0.0,0.0,0.0385,0.0674,0.1257,0.1288,0.1351,0.0,0.0,0.0,0.0,0.0,0.0,0.0,0.0,0.0,0.0,0.0,0.0,0.0,0.0,0.0,0.0,0.0,0.0,0.0,0.0,0.0,0.0,0.0,0.0,0.0,0.0,0.0,0.0,0.0,0.0,0.0,0.0,0.0,0.0,0.0,0.0,0.0,0.0,0.0,0.0,0.0,0.0,0.0,0.0,0.0,0.0,0.0,0.0,0.0,0.0,0.0,0.0,0.0,0.0,0.0,0.0,0.0,0.0,0.0,0.0,0.0,0.0,0.0,0.0,0.0,0.0,0.0,0.0,0.0,0.0,0.0,0.0,0.0,0.0,0.0,0.0,0.0,0.0,0.0,0.0,0.0,0.0,0.0,0.0,0.0,0.0,0.0,0.0,0.0,0.0,0.0,0.0,0.0,0.0,0.0,0.0,0.0,0.0,0.0,0.0,0.0,0.0,0.0,0.0,0.0,0.0,0.0,0.0,0.0,0.0393,0.0703,0.1224,0.1965,0.1622,0.1673,0.0,0.0,0.0,0.0,0.0,0.0,0.0,0.0,0.0,0.0,0.0,0.0,0.0,0.0,0.0,0.0,0.0,0.0,0.0,0.0,0.0,0.0,0.0,0.0,0.0,0.0,0.0,0.0,0.0,0.0,0.0,0.0,0.0,0.0,0.0,0.0,0.0,0.0,0.0,0.0,0.0,0.0,0.0,0.0,0.0,0.0,0.0,0.0,0.0,0.0,0.0,0.0,0.0,0.0,0.0,0.0,0.0,0.0,0.0,0.0,0.0,0.0,0.0,0.0,0.0,0.0,0.0,0.0,0.0,0.0,0.0,0.0,0.0,0.0,0.0,0.0,0.0,0.0,0.0,0.0,0.0,0.0,0.0,0.0,0.0,0.0,0.0,0.0,0.0,0.0,0.0,0.0,0.0,0.0,0.0,0.0,0.0,0.0,0.0,0.0,0.0,0.0,0.0,0.0,0.0,0.0,0.0,0.0,0.0,0.0901,0.0,0.2028,0.0,0.2097,0.206,0.0,0.0,0.0,0.0,0.0,0.0,0.0,0.0,0.0,0.0,0.0,0.0,0.0,0.0,0.0,0.0,0.0,0.0,0.0,0.0,0.0,0.0,0.0,0.0,0.0,0.0,0.0,0.0,0.0,0.0,0.0,0.0,0.0,0.0,0.0,0.0,0.0,0.0,0.0,0.0,0.0,0.0,0.0,0.0,0.0,0.0,0.0,0.0,0.0,0.0,0.0,0.0,0.0,0.0,0.0,0.0,0.0,0.0,0.0,0.0,0.0,0.0,0.0,0.0,0.0,0.0,0.0,0.0,0.0,0.0,0.0,0.0,0.0,0.0,0.0,0.0,0.0,0.0,0.0,0.0,0.0,0.0,0.0,0.0,0.0,0.0,0.0,0.0,0.0,0.0,0.0,0.0,0.0,0.0,0.0,0.0,0.0,0.0,0.0,0.0,0.0,0.0,0.0,0.0,0.0,0.0,0.0,0.0,0.0685,0.1944,0.2741,0.3035,0.282,0.2685,0.2498,0.0,0.0,0.0,0.0,0.0,0.0,0.0,0.0,0.0,0.0,0.0,0.0,0.0,0.0,0.0,0.0,0.0,0.0,0.0,0.0,0.0,0.0,0.0,0.0,0.0,0.0,0.0,0.0,0.0,0.0,0.0,0.0,0.0,0.0,0.0,0.0,0.0,0.0,0.0,0.0,0.0,0.0,0.0,0.0,0.0,0.0,0.0,0.0,0.0,0.0,0.0,0.0,0.0,0.0,0.0,0.0,0.0,0.0,0.0,0.0,0.0,0.0,0.0,0.0,0.0,0.0,0.0,0.0,0.0,0.0,0.0,0.0,0.0,0.0,0.0,0.0,0.0,0.0,0.0,0.0,0.0,0.0,0.0,0.0,0.0,0.0,0.0,0.0,0.0,0.0,0.0,0.0,0.0,0.0,0.0,0.0,0.0,0.0,0.0,0.0,0.0,0.0,0.0,0.0,0.0,0.0,0.0,0.0,0.0,0.202,0.288,0.3529,0.3871,0.3598,0.3637,0.0,0.0,0.0,0.0,0.0,0.0,0.0,0.0,0.0,0.0,0.0,0.0,0.0,0.0,0.0,0.0,0.0,0.0,0.0,0.0,0.0,0.0,0.0,0.0,0.0,0.0,0.0,0.0,0.0,0.0,0.0,0.0,0.0,0.0,0.0,0.0,0.0,0.0,0.0,0.0,0.0,0.0,0.0,0.0,0.0,0.0,0.0,0.0,0.0,0.0,0.0,0.0,0.0,0.0,0.0,0.0,0.0,0.0,0.0,0.0,0.0,0.0,0.0,0.0,0.0,0.0,0.0,0.0,0.0,0.0,0.0,0.0,0.0,0.0,0.0,0.0,0.0,0.0,0.0,0.0,0.0,0.0,0.0,0.0,0.0,0.0,0.0,0.0,0.0,0.0,0.0,0.0,0.0,0.0,0.0,0.0,0.0,0.0,0.0,0.0,0.0,0.0,0.0,0.0,0.0,0.0,0.0,0.0,0.0,0.3144,0.3799,0.4302,0.4569,0.4339,0.4403,0.476,0.0,0.0,0.0,0.0,0.0,0.0,0.0,0.0,0.0,0.0,0.0,0.0,0.0,0.0,0.0,0.0,0.0,0.0,0.0,0.0,0.0,0.0,0.0,0.0,0.0,0.0,0.0,0.0,0.0,0.0,0.0,0.0,0.0,0.0,0.0,0.0,0.0,0.0,0.0,0.0,0.0,0.0,0.0,0.0,0.0,0.0,0.0,0.0,0.0,0.0,0.0,0.0,0.0,0.0,0.0,0.0,0.0,0.0,0.0,0.0,0.0,0.0,0.0,0.0,0.0,0.0,0.0,0.0,0.0,0.0,0.0,0.0,0.0,0.0,0.0,0.0,0.0,0.0,0.0,0.0,0.0,0.0,0.0,0.0,0.0,0.0,0.0,0.0,0.0,0.0,0.0,0.0,0.0,0.0,0.0,0.0,0.0,0.0,0.0,0.0,0.0,0.0,0.0,0.0,0.0,0.0,0.0,0.0,0.5039,0.5366,0.5343,0.5021,0.498,0.4893,0.0,0.0,0.0,0.0,0.0,0.0,0.0,0.0,0.0,0.0,0.0,0.0,0.0,0.0,0.0,0.0,0.0,0.0,0.0,0.0,0.0,0.0,0.0,0.0,0.0,0.0,0.0,0.0,0.0,0.0,0.0,0.0,0.0,0.0,0.0,0.0,0.0,0.0,0.0,0.0,0.0,0.0,0.0,0.0,0.0,0.0,0.0,0.0,0.0,0.0,0.0,0.0,0.0,0.0,0.0,0.0,0.0,0.0,0.0,0.0,0.0,0.0,0.0,0.0,0.0,0.0,0.0,0.0,0.0,0.0,0.0,0.0,0.0,0.0,0.0,0.0,0.0,0.0,0.0,0.0,0.0,0.0,0.0,0.0,0.0,0.0,0.0,0.0,0.0,0.0,0.0,0.0,0.0,0.0,0.0,0.0,0.0,0.0,0.0,0.0,0.0,0.0,0.0,0.0,0.0,0.0,0.0,0.0,0.0,0.5603,0.5892,0.6059,0.6144,0.5965,0.5928,0.0,0.0,0.0,0.0,0.0,0.0,0.0,0.0,0.0,0.0,0.0,0.0,0.0,0.0,0.0,0.0,0.0,0.0,0.0,0.0,0.0,0.0,0.0,0.0,0.0,0.0,0.0,0.0,0.0,0.0,0.0,0.0,0.0,0.0,0.0,0.0,0.0,0.0,0.0,0.0,0.0,0.0,0.0,0.0,0.0,0.0,0.0,0.0,0.0,0.0,0.0,0.0,0.0,0.0,0.0,0.0,0.0,0.0,0.0,0.0,0.0,0.0,0.0,0.0,0.0,0.0,0.0,0.0,0.0,0.0,0.0,0.0,0.0,0.0,0.0,0.0,0.0,0.0,0.0,0.0,0.0,0.0,0.0,0.0,0.0,0.0,0.0,0.0,0.0,0.0,0.0,0.0,0.0,0.0,0.0,0.0,0.0,0.0,0.0,0.0,0.0,0.0,0.0,0.0,0.0,0.0,0.0,0.0,0.4805,0.6356,0.6252,0.6504,0.7087,0.663,0.6437,0.0,0.0,0.0,0.0,0.0,0.0,0.0,0.0,0.0,0.0,0.0,0.0,0.0,0.0,0.0,0.0,0.0,0.0,0.0,0.0,0.0,0.0,0.0,0.0,0.0,0.0,0.0,0.0,0.0,0.0,0.0,0.0,0.0,0.0,0.0,0.0,0.0,0.0,0.0,0.0,0.0,0.0,0.0,0.0,0.0,0.0,0.0,0.0,0.0,0.0,0.0,0.0,0.0,0.0,0.0,0.0,0.0,0.0,0.0,0.0,0.0,0.0,0.0,0.0,0.0,0.0,0.0,0.0,0.0,0.0,0.0,0.0,0.0,0.0,0.0,0.0,0.0,0.0,0.0,0.0,0.0,0.0,0.0,0.0,0.0,0.0,0.0,0.0,0.0,0.0,0.0,0.0,0.0,0.0,0.0,0.0,0.0,0.0,0.0,0.0,0.0,0.0,0.0,0.0,0.0,0.0,0.0,0.0,0.5333,0.7179,0.6583,0.6765,0.7806,0.7087,0.6647,0.0,0.0,0.0,0.0,0.0,0.0,0.0,0.0,0.0,0.0,0.0,0.0,0.0,0.0,0.0,0.0,0.0,0.0,0.0,0.0,0.0,0.0,0.0,0.0,0.0,0.0,0.0,0.0,0.0,0.0,0.0,0.0,0.0,0.0,0.0,0.0,0.0,0.0,0.0,0.0,0.0,0.0,0.0,0.0,0.0,0.0,0.0,0.0,0.0,0.0,0.0,0.0,0.0,0.0,0.0,0.0,0.0,0.0,0.0,0.0,0.0,0.0,0.0,0.0,0.0,0.0,0.0,0.0,0.0,0.0,0.0,0.0,0.0,0.0,0.0,0.0,0.0,0.0,0.0,0.0,0.0,0.0,0.0,0.0,0.0,0.0,0.0,0.0,0.0,0.0,0.0,0.0,0.0,0.0,0.0,0.0,0.0,0.0,0.0,0.0,0.0,0.0,0.0,0.0,0.0,0.0,0.0,0.0,0.6099,0.7955,0.7047,0.7132,0.8405,0.7556,0.6994,0.0,0.0,0.0,0.0,0.0,0.0,0.0,0.0,0.0,0.0,0.0,0.0,0.0,0.0,0.0,0.0,0.0,0.0,0.0,0.0,0.0,0.0,0.0,0.0,0.0,0.0,0.0,0.0,0.0,0.0,0.0,0.0,0.0,0.0,0.0,0.0,0.0,0.0,0.0,0.0,0.0,0.0,0.0,0.0,0.0,0.0,0.0,0.0,0.3514,0.0,0.0,0.0,0.0,0.0,0.0,0.0,0.0,0.0,0.0,0.0,0.0,0.0,0.0,0.0,0.0,0.0,0.0,0.0,0.0,0.0,0.0,0.0,0.0,0.0,0.0,0.0,0.0,0.0,0.0,0.0,0.0,0.0,0.0,0.0,0.0,0.0,0.0,0.0,0.0,0.0,0.0,0.0,0.0,0.0,0.0,0.0,0.0,0.0,0.0,0.0,0.0,0.0,0.0,0.0,0.0,0.0,0.0,0.0,0.6177,0.8005,0.7168,0.7266,0.8502,0.8116,0.7564,0.0,0.0,0.0,0.0,0.0,0.0,0.0,0.0,0.0,0.0,0.0,0.0,0.0,0.0,0.0,0.0,0.0,0.0,0.0,0.0,0.0,0.0,0.0,0.0,0.0,0.0,0.0,0.0,0.0,0.0,0.0,0.0,0.0,0.0,0.0,0.0,0.0,0.0,0.0,0.0,0.0,0.0,0.0,0.0,0.0,0.0,0.0,0.0,0.0,0.0,0.0,0.0,0.0,0.0,0.0,0.0,0.0,0.0,0.0,0.0,0.0,0.0,0.0,0.0,0.0,0.0,0.0,0.0,0.0,0.0,0.0,0.0,0.0,0.0,0.0,0.0,0.0,0.0,0.0,0.0,0.0,0.0,0.0,0.0,0.0,0.0,0.0,0.0,0.0,0.0,0.0,0.0,0.0,0.0,0.0,0.0,0.0,0.0,0.0,0.0,0.0,0.0,0.0,0.0,0.0,0.0,0.0,0.4952,0.6145,0.7783,0.7212,0.744,0.865,0.8623,0.8103,0.7088,0.0,0.0,0.0,0.0,0.0,0.0,0.0,0.0,0.0,0.0,0.0,0.0,0.0,0.0,0.0,0.0,0.0,0.0,0.0,0.0,0.0,0.0,0.0,0.0,0.0,0.0,0.0,0.0,0.0,0.0,0.0,0.0,0.0,0.0,0.0,0.0,0.0,0.0,0.1468,0.233,0.0,0.0,0.0,0.0,0.0,0.0,0.0,0.0,0.4748,0.0,0.0,0.0,0.0,0.0,0.0,0.0,0.0,0.0,0.0,0.0,0.0,0.0,0.0,0.0,0.0,0.0,0.0,0.0,0.0,0.0,0.0,0.0,0.0,0.0,0.0,0.0,0.0,0.0,0.0,0.0,0.0,0.0,0.0,0.0,0.0,0.0,0.0,0.0,0.0,0.0,0.0,0.0,0.0,0.0,0.0,0.0,0.0,0.0,0.0,0.0,0.0,0.0,0.0,0.0,0.0,0.5235,0.5925,0.6808,0.7865,0.7673,0.8036,0.9052,0.8778,0.8297,0.7687,0.0,0.0,0.0,0.0,0.0,0.0,0.0,0.0,0.0,0.0,0.0,0.0,0.0,0.0,0.0,0.0,0.0,0.0,0.0,0.0,0.0,0.0,0.0,0.0,0.0,0.0,0.0,0.0,0.0,0.0,0.0,0.0,0.0,0.0,0.0,0.0,0.0,0.0,0.0,0.334,0.3731,0.0,0.0,0.0,0.0,0.0,0.0,0.0,0.0,0.4612,0.0,0.0,0.0,0.0,0.0,0.0,0.0,0.0,0.0,0.0,0.0,0.0,0.0,0.0,0.0,0.0,0.0,0.0,0.0,0.0,0.0,0.0,0.0,0.0,0.0,0.0,0.0,0.0,0.0,0.0,0.0,0.0,0.0,0.0,0.0,0.0,0.0,0.0,0.0,0.0,0.0,0.0,0.0,0.0,0.0,0.0,0.0,0.0,0.0,0.0,0.0,0.0,0.0,0.0,0.0,0.5528,0.6362,0.7235,0.8075,0.8356,0.8716,0.9197,0.9239,0.8909,0.0,0.0,0.0,0.0,0.0,0.0,0.0,0.0,0.0,0.0,0.0,0.0,0.0,0.0,0.0,0.0,0.0,0.0,0.0,0.0,0.0,0.0,0.0,0.0,0.0,0.0,0.0,0.0,0.0,0.0,0.0,0.0,0.0,0.0,0.0,0.0,0.0,0.0,0.0,0.0,0.3462,0.3939,0.4594,0.0,0.0,0.0,0.0,0.0,0.0,0.521,0.5358,0.0,0.0,0.0,0.0,0.0,0.0,0.0,0.0,0.0,0.0,0.0,0.0,0.0,0.0,0.0,0.0,0.0,0.0,0.0,0.0,0.0,0.0,0.0,0.0,0.0,0.0,0.0,0.0,0.0,0.0,0.0,0.0,0.0,0.0,0.0,0.0,0.0,0.0,0.0,0.0,0.0,0.0,0.0,0.0,0.0,0.0,0.0,0.0,0.0,0.0,0.0,0.0,0.0,0.0,0.0,0.5517,0.6583,0.7531,0.8295,0.8991,0.9338,0.9351,0.9701,0.9451,0.0,0.0,0.0,0.0,0.0,0.0,0.0,0.0,0.0,0.0,0.0,0.0,0.0,0.0,0.0,0.0,0.0,0.0,0.0,0.0,0.0,0.0,0.0,0.0,0.0,0.0,0.0,0.0,0.0,0.0,0.0,0.0,0.0,0.0,0.0,0.0,0.0,0.0,0.0,0.0,0.0,0.4103,0.441,0.4819,0.0,0.0,0.0,0.0,0.579,0.6036,0.0,0.0,0.0,0.0,0.0,0.0,0.0,0.0,0.0,0.0,0.0,0.0,0.0,0.0,0.0,0.0,0.0,0.0,0.0,0.0,0.0,0.0,0.0,0.0,0.0,0.0,0.0,0.0,0.0,0.0,0.0,0.0,0.0,0.0,0.0,0.0,0.0,0.0,0.0,0.0,0.0,0.0,0.0,0.0,0.0,0.0,0.0,0.0,0.0,0.0,0.0,0.0,0.0,0.0,0.0,0.0,0.5521,0.6661,0.7651,0.8376,0.9262,0.9752,0.9818,0.9879,0.9523,0.0,0.0,0.0,0.0,0.0,0.0,0.0,0.0,0.0,0.0,0.0,0.0,0.0,0.0,0.0,0.0,0.0,0.0,0.0,0.0,0.0,0.0,0.0,0.0,0.0,0.0,0.0,0.0,0.0,0.0,0.0,0.0,0.0,0.0,0.0,0.0,0.0,0.0,0.0,0.0,0.0,0.4439,0.4934,0.5059,0.5262,0.0,0.0,0.6095,0.6802,0.6518,0.0,0.0,0.0,0.0,0.0,0.0,0.0,0.0,0.0,0.0,0.0,0.0,0.0,0.0,0.0,0.0,0.0,0.0,0.0,0.0,0.0,0.0,0.0,0.0,0.0,0.0,0.0,0.0,0.0,0.0,0.0,0.0,0.0,0.0,0.0,0.0,0.0,0.0,0.0,0.0,0.0,0.0,0.0,0.0,0.0,0.0,0.0,0.0,0.0,0.0,0.0,0.0,0.0,0.0,0.0,0.5166,0.5756,0.7284,0.8243,0.8607,1.0073,1.0574,0.9918,1.0243,0.9913,0.0,0.0,0.0,0.0,0.0,0.0,0.0,0.0,0.0,0.0,0.0,0.0,0.0,0.0,0.0,0.0,0.0,0.0,0.0,0.0,0.0,0.0,0.0,0.0,0.0,0.0,0.0,0.0,0.0,0.0,0.0,0.0,0.0,0.0,0.0,0.0,0.0,0.0,0.0,0.0,0.0,0.0,0.5674,0.5613,0.0,0.0,0.0,0.6442,0.6999,0.0,0.0,0.0,0.0,0.0,0.0,0.0,0.0,0.0,0.0,0.0,0.0,0.0,0.0,0.0,0.0,0.0,0.0,0.0,0.0,0.0,0.0,0.0,0.0,0.0,0.0,0.0,0.0,0.0,0.0,0.0,0.0,0.0,0.0,0.0,0.0,0.0,0.0,0.0,0.0,0.0,0.0,0.0,0.0,0.0,0.0,0.0,0.0,0.0,0.0,0.0,0.0,0.0,0.0,0.0,0.0,0.0,0.609,0.7865,0.8857,0.904,1.0756,1.1212,1.0201,1.0582,0.0,0.0,0.0,0.0,0.0,0.0,0.0,0.0,0.0,0.0,0.0,0.0,0.0,0.0,0.0,0.0,0.0,0.0,0.0,0.0,0.0,0.0,0.0,0.0,0.0,0.0,0.0,0.0,0.0,0.0,0.0,0.0,0.0,0.0,0.0,0.0,0.0,0.0,0.0,0.0,0.0,0.0,0.5106,0.5991,0.6065,0.6308,0.0,0.0,0.6773,0.7126,0.6895,0.6757,0.0,0.0,0.0,0.0,0.0,0.0,0.0,0.0,0.0,0.0,0.0,0.0,0.0,0.0,0.0,0.0,0.0,0.0,0.0,0.0,0.0,0.0,0.0,0.0,0.0,0.0,0.0,0.0,0.0,0.0,0.0,0.0,0.0,0.0,0.0,0.0,0.0,0.0,0.0,0.0,0.0,0.0,0.0,0.0,0.0,0.0,0.0,0.0,0.0,0.0,0.0,0.0,0.0,0.0,0.0,0.6574,0.8209,0.9313,0.983,1.1042,1.1432,1.0873,1.0858,1.0319,0.0,0.0,0.0,0.0,0.0,0.0,0.0,0.0,0.0,0.0,0.0,0.0,0.0,0.0,0.0,0.0,0.0,0.0,0.0,0.0,0.0,0.0,0.0,0.0,0.0,0.0,0.0,0.0,0.0,0.0,0.0,0.0,0.0,0.0,0.0,0.0,0.0,0.0,0.0,0.0,0.0,0.5194,0.5501,0.6169,0.6645,0.0,0.0,0.7136,0.7345,0.7103,0.6997,0.7313,0.0,0.0,0.0,0.0,0.0,0.0,0.0,0.0,0.0,0.0,0.0,0.0,0.0,0.0,0.0,0.0,0.0,0.0,0.0,0.0,0.0,0.0,0.0,0.0,0.0,0.0,0.0,0.0,0.0,0.0,0.0,0.0,0.0,0.0,0.0,0.0,0.0,0.0,0.0,0.0,0.0,0.0,0.0,0.0,0.0,0.0,0.0,0.0,0.0,0.0,0.0,0.0,0.0,0.5595,0.6609,0.842,0.9526,0.9933,1.1435,1.1798,1.0854,1.1051,1.052,0.0,0.0,0.0,0.0,0.0,0.0,0.0,0.0,0.0,0.0,0.0,0.0,0.0,0.0,0.0,0.0,0.0,0.0,0.0,0.0,0.0,0.0,0.0,0.0,0.0,0.0,0.0,0.0,0.2025,0.2033,0.1886,0.0,0.0,0.0,0.0,0.0,0.0,0.0,0.0,0.0,0.0,0.5623,0.6371,0.6645,0.0,0.0,0.7443,0.7459,0.8306,0.747,0.6993,0.777,0.7452,0.0,0.0,0.0,0.0,0.0,0.0,0.0,0.0,0.0,0.0,0.0,0.0,0.0,0.0,0.0,0.0,0.0,0.0,0.0,0.0,0.0,0.0,0.0,0.0,0.0,0.0,0.0,0.0,0.0,0.0,0.0,0.0,0.0,0.0,0.0,0.0,0.0,0.0,0.0,0.0,0.0,0.0,0.0,0.0,0.0,0.0,0.0,0.0,0.0,0.0,0.0,0.0,0.6011,0.7075,0.8817,0.9944,1.0404,1.1931,1.215,1.1024,1.1209,1.0667,0.0,0.0,0.0,0.0,0.0,0.0,0.0,0.0,0.0,0.0,0.0,0.0,0.0,0.0,0.0,0.0,0.0,0.0,0.0,0.0,0.0,0.0,0.0,0.0,0.0,0.0,0.0,0.0,0.2129,0.2142,0.2287,0.0,0.0,0.0,0.0,0.0,0.0,0.0,0.0,0.0,0.0,0.6068,0.7067,0.7235,0.759,0.8498,0.8242,0.8165,0.8863,0.8125,0.7699,0.8392,0.0,0.0,0.0,0.0,0.0,0.0,0.0,0.0,0.0,0.0,0.0,0.0,0.0,0.0,0.0,0.0,0.0,0.0,0.0,0.0,0.0,0.0,0.0,0.0,0.0,0.0,0.0,0.0,0.0,0.0,0.5047,0.0,0.0,0.0,0.0,0.0,0.0,0.0,0.0,0.0,0.0,0.0,0.0,0.0,0.0,0.0,0.0,0.0,0.0,0.0,0.0,0.0,0.0,0.6943,0.816,0.9469,1.0615,1.1531,1.2486,1.2432,1.1331,1.1424,1.0807,0.932,0.0,0.0,0.0,0.0,0.0,0.0,0.0,0.0,0.0,0.0,0.0,0.0,0.0,0.0,0.0,0.0,0.0,0.0,0.0,0.0,0.0,0.0,0.0,0.0,0.0,0.0,0.226,0.2257,0.2297,0.0,0.0,0.0,0.0,0.0,0.0,0.0,0.0,0.0,0.0,0.5779,0.6511,0.7385,0.7946,0.8376,0.8663,0.9161,0.9336,0.8818,0.9106,0.9399,0.0,0.0,0.0,0.0,0.0,0.0,0.0,0.0,0.0,0.0,0.0,0.0,0.0,0.0,0.0,0.0,0.0,0.0,0.0,0.0,0.0,0.0,0.0,0.0,0.0,0.0,0.0,0.6287,0.5976,0.0,0.0,0.0,0.0,0.0,0.0,0.0,0.0,0.0,0.0,0.0,0.9085,0.9108,0.0,0.0,0.0,0.0,0.0,0.0,0.0,0.0,0.0,0.0,0.0,0.0,0.7076,0.8437,0.9613,1.0733,1.1827,1.2609,1.2473,1.1323,1.143,1.0649,0.8827,0.0,0.0,0.0,0.0,0.0,0.0,0.0,0.0,0.0,0.0,0.0,0.0,0.0,0.0,0.0,0.0,0.0,0.0,0.0,0.0,0.0,0.0,0.0,0.0,0.0,0.279,0.0,0.0,0.0,0.0,0.0,0.0,0.0,0.0,0.0,0.0,0.0,0.5151,0.6316,0.6975,0.7556,0.8208,0.8741,0.9003,0.0,0.0,0.0,0.0,0.0,0.0,0.0,0.0,0.0,0.0,0.0,0.0,0.0,0.0,1.0892,1.0054,0.9719,0.9569,0.9587,0.0,0.0,0.0,0.0,0.0,0.0,0.0,0.0,0.0,0.0,0.0,0.0,0.0,0.0,0.7319,0.0,0.7104,0.0,0.0,0.0,0.0,0.0,0.0,0.0,0.0,0.8901,0.946,0.9958,0.9866,0.9881,0.0,0.9364,0.8557,0.0,0.0,0.0,0.0,0.0,0.0,0.0,0.0,0.7793,0.9034,1.0227,1.1318,1.2306,1.2855,1.2689,1.1757,1.1399,1.0367,0.8599,0.8307,0.7813,0.0,0.0,0.0,0.0,0.0,0.0,0.0,0.0,0.0,0.0,0.0,0.0,0.0,0.0,0.0,0.0,0.0,0.0,0.0,0.0,0.0,0.0,0.0,0.2976,0.0,0.0,0.0,0.0,0.0,0.0,0.0,0.0,0.0,0.5255,0.5507,0.612,0.7332,0.7768,0.8323,0.9199,0.0,0.0,0.0,0.0,0.0,0.0,0.0,1.0784,1.1796,1.1409,1.0887,1.0631,1.0921,1.1036,1.0666,0.0,0.0,1.0713,1.0369,1.0219,1.0219,1.0219,1.0195,1.0219,1.0568,1.0967,0.0,0.0,0.0,0.0,0.0,0.0,0.0,0.0,0.8345,0.8331,0.0,0.8584,0.0,0.0,0.0,0.0,0.0,0.8073,0.0,0.0,0.9835,0.9977,1.0128,1.0019,1.0031,1.0185,1.0495,1.035,0.9725,0.7797,0.0,0.0,0.0,0.0,0.0,0.0,0.9055,0.9955,1.1269,1.2315,1.2991,1.3252,1.3103,1.2446,1.1338,1.0074,0.8751,0.9326,0.8722,0.657,0.7799,0.0,0.0,0.0,0.0,0.0,0.0,0.0,0.0,0.0,0.0,0.0,0.0,0.0,0.0,0.0,0.0,0.0,0.0,0.0,0.0,0.325,0.0,0.0,0.0,0.0,0.0,0.0,0.0,0.0,0.0,0.0,0.5952,0.6825,0.7701,0.8186,0.0,0.0,0.0,0.0,0.9923,1.1892,1.226,1.246,1.3049,1.292,1.2729,1.2759,0.0,0.0,1.0977,1.139,1.1585,1.0962,1.1365,1.1816,1.1786,1.1226,1.0852,1.0827,1.0852,1.0857,1.0957,1.182,1.2834,0.8664,0.0,0.0,0.0,0.0,0.7988,0.8585,0.9764,0.9385,0.9215,0.9227,0.9316,0.0,0.0,0.0,0.0,0.0,0.0,0.878,0.9645,0.9659,1.0126,1.0942,1.0918,1.1034,1.1293,1.0947,1.0688,1.0464,0.9574,0.8545,0.7403,0.0,0.0,0.0,0.0,0.9788,1.0863,1.1458,1.2222,1.3252,1.3363,1.2888,1.1822,1.1175,1.04,0.9485,0.9133,0.8942,0.8907,0.7714,0.0,0.0,0.0,0.0,0.0,0.0,0.0,0.0,0.0,0.0,0.0,0.0,0.0,0.0,0.0,0.0,0.0,0.0,0.0,0.4221,0.4106,0.4244,0.0,0.0,0.0,0.0,0.0,0.0,0.0,0.0,0.0,0.7137,0.7413,0.8098,0.0,0.0,1.0303,1.0991,1.106,1.1078,1.1209,1.163,0.0,0.0,1.184,1.225,1.2726,1.2651,1.2445,1.2265,1.201,1.1745,1.155,1.167,1.1816,1.1801,1.1655,1.151,1.1506,1.1521,1.1685,1.2134,1.2564,1.2999,0.9956,0.9111,0.8828,0.8925,0.9245,0.8958,0.9342,1.0185,0.9873,0.9718,0.9717,0.986,0.9429,0.86,0.841,0.0,0.0,0.0,0.9301,1.013,1.012,1.048,1.1101,1.1138,1.1299,1.1579,1.1089,1.0967,1.1181,1.0778,1.0116,0.9264,0.0,0.0,0.8746,0.9603,1.05,1.1381,1.1888,1.2552,1.3362,1.3527,1.2914,1.1575,1.1407,1.0906,0.9875,0.9371,0.9238,0.9544,0.8182,0.7546,0.0,0.0,0.0,0.0,0.0,0.0,0.0,0.0,0.0,0.0,0.0,0.4505,0.0,0.0,0.0,0.0,0.4227,0.4527,0.5074,0.5026,0.0,0.0,0.0,0.0,0.0,0.0,0.0,0.6864,0.7584,0.8101,0.8113,0.8144,0.853,0.9442,0.9839,1.0302,1.1004,0.0,1.1187,1.1521,1.1939,1.2149,1.2033,1.2119,1.225,1.2385,1.24,1.2426,1.2385,1.2055,1.1816,1.1816,1.1816,1.1816,1.1816,1.1816,1.1895,1.2134,1.2205,1.2403,1.3074,1.3403,1.3718,1.1212,1.1653,1.0939,1.0522,1.0324,1.0315,1.0218,1.0044,1.0031,1.0031,1.0057,1.0314,0.9952,0.9138,0.865,0.0,0.9619,0.9608,1.005,1.0825,1.0825,1.0849,1.0861,1.0861,1.1001,1.1262,1.1027,1.1187,1.1725,1.1431,1.118,1.0947,1.0363,0.9888,0.9666,1.0504,1.1221,1.1676,1.2526,1.3104,1.3421,1.3734,1.3136,1.1588,1.1903,1.1415,0.9997,0.9896,0.9616,0.9049,0.8875,0.8122,0.6714,0.0,0.0,0.0,0.0,0.0,0.0,0.0,0.0,0.0,0.0,0.0,0.0,0.0,0.0,0.0,0.4934,0.0,0.5892,0.5922,0.0,0.0,0.0,0.5985,0.647,0.6674,0.702,0.7569,0.0,0.0,0.8755,0.8876,0.8921,0.8938,0.8996,0.9464,1.0628,1.0462,1.0737,1.2426,1.2715,1.2959,1.3256,1.2962,1.243,1.1939,1.1816,1.1846,1.1846,1.1831,1.1816,1.1816,1.1816,1.1846,1.1876,1.1935,1.2089,1.2849,1.2849,1.3011,1.372,1.4303,1.4692,1.1994,1.2704,1.2224,1.1736,1.1268,1.1256,1.124,1.1199,1.1186,1.1186,1.1163,1.0792,1.0286,0.9705,0.9579,0.9629,0.983,0.983,0.9944,1.0122,1.0135,1.0286,1.0508,1.052,1.0678,1.0977,1.0932,1.1071,1.1412,1.1341,1.1654,1.2272,1.2175,1.1559,1.056,1.1226,1.1836,1.2354,1.2587,1.2965,1.3523,1.3766,1.3203,1.1787,1.1978,1.1415,0.9962,0.9896,0.9884,0.9781,0.8599,0.8027,0.8291,0.7099,0.0,0.0,0.0,0.0,0.0,0.0,0.0,0.0,0.0,0.6251,0.541,0.0,0.5933,0.0,0.6254,0.6621,0.6236,0.6604,0.0,0.0,0.7428,0.7407,0.7532,0.7603,0.7677,0.7804,0.8334,0.856,0.8313,0.8636,0.901,0.9324,0.9913,1.0479,1.0778,1.1328,1.18,1.225,1.2363,1.2404,1.2545,1.2281,1.201,1.1835,1.1816,1.1816,1.1816,1.1816,1.1816,1.1816,1.1816,1.198,1.2445,1.2561,1.2999,1.3957,1.3523,1.3175,1.4288,1.4721,1.496,1.2294,1.2797,1.2782,1.2477,1.2001,1.1974,1.1829,1.1603,1.1603,1.1603,1.159,1.1261,1.0935,1.0659,1.066,1.0673,1.0659,1.0659,1.0494,1.0256,1.0256,1.0236,1.016,1.0173,1.036,1.0667,1.0679,1.0893,1.1273,1.1284,1.168,1.2343,1.2355,1.1984,1.1326,1.2344,1.2949,1.3061,1.2997,1.3159,1.3576,1.3788,1.3229,1.1878,1.2355,1.1767,0.9997,1.0248,1.0334,1.0088,0.8883,0.8394,0.884,0.7682,0.6992,0.0,0.0,0.0,0.0,0.0,0.0,0.0,0.0,0.0,0.0,0.0,0.6808,0.0,0.7089,0.735,0.7248,0.7545,0.7869,0.8186,0.8108,0.799,0.7997,0.7997,0.7983,0.7982,0.8397,0.8553,0.8283,0.8782,0.9248,0.9482,1.0473,1.1169,1.1184,1.1624,1.1991,1.2148,1.2205,1.2138,1.205,1.1897,1.1816,1.1816,1.1816,1.1816,1.1816,1.1816,1.1816,1.1816,1.1816,1.201,1.2666,1.2789,1.3223,1.4272,1.4212,1.4137,1.502,1.5245,1.5394,1.2351,1.2523,1.2868,1.2812,1.2585,1.2533,1.2239,1.1801,1.1789,1.1766,1.1688,1.1703,1.1678,1.1603,1.1603,1.1603,1.1603,1.1603,1.1312,1.0806,1.0731,1.0457,1.0006,0.9918,1.0046,1.0334,1.0371,1.07,1.1242,1.1284,1.1511,1.191,1.1939,1.1969,1.2111,1.359,1.414,1.3668,1.3488,1.3453,1.3592,1.3813,1.3283,1.2064,1.272,1.2188,1.0176,1.0618,1.0688,1.0107,0.9321,0.8911,0.8881,0.8243,0.783,0.0,0.7799,0.0,0.0,0.0,0.0,0.0,0.0,0.0,0.0,0.6938,0.7486,0.7708,0.7726,0.7884,0.828,0.8383,0.8431,0.8412,0.8267,0.8129,0.8129,0.8144,0.8144,0.8144,0.8293,0.8425,0.8602,0.9127,0.9518,0.9978,1.0913,1.1697,1.182,1.1867,1.1999,1.2259,1.2271,1.221,1.2013,1.188,1.1826,1.1833,1.1826,1.1816,1.1816,1.1816,1.1816,1.1816,1.1816,1.207,1.2786,1.2939,1.3403,1.4706,1.4902,1.505,1.5589,1.5754,1.5814,1.2483,1.2858,1.2573,1.2654,1.2991,1.297,1.2937,1.2902,1.2885,1.2651,1.2266,1.2253,1.1986,1.1615,1.1603,1.1603,1.1603,1.1603,1.1525,1.1412,1.0921,1.0657,1.0518,1.0093,0.9931,1.0008,1.0285,1.0605,1.0977,1.1196,1.1741,1.2579,1.2609,1.2867,1.343,0.0,0.0,0.0,1.3612,1.3462,1.3584,1.3788,1.3545,1.2788,1.2477,0.0,1.0922,1.0395,1.0131,1.0071,0.9328,0.0,0.0,0.0,0.0,0.0,0.0,0.0,0.0,0.0,0.0,0.0,0.9357,0.8981,0.8044,0.8518,0.8634,0.8021,0.8462,0.8558,0.7979,0.8347,0.8628,0.8628,0.8457,0.8348,0.8325,0.8341,0.8348,0.8348,0.8374,0.8698,0.9412,0.9516,1.0111,1.1421,1.1841,1.2224,1.2941,1.2828,1.2768,1.2825,1.2646,1.2514,1.2449,1.2061,1.1902,1.2039,1.1918,1.1826,1.1816,1.1816,1.1816,1.1816,1.1816,1.2224,1.3346,1.363,1.4019,1.535,1.5589,1.5664,1.5784,1.5814,1.5814,1.2586,0.0,1.2646,1.2669,0.0,1.3298,1.3557,1.3575,1.3318,1.3048,1.2785,1.2801,1.2638,1.2404,1.2404,1.2388,1.2375,1.2404,1.2266,1.1977,1.1701,1.1397,1.1121,1.0872,1.0667,1.0547,1.0729,1.0888,1.1108,1.1242,1.1639,1.2284,1.2295,1.2478,1.2819,1.3376,1.3852,1.4302,1.3345,1.2925,1.3055,1.3257,1.3066,1.2498,0.0,0.0,0.0,0.0,0.0,0.0,0.0,0.0,0.0,0.0,0.0,0.9043,0.9764,1.0027,0.9609,1.027,1.0724,1.07,1.0597,1.0126,0.9165,0.9284,0.9216,0.8806,0.8964,0.896,0.8603,0.8715,0.8823,0.8891,0.8694,0.8548,0.8542,0.8542,0.8695,0.9033,0.917,0.9517,1.0326,1.0734,1.1215,1.2155,1.2537,1.2849,1.3286,1.3294,1.3165,1.3006,1.2778,1.2562,1.2406,1.222,1.1961,1.1992,1.1902,1.1826,1.1816,1.1816,1.1816,1.1846,1.2134,1.2706,1.3301,1.3885,1.4603,1.55,1.5814,1.5814,1.5814,1.5814,1.5814,1.2676,1.2367,1.2894,1.2928,1.2659,1.3696,1.4141,1.4118,0.0,0.0,0.0,1.321,1.321,1.321,1.321,1.321,1.321,1.321,1.296,1.2538,1.2438,1.2165,1.1738,1.164,1.1527,1.1387,1.1309,1.1353,1.1457,1.1424,1.1523,1.1768,1.1816,1.1844,1.1946,1.2376,1.3165,1.4189,1.3109,1.2466,1.2468,1.2674,1.2561,1.2072,1.3358,1.3609,1.2663,1.3107,1.283,1.1705,1.1629,1.1325,1.0696,1.0666,1.0686,1.0781,1.1385,1.1415,1.0732,1.1928,1.2351,1.1472,1.1408,1.102,1.0113,0.9716,0.9525,0.9504,0.9285,0.9221,0.9275,0.9099,0.9022,0.9119,0.8936,0.8815,0.8943,0.8929,0.9232,0.9899,1.0108,1.0463,1.1207,1.1833,1.2365,1.2534,1.2982,1.3396,1.3396,1.3388,1.3311,1.3104,1.2887,1.2617,1.2412,1.2241,1.2118,1.1965,1.1869,1.1816,1.1816,1.1816,1.1816,1.1816,1.2718,1.3436,1.3451,1.4124,1.5019,1.5679,1.5814,1.5814,1.5814,1.5814,1.5814,1.2866,1.2856,1.3436,1.3686,1.3717,1.4383,1.4719,1.473,1.4181,1.3672,1.321,1.321,1.321,1.321,1.321,1.321,1.321,1.321,1.316,1.3073,1.2613,1.2366,1.2266,1.1829,1.1748,1.201,1.1791,1.1803,1.2094,1.1869,1.1757,1.1805,1.1816,1.2034,1.2455,1.2562,1.292,1.3532,1.3337,1.2939,1.2351,1.2589,1.2714,1.2673,1.2533,1.2775,1.3407,1.2893,1.2557,1.2519,1.2524,1.2497,1.2432,1.2412,1.245,1.2519,1.2656,1.2616,1.2433,1.2663,1.2381,1.1552,1.191,1.1868,1.0986,1.0157,0.9621,0.9517,0.9452,0.9403,0.9321,0.9257,0.9228,0.9265,0.9146,0.9279,0.9858,0.9869,1.0097,1.0801,1.093,1.1255,1.1983,1.2263,1.2584,1.3066,1.3295,1.3396,1.3396,1.3396,1.3388,1.332,1.3121,1.2942,1.2804,1.2461,1.221,1.2164,1.198,1.1923,1.1891,1.1846,1.1876,1.1876,1.3732,1.4811,1.4423,1.4498,1.508,1.5664,1.5814,1.5814,1.5814,1.5814,1.5814,1.2915,1.2929,1.32,1.3523,1.3911,1.485,1.5265,1.5304,1.5072,1.4481,1.3727,1.3702,1.3504,1.321,1.321,1.321,1.321,1.321,1.321,1.3203,1.3211,1.321,1.323,1.3193,1.3194,1.3205,1.2745,1.2526,1.2517,1.2048,1.1816,1.1816,1.194,1.222,1.2582,1.275,1.2942,1.3173,1.2933,1.2643,1.2305,1.2171,1.2332,1.2771,1.2764,1.3234,1.4252,1.3952,1.3636,1.336,1.3345,1.3189,1.2818,1.2795,1.2835,1.291,1.332,1.3339,1.284,1.2781,1.2565,1.2146,1.1899,1.1639,1.1232,1.0681,1.0129,0.9668,0.9546,0.9504,0.9508,0.9385,0.9307,0.9369,0.9556,0.9864,1.0241,1.0501,1.0917,1.1603,1.1763,1.206,1.2812,1.2897,1.299,1.3362,1.3396,1.3396,1.3396,1.3396,1.3396,1.3379,1.3173,1.3031,1.2986,1.2549,1.2256,1.2205,1.2446,1.249,1.2362,1.2104,1.2224,1.3092,1.4706,1.547,1.5156,1.5259,1.5499,1.5649,1.5814,1.5814,1.5814,1.5814,1.5814,1.2992,1.3113,1.3248,1.3718,1.448,1.541,1.5841,1.5894,1.5869,1.5349,1.45,1.4229,1.3828,1.3416,1.3278,1.321,1.321,1.321,1.321,1.325,1.3682,1.3885,1.3921,1.4294,1.4424,1.4256,1.3696,1.3334,1.3184,1.2497,1.2065,1.2008,1.219,1.2406,1.2687,1.2896,1.3031,1.3061,1.2772,1.2527,1.2347,1.2058,1.2163,1.2579,1.3046,1.3708,1.4551,1.4791,1.4673,1.4252,1.4187,1.394,1.342,1.3349,1.3393,1.3496,1.3867,1.3729,1.2906,1.2765,1.2725,1.2685,1.2016,1.1575,1.1558,1.1371,1.0871,1.0148,1.0118,1.0184,1.0263,1.0132,0.9909,0.9893,1.0229,1.0644,1.0885,1.1189,1.17,1.2419,1.2573,1.2778,1.3244,1.3396,1.3379,1.3379,1.3396,1.3396,1.3396,1.3396,1.3396,1.3363,1.3225,1.3076,1.3004,1.269,1.249,1.2484,1.2984,1.3274,1.3152,1.2735,1.2777,1.4064,1.508,1.5664,1.5799,1.5784,1.5784,1.5814,1.5814,1.5814,1.5814,1.5814,1.5814,1.3214,1.3779,1.4247,1.5197,1.6129,1.6337,1.642,1.64,1.6425,1.6107,1.5475,1.4525,1.4103,1.3946,1.3471,1.3253,1.3253,1.321,1.3245,1.3284,1.3682,1.3901,1.397,1.4342,1.4677,1.4873,1.4328,1.4176,1.4463,1.3516,1.2874,1.2558,1.2553,1.2687,1.2959,1.2995,1.3121,1.3363,1.3441,1.3146,1.2543,1.2732,1.2589,1.2008,1.2845,1.3416,1.3826,1.4464,1.4946,1.5059,1.5038,1.5048,1.5012,1.5043,1.5071,1.5078,1.4473,1.3708,1.2914,1.2782,1.2766,1.2714,1.2492,1.2336,1.2352,1.2256,1.1807,1.1205,1.1483,1.17,1.1879,1.1759,1.1492,1.1069,1.1305,1.1677,1.2162,1.2241,1.251,1.3373,1.3282,1.3328,1.3379,1.3396,1.3396,1.3396,1.3396,1.3396,1.3413,1.3498,1.3515,1.3464,1.3379,1.3319,1.3159,1.2986,1.3099,1.3444,1.3626,1.3962,1.4218,1.4135,1.387,1.4615,1.517,1.5754,1.5814,1.5814,1.5814,1.5814,1.5814,1.5814,1.5814,1.5844,1.5859,1.3238,1.3815,1.4073,1.4858,1.5942,1.6358,1.6513,1.6513,1.6513,1.6362,1.6107,1.5374,1.4859,1.4538,1.3991,1.3856,1.4076,1.377,1.3752,1.4,1.4406,1.4611,1.4658,1.5058,1.5359,1.5448,1.4829,1.4725,1.4842,1.4015,1.3477,1.3437,1.3071,1.2953,1.3208,1.3226,1.3278,1.3396,1.365,1.3622,1.3335,1.3098,1.31,1.3238,1.3284,1.3657,1.4246,1.4231,1.446,1.5078,1.4709,1.4463,1.4527,1.453,1.4562,1.4609,1.4316,1.3883,1.3377,1.3001,1.2617,1.2214,1.2442,1.2626,1.2637,1.2887,1.289,1.2599,1.228,1.2076,1.2113,1.2095,1.1993,1.1853,1.214,1.2657,1.3243,1.3159,1.3231,1.3551,1.3494,1.3396,1.3396,1.3396,1.3396,1.3396,1.3396,1.3396,1.343,1.376,1.4039,1.4107,1.4394,1.4435,1.4003,1.3575,1.3805,1.4423,1.4967,1.5397,1.5314,1.6021,1.6088,1.5602,1.5654,1.5798,1.5814,1.5814,1.5814,1.5814,1.5814,1.5814,1.5814,1.6084,1.6293,1.3594,1.4061,1.4399,1.5039,1.5864,1.6303,1.6513,1.6513,1.6513,1.6513,1.645,1.6095,1.5807,1.5478,1.4839,1.4611,1.4651,1.4429,1.4379,1.4547,1.4921,1.5104,1.5149,1.558,1.5814,1.5739,1.532,1.519,1.5327,1.4772,1.4331,1.4164,1.3659,1.3391,1.3396,1.3396,1.3396,1.3421,1.3726,1.3888,1.3839,1.3574,1.3576,1.3902,1.3791,1.3975,1.4489,1.4185,1.4338,1.5142,1.4593,1.4287,1.4348,1.4354,1.4288,1.4121,1.4102,1.3824,1.3299,1.2961,1.2651,1.2349,1.2748,1.3142,1.3385,1.3719,1.394,1.39,1.3216,1.2806,1.275,1.2756,1.2762,1.2771,1.3153,1.3551,1.3961,1.3814,1.359,1.3646,1.3535,1.3396,1.3396,1.3396,1.3396,1.3396,1.3396,1.3532,1.3692,1.4149,1.4511,1.4748,1.5274,1.5325,1.489,1.4548,1.4693,1.5327,1.6054,1.6238,1.6233,1.7219,1.741,1.6153,1.6005,1.5827,1.5814,1.5814,1.5829,1.5814,1.5829,1.5919,1.6099,1.6443,1.6846,1.4446,1.4823,1.591,1.6337,1.6479,1.65,1.6513,1.65,1.6522,1.6522,1.6543,1.6523,1.6739,1.706,1.6135,1.5321,1.4893,1.5264,1.5133,1.4711,1.4995,1.5134,1.5134,1.558,1.5814,1.5814,1.5724,1.571,1.571,1.5922,1.552,1.4559,1.4408,1.4055,1.3549,1.3447,1.3396,1.3446,1.3739,1.3896,1.3938,1.4234,1.406,1.3594,1.418,1.4312,1.3909,1.4487,1.4988,1.5186,1.5077,1.5086,1.5167,1.5179,1.4819,1.4219,1.4121,1.357,1.254,1.2726,1.3039,1.3376,1.3684,1.4168,1.4741,1.4757,1.4715,1.4805,1.4404,1.4218,1.4213,1.409,1.4176,1.4195,1.415,1.421,1.4416,1.3965,1.3746,1.3798,1.3613,1.3421,1.3405,1.3396,1.343,1.3464,1.3447,1.3684,1.4327,1.4537,1.4919,1.5375,1.5656,1.5629,1.5568,1.5456,1.5795,1.6362,1.6679,1.6791,1.7176,1.7415,1.7014,1.6604,1.6108,1.5842,1.5828,1.5829,1.5844,1.5874,1.5948,1.6069,1.6592,1.6667,1.7115,1.5182,1.5354,1.6151,1.6513,1.6513,1.6513,1.6513,1.6531,1.6879,1.6993,1.7063,1.736,1.7626,1.782,1.7784,1.7385,1.676,1.6593,1.6297,1.5939,1.6065,1.592,1.5595,1.5741,1.5814,1.5814,1.5814,1.6013,1.639,1.6479,1.6336,1.5795,1.4943,1.4334,1.4074,1.3734,1.3516,1.3572,1.3899,1.4085,1.4116,1.4344,1.4347,1.4101,1.4487,1.4616,1.4445,1.4304,1.4514,1.5173,1.4689,1.4406,1.4467,1.4511,1.441,1.4199,1.4629,1.4704,1.4289,1.4311,1.4459,1.4574,1.4667,1.4805,1.5069,1.5015,1.4904,1.4845,1.4651,1.4505,1.4488,1.4488,1.4488,1.4482,1.4422,1.4405,1.4429,1.4188,1.4017,1.4011,1.3771,1.3501,1.3404,1.3396,1.3591,1.3996,1.4107,1.4445,1.5071,1.5561,1.596,1.6299,1.6705,1.7016,1.7016,1.657,1.6536,1.7084,1.7412,1.7277,1.7452,1.7158,1.6773,1.6554,1.608,1.5827,1.5814,1.5904,1.5934,1.6263,1.6308,1.6652,1.7219,1.7428,1.7938,1.5951,1.6197,1.6411,1.6513,1.6513,1.6513,1.6513,1.6552,1.7076,1.7312,1.7401,1.7867,1.8204,1.84,1.8741,1.8784,1.8433,1.7873,1.7394,1.7009,1.6801,1.6473,1.6114,1.5889,1.5856,1.5997,1.619,1.6554,1.6944,1.7025,1.6915,1.6614,1.5646,1.4964,1.4604,1.4185,1.3927,1.3806,1.4031,1.4195,1.4238,1.4452,1.4573,1.4581,1.4718,1.4826,1.4885,1.4482,1.4517,1.501,1.4635,1.4345,1.441,1.4484,1.4512,1.457,1.5078,1.5408,1.5409,1.5328,1.5257,1.521,1.5195,1.5195,1.5183,1.5038,1.4952,1.4875,1.4722,1.4567,1.4561,1.4528,1.4488,1.4488,1.4488,1.4488,1.4482,1.4314,1.4125,1.3962,1.3711,1.351,1.3464,1.3659,1.3971,1.4444,1.4673,1.5155,1.5876,1.635,1.6841,1.7061,1.7394,1.7614,1.758,1.7219,1.7033,1.7495,1.7665,1.7585,1.7368,1.6986,1.6683,1.6448,1.6177,1.5927,1.5859,1.5964,1.6278,1.6667,1.6965,1.7265,1.7788,1.8296,1.8672,1.6791,1.7195,1.676,1.6538,1.6522,1.6565,1.6543,1.6659,1.7167,1.7483,1.7585,1.7967,1.8516,1.8836,1.8983,1.9177,1.9373,1.8902,1.8308,1.7713,1.7101,1.6772,1.6653,1.6141,1.6038,1.6326,1.6935,1.7243,1.7268,1.7495,1.7371,1.6851,1.6662,1.5996,1.4891,1.4846,1.4517,1.4168,1.4208,1.422,1.4246,1.4536,1.4692,1.4708,1.489,1.4969,1.4902,1.5039,1.5129,1.5173,1.516,1.5207,1.5199,1.5266,1.5352,1.5293,1.5391,1.541,1.539,1.5346,1.5266,1.5204,1.5195,1.5195,1.5183,1.5075,1.4992,1.4946,1.4798,1.4692,1.4651,1.4573,1.4488,1.4488,1.4488,1.4488,1.4464,1.432,1.4045,1.3754,1.3626,1.3447,1.3574,1.4073,1.4571,1.4842,1.5257,1.5866,1.6536,1.6824,1.7077,1.7512,1.7732,1.7772,1.7789,1.7772,1.7755,1.7772,1.7755,1.7704,1.7392,1.7048,1.6825,1.6552,1.6094,1.5857,1.6144,1.6278,1.6697,1.7085,1.7428,1.7923,1.8446,1.8927,1.9091,1.7888,1.7388,1.7209,1.6873,1.6577,1.69,1.7034,1.7167,1.8007,1.84,1.8496,1.8968,1.9299,1.9424,1.9442,1.9548,1.966,1.9453,1.9016,1.8408,1.7942,1.7517,1.7131,1.668,1.6557,1.6712,1.7089,1.7292,1.738,1.763,1.7659,1.7455,1.7134,1.6782,1.6314,1.5643,1.5092,1.4922,1.458,1.4433,1.4541,1.4642,1.4723,1.4836,1.4942,1.4977,1.4996,1.5117,1.5192,1.5195,1.5242,1.5303,1.534,1.5367,1.541,1.541,1.5407,1.5406,1.5386,1.5342,1.5278,1.5218,1.5195,1.5195,1.5186,1.5085,1.4988,1.4933,1.478,1.4653,1.4571,1.4528,1.4548,1.4506,1.4488,1.4488,1.4488,1.4441,1.4232,1.3952,1.4208,1.4371,1.4339,1.4791,1.5392,1.5832,1.618,1.6621,1.7219,1.7371,1.7473,1.7766,1.78,1.7789,1.7789,1.7789,1.7789,1.7789,1.7789,1.7766,1.7467,1.7138,1.6914,1.6696,1.6202,1.6142,1.6413,1.6757,1.7205,1.7728,1.8222,1.8732,1.9211,1.942,1.948,1.8631,1.7989,1.7561,1.7318,1.7132,1.7285,1.7415,1.7706,1.8516,1.8893,1.8987,1.9442,1.9723,1.9723,1.9723,1.98,1.9927,1.9927,1.9789,1.9464,1.8885,1.8501,1.8195,1.7642,1.7216,1.7072,1.7337,1.7474,1.7486,1.7692,1.7839,1.7879,1.7652,1.7443,1.7302,1.6642,1.6186,1.5901,1.5306,1.5015,1.5049,1.4896,1.4813,1.4925,1.5033,1.5075,1.5085,1.5168,1.5195,1.5212,1.5265,1.5326,1.5392,1.541,1.541,1.541,1.5404,1.5376,1.5353,1.5315,1.5272,1.5212,1.5195,1.5195,1.5186,1.5101,1.504,1.4937,1.4831,1.4722,1.4616,1.4835,1.4921,1.4934,1.4677,1.4524,1.4488,1.4441,1.4432,1.4374,1.4658,1.4847,1.5047,1.5544,1.613,1.6631,1.6942,1.7179,1.7676,1.7755,1.78,1.78,1.78,1.7789,1.7789,1.7789,1.7789,1.7789,1.7789,1.7755,1.7589,1.7228,1.6959,1.6955,1.6637,1.6955,1.7225,1.7491,1.7893,1.8446,1.8897,1.9241,1.9555,1.9603,1.9648,1.9045,1.8919,1.7947,1.7814,1.8112,1.7695,1.7747,1.8171,1.8746,1.8987,1.9099,1.9479,1.9744,1.9729,1.98,2.0015,2.0296,2.0364,2.0567,2.0575,2.0083,1.964,1.9552,1.8851,1.8161,1.7611,1.7815,1.7873,1.7816,1.7894,1.7971,1.8191,1.8213,1.8092,1.784,1.774,1.7358,1.6874,1.6182,1.5875,1.5956,1.5489,1.5199,1.5285,1.5357,1.5353,1.5376,1.5278,1.521,1.5207,1.527,1.5329,1.5396,1.5409,1.541,1.541,1.5402,1.5354,1.5306,1.5287,1.526,1.5201,1.5195,1.5195,1.5189,1.5149,1.5082,1.4992,1.5001,1.4949,1.4969,1.5372,1.5698,1.5674,1.5282,1.4909,1.4683,1.458,1.4776,1.5011,1.5025,1.5105,1.5651,1.6299,1.6705,1.6925,1.7354,1.7631,1.7749,1.7789,1.7789,1.7789,1.7789,1.7789,1.7789,1.8172,1.8189,1.8273,1.8262,1.8283,1.8052,1.7666,1.734,1.7307,1.7302,1.765,1.795,1.8152,1.8448,1.8867,1.9258,1.9603,1.9723,1.9723,1.9872,1.9634,1.9647,1.8897,1.8702,1.8817,1.8573,1.8535,1.8746,1.9244,1.946,1.953,1.9636,1.9859,2.0124,2.0141,2.0382,2.0731,2.0813,2.1039,2.1351,2.1205,2.0572,2.011,1.9738,1.9181,1.8603,1.8734,1.8616,1.8138,1.8322,1.8445,1.8489,1.866,1.8735,1.8632,1.8224,1.7958,1.7725,1.7133,1.683,1.6915,1.6876,1.6919,1.6931,1.6436,1.6195,1.6089,1.5556,1.5259,1.528,1.5281,1.5341,1.5388,1.541,1.541,1.5402,1.5345,1.5314,1.5288,1.5246,1.5218,1.5198,1.5195,1.5195,1.5189,1.5121,1.5026,1.5031,1.5301,1.5599,1.5586,1.6121,1.6523,1.656,1.6401,1.623,1.6106,1.6055,1.5949,1.5967,1.6194,1.6345,1.654,1.6948,1.7411,1.749,1.7614,1.7789,1.7789,1.7789,1.7789,1.7789,1.7789,1.7789,1.7935,1.8374,1.8657,1.8792,1.8954,1.9205,1.8897,1.8483,1.8201,1.8022,1.7908,1.8126,1.8365,1.8568,1.8942,1.9273,1.9468,1.9723,1.9723,1.9738,2.0064,2.0097,1.9885,1.952,1.9377,1.931,1.9037,1.9024,1.9262,1.9548,1.9723,1.9729,1.9892,2.0072,2.0297,2.05,2.083,2.1213,2.1244,2.1492,2.1855,2.1868,2.1379,2.0719,2.0487,2.0157,1.9646,1.974,1.9434,1.9003,1.9051,1.8988,1.8824,1.8905,1.9043,1.9079,1.8828,1.8643,1.8592,1.8068,1.7757,1.7933,1.7693,1.7608,1.7605,1.7218,1.7016,1.693,1.6251,1.5674,1.5425,1.533,1.5354,1.5391,1.541,1.541,1.5395,1.5334,1.5282,1.5274,1.5223,1.5198,1.5195,1.5195,1.5404,1.5619,1.5611,1.552,1.5993,1.6234,1.6311,1.6367,1.6933,1.7495,1.7851,1.7906,1.7631,1.703,1.6721,1.6725,1.6814,1.6992,1.7191,1.7158,1.7557,1.7715,1.7772,1.7732,1.7789,1.7789,1.7789,1.7839,1.7901,1.8003,1.8087,1.8324,1.8775,1.9272,1.9436,1.9495,1.9804,1.9446,1.9066,1.8792,1.8559,1.851,1.8583,1.8837,1.9061,1.9271,1.9543,1.9678,1.9738,1.9768,2.0112,2.0408,2.0437,1.9966,1.9932,1.9859,1.9732,1.9243,1.9262,1.9621,1.9764,1.98,1.9889,2.021,2.0449,2.0466,2.091,2.1291,2.1673,2.1673,2.1899,2.2152,2.2203,2.1901,2.1466,2.1394,2.1079,2.0679,2.064,2.0413,2.0045,1.9929,1.964,1.9326,1.9152,1.9125,1.9243,1.9265,1.9405,1.9364,1.8921,1.8709,1.8778,1.847,1.8287,1.8262,1.7995,1.7763,1.7558,1.7027,1.6376,1.5655,1.5482,1.5402,1.541,1.541,1.5391,1.5391,1.5324,1.5283,1.5276,1.5226,1.5308,1.5404,1.5426,1.5705,1.6326,1.6403,1.6502,1.6901,1.7184,1.72,1.7371,1.7869,1.8408,1.8867,1.9132,1.8537,1.7568,1.7126,1.7223,1.7462,1.7532,1.7609,1.7697,1.7789,1.7789,1.7789,1.7789,1.7789,1.7918,1.8053,1.8087,1.8104,1.8256,1.8442,1.878,1.9198,1.9732,2.0112,2.0101,2.0127,1.9693,1.9374,1.9177,1.9023,1.9024,1.9151,1.9408,1.9603,1.9648,1.975,1.9887,1.9869,1.9914,2.0528,2.0961,2.0516,2.1219,2.0174,2.0047,2.0326,1.9827,1.9603,1.9729,2.0052,2.0176,2.0263,2.0649,2.0991,2.129,2.1414,2.172,2.2077,2.2106,2.2223,2.2268,2.2313,2.2371,2.2315,2.2341,2.2012,2.1656,2.1881,2.1693,2.1147,2.0671,2.0294,2.0101,1.9553,1.9261,1.9305,1.9464,1.9548,1.9599,1.9569,1.9615,1.9683,1.9658,1.9558,1.9534,1.9072,1.8443,1.7924,1.7677,1.7512,1.7109,1.6215,1.5638,1.5605,1.5563,1.555,1.5526,1.5446,1.5351,1.527,1.5399,1.5522,1.6157,1.6221,1.6525,1.7159,1.7155,1.71,1.7277,1.7583,1.8091,1.8526,1.8867,1.9077,1.9242,1.9279,1.9168,1.8826,1.8593,1.8409,1.8278,1.8103,1.7956,1.7822,1.78,1.7789,1.7789,1.7822,1.7805,1.8053,1.8352,1.8527,1.8662,1.8899,1.9186,1.9655,1.9997,2.0368,2.0539,2.0484,2.0289,1.9874,1.9695,1.9497,1.9504,1.9561,1.9693,1.9723,1.9708,1.9693,1.9872,2.0109,2.0288,2.0557,2.1096,2.1515,2.043,2.0696,2.0311,2.018,2.0198,2.0076,1.9982,2.007,2.0448,2.0633,2.0747,2.1102,2.1399,2.1597,2.184,2.2092,2.2254,2.2296,2.2374,2.245,2.25,2.2669,2.2952,2.3076,2.2929,2.265,2.2891,2.2697,2.2181,2.177,2.1292,2.0521,2.0034,1.9729,1.9472,1.9555,1.9663,1.9803,1.9927,2.0055,2.0152,2.0237,2.0304,2.0275,1.9889,1.941,1.9154,1.8697,1.8561,1.8223,1.7344,1.6621,1.6602,1.6594,1.6553,1.652,1.6486,1.6444,1.6409,1.6407,1.6603,1.7003,1.6997,1.7439,1.7814,1.7919,1.8009,1.8229,1.8548,1.8875,1.9224,1.9279,1.9279,1.9279,1.9279,1.9279,1.9266,1.9117,1.8887,1.8641,1.8328,1.8069,1.7905,1.7867,1.785,1.7867,1.8408,1.8442,1.8628,1.8932,1.927,1.9473,1.9714,2.0065,2.0551,2.0878,2.1056,2.0974,2.0639,2.0342,1.9892,1.985,1.9866,1.9785,1.9693,1.9708,1.9723,1.9723,1.9902,2.0228,2.0528,2.0793,2.1196,2.1739,2.2119,2.0278,1.9888,2.0364,2.025,1.9899,2.0141,2.0331,2.0483,2.091,2.1086,2.1182,2.1521,2.1735,2.1809,2.2092,2.2279,2.2374,2.2497,2.263,2.2764,2.2789,2.3002,2.3277,2.3471,2.3642,2.3746,2.3715,2.3474,2.3225,2.2988,2.2162,2.108,2.0578,2.0303,1.989,1.9694,1.9774,1.9934,2.0046,2.0124,2.0253,2.0304,2.0311,2.0296,2.0301,2.0247,2.0084,1.975,1.9434,1.9453,1.8789,1.8477,1.832,1.7996,1.7986,1.7907,1.7684,1.7467,1.7404,1.7523,1.7596,1.7794,1.7811,1.8107,1.8615,1.8734,1.884,1.9094,1.9313,1.9187,1.9279,1.9279,1.9279,1.9279,1.9279,1.9279,1.9259,1.9117,1.8896,1.8725,1.8499,1.8239,1.8089,1.8036,1.7986,1.8087,1.8657,1.9096,1.927,1.9592,1.9997,2.0386,2.064,2.0893,2.1346,2.1012,2.1279,2.11,2.0747,2.0328,1.9925,1.9854,1.9818,1.978,1.9708,1.9753,1.9857,1.9959,2.0213,2.0617,2.1111,2.1545,2.1979,2.2433,2.2673,2.0122,2.048,2.0057,1.9965,2.0193,2.0297,2.055,2.0926,2.1322,2.1491,2.1568,2.1974,2.2152,2.2209,2.2223,2.2426,2.2656,2.2827,2.3026,2.3088,2.3129,2.33,2.3588,2.3703,2.3847,2.4046,2.4113,2.4024,2.3785,2.3345,2.2886,2.2343,2.1451,2.0811,2.0518,2.0199,2.0003,2.0046,2.0156,2.0249,2.0269,2.0318,2.0347,2.037,2.0425,2.0472,2.0509,2.0445,2.039,2.0371,2.0254,2.0137,1.9746,1.8725,1.8366,1.8472,1.8241,1.8062,1.801,1.7853,1.8095,1.8435,1.8661,1.8907,1.932,1.9445,1.9348,1.9283,1.9342,1.9279,1.9279,1.9279,1.9279,1.9279,1.937,1.937,1.935,1.9307,1.9218,1.9201,1.8864,1.8545,1.857,1.8591,1.868,1.8915,1.9435,1.9756,1.9913,2.0365,2.0903,2.1262,2.16,2.1823,2.2124,2.1446,2.1149,2.0959,2.0632,2.0225,1.9907,1.978,1.9723,1.9902,1.9917,1.9917,2.0034,2.0288,2.0647,2.1111,2.1695,2.2313,2.2628,2.2927,2.3146,2.0013,2.0439,2.0122,2.0261,2.0666,2.0878,2.1102,2.1353,2.1764,2.1957,2.2032,2.2194,2.2313,2.2352,2.2463,2.2678,2.2947,2.3105,2.33,2.3403,2.3488,2.3639,2.3917,2.3947,2.4036,2.419,2.4284,2.4284,2.4182,2.397,2.3544,2.3066,2.2413,2.1862,2.118,2.0826,2.048,2.0324,2.0264,2.03,2.0311,2.033,2.0374,2.044,2.0481,2.0513,2.0562,2.0585,2.0586,2.0586,2.0586,2.0566,2.0262,1.9844,1.929,1.9425,1.9178,1.9004,1.9023,1.9061,1.9289,1.9471,1.9485,1.9504,1.96,1.9593,1.949,1.9354,1.9279,1.9279,1.9279,1.9297,1.9279,1.937,1.9649,1.9905,1.9941,2.0064,2.0084,1.9956,1.9495,1.9274,1.9326,1.9365,1.9452,1.9778,2.02,2.0437,2.0589,2.1059,2.1613,2.1769,2.1992,2.2006,2.2178,2.1779,2.1166,2.0894,2.0724,2.0314,2.0152,2.0147,2.019,2.0318,2.0273,2.0393,2.0722,2.1141,2.138,2.1605,2.2143,2.2688,2.3077,2.337,2.352,2.0052,2.0434,2.0449,2.0699,2.1134,2.1445,2.1643,2.1794,2.2137,2.2282,2.2313,2.2327,2.2352,2.248,2.2773,2.3069,2.3311,2.3369,2.3588,2.3753,2.3806,2.3966,2.4132,2.4209,2.4228,2.4312,2.4401,2.4419,2.4367,2.4395,2.415,2.3772,2.3637,2.3076,2.2092,2.1482,2.1057,2.0687,2.0338,2.0295,2.0349,2.0383,2.0464,2.0512,2.0515,2.0541,2.0605,2.0605,2.0605,2.0605,2.0586,2.0541,2.0498,2.042,2.0374,2.0376,2.0324,2.0312,2.025,2.0173,2.0027,2.0027,1.9925,1.9828,1.9682,1.9504,1.9301,1.9279,1.9279,1.9279,1.9315,1.9455,1.9546,1.9756,2.0264,2.0736,2.0723,2.0835,2.1063,2.0766,2.0173,1.9952,1.9981,2.0179,2.0259,2.0471,2.0923,2.1248,2.1434,2.1705,2.209,2.2144,2.22,2.207,2.2077,2.2017,2.1446,2.0991,2.0933,2.076,2.0676,2.0669,2.0802,2.1051,2.1231,2.141,2.171,2.1874,2.2029,2.2269,2.2658,2.2981,2.331,2.346,2.355,2.05,2.091,2.0926,2.115,2.1522,2.1613,2.1838,2.2194,2.2268,2.2313,2.231,2.2338,2.2467,2.2829,2.3306,2.3555,2.3703,2.3876,2.3996,2.4074,2.4094,2.4113,2.4208,2.4199,2.4321,2.4436,2.4503,2.4486,2.4518,2.4666,2.473,2.4471,2.4062,2.3614,2.3201,2.2302,2.1468,2.1247,2.0685,2.0422,2.0519,2.0537,2.0535,2.0564,2.0566,2.0586,2.0605,2.0605,2.0605,2.0586,2.054,2.0511,2.0477,2.0368,2.0319,2.0301,2.0301,2.0288,2.0288,2.0288,2.0229,2.0111,1.9983,1.9847,1.9638,1.9452,1.9297,1.9279,1.9334,1.9499,1.9719,2.0034,2.0254,2.0639,2.1116,2.137,2.1415,2.1614,2.1841,2.1748,2.1214,2.0795,2.0597,2.0845,2.1089,2.1343,2.1583,2.1904,2.211,2.2245,2.2313,2.2313,2.2313,2.2194,2.2034,2.1959,2.1794,2.1231,2.1124,2.1155,2.1225,2.1315,2.1774,2.2014,2.2158,2.2173,2.2218,2.2358,2.2568,2.2808,2.3077,2.3295,2.352,2.3595,2.361,2.1149,2.1337,2.1337,2.1598,2.1988,2.2003,2.2106,2.2268,2.2313,2.2313,2.2335,2.2477,2.2811,2.3271,2.3628,2.3795,2.3986,2.4141,2.4208,2.4199,2.4199,2.4199,2.4228,2.4321,2.4435,2.4534,2.4678,2.4804,2.4811,2.4838,2.4917,2.4886,2.4696,2.4382,2.4084,2.3347,2.2782,2.2242,2.1597,2.1218,2.1111,2.0832,2.0586,2.0605,2.0605,2.0605,2.0605,2.0605,2.0586,2.0544,2.0539,2.0485,2.042,2.0354,2.0332,2.029,2.03,2.0292,2.0288,2.0304,2.0188,2.0036,1.9933,1.9743,1.9483,1.9405,1.9565,1.995,1.9968,2.0152,2.0546,2.1015,2.1143,2.1473,2.1987,2.2173,2.2287,2.2389,2.2531,2.2417,2.2243,2.1711,2.1332,2.1479,2.1664,2.1786,2.1921,2.2076,2.2212,2.2262,2.2313,2.2313,2.2313,2.2282,2.2092,2.1976,2.212,2.173,2.1371,2.1476,2.1731,2.2009,2.238,2.2718,2.2832,2.2802,2.2712,2.2847,2.3086,2.3251,2.3415,2.352,2.3595,2.364,2.3699,2.1642,2.1764,2.1779,2.1972,2.2296,2.2313,2.2313,2.2313,2.2313,2.2335,2.249,2.2776,2.3265,2.3639,2.3795,2.3958,2.418,2.4199,2.4199,2.4199,2.4209,2.4219,2.4294,2.4426,2.4543,2.4628,2.4826,2.4986,2.5059,2.5082,2.5082,2.5082,2.5126,2.4933,2.4514,2.4043,2.357,2.2836,2.2374,2.2012,2.173,2.1248,2.0879,2.0684,2.0605,2.0605,2.0605,2.0586,2.0547,2.0536,2.0483,2.0409,2.0327,2.0343,2.0344,2.03,2.0292,2.0418,2.0436,2.0395,2.0201,2.0017,1.9881,1.9737,1.9756,1.962,1.995,2.0758,2.0813,2.1188,2.1629,2.1886,2.2079,2.2336,2.2813,2.3024,2.3139,2.3009,2.2899,2.2764,2.2593,2.239,2.2136,2.2194,2.2243,2.2262,2.2313,2.2313,2.2313,2.2313,2.2347,2.2347,2.2347,2.2377,2.2345,2.2228,2.2292,2.2247,2.189,2.1861,2.2174,2.2501,2.2864,2.3131,2.334,2.3325,2.3161,2.3385,2.3595,2.355,2.352,2.355,2.361,2.3714,2.4118,2.1853,2.2268,2.2254,2.2268,2.2313,2.2313,2.2313,2.231,2.231,2.2494,2.2802,2.3288,2.3588,2.3785,2.3996,2.4123,2.4199,2.4199,2.4199,2.4199,2.4218,2.4303,2.4418,2.4543,2.467,2.4872,2.5022,2.5116,2.5219,2.5224,2.5259,2.5298,2.5279,2.5264,2.5004,2.4583,2.4119,2.352,2.3127,2.2689,2.2285,2.1855,2.1484,2.0879,2.0684,2.0605,2.0625,2.0678,2.0685,2.0677,2.0651,2.0713,2.0762,2.0845,2.0874,2.0762,2.0712,2.0896,2.1034,2.0623,2.017,1.9971,1.9956,2.0103,2.0396,2.0419,2.0868,2.1555,2.1675,2.1812,2.2116,2.2391,2.2841,2.3088,2.3372,2.3496,2.3495,2.3246,2.3147,2.3064,2.2832,2.2508,2.2402,2.2335,2.231,2.2313,2.2313,2.2313,2.2313,2.2313,2.2381,2.2398,2.2415,2.2475,2.2614,2.2606,2.2604,2.2641,2.2468,2.2507,2.2697,2.3023,2.3236,2.3355,2.3505,2.3565,2.3595,2.3595,2.3595,2.3595,2.361,2.367,2.4059,2.4418,2.5001,2.2152,2.2313,2.2313,2.2313,2.2313,2.2313,2.2313,2.2352,2.2477,2.2857,2.3323,2.3588,2.3816,2.3996,2.4094,2.4199,2.4199,2.4199,2.4199,2.4247,2.4312,2.4409,2.4543,2.4715,2.4891,2.501,2.5105,2.5184,2.5274,2.5308,2.5308,2.5308,2.5303,2.5288,2.5133,2.5071,2.4802,2.4542,2.4141,2.3672,2.3477,2.2852,2.2461,2.2207,2.1543,2.1445,2.1406,2.1328,2.1278,2.1264,2.1318,2.1469,2.1675,2.1925,2.1927,2.1712,2.165,2.1785,2.1746,2.1284,2.0918,2.1164,2.1098,2.1041,2.1253,2.129,2.173,2.2226,2.2556,2.263,2.33,2.3547,2.3768,2.3823,2.3857,2.3903,2.3685,2.3362,2.3141,2.2965,2.2669,2.236,2.2349,2.2349,2.2324,2.2313,2.2313,2.233,2.2415,2.2598,2.2767,2.2919,2.297,2.2991,2.3129,2.3058,2.2941,2.2952,2.2969,2.3025,2.3083,2.3272,2.349,2.358,2.3625,2.367,2.367,2.361,2.364,2.3744,2.3774,2.3804,2.4306,2.5053,2.5719,2.2313,2.2313,2.2313,2.2313,2.2313,2.2313,2.2363,2.245,2.2612,2.3069,2.3692,2.3795,2.3966,2.4161,2.4199,2.4199,2.4228,2.4257,2.4284,2.4366,2.4486,2.4599,2.4723,2.4858,2.5004,2.5099,2.5203,2.5308,2.5308,2.5308,2.5322,2.5321,2.5326,2.5335,2.5363,2.5462,2.5559,2.5436,2.5156,2.457,2.4336,2.3848,2.3223,2.3047,2.2461,2.2285,2.2227,2.218,2.2121,2.211,2.2198,2.2442,2.2773,2.3062,2.312,2.2938,2.2767,2.2751,2.2584,2.2054,2.1624,2.1696,2.1717,2.182,2.2088,2.2171,2.252,2.3217,2.3382,2.3602,2.4199,2.4116,2.4085,2.4037,2.3858,2.3827,2.3468,2.3147,2.2979,2.2784,2.2544,2.2412,2.2917,2.2965,2.2764,2.275,2.275,2.2818,2.2902,2.3122,2.3458,2.3611,2.3714,2.3747,2.3783,2.3635,2.3483,2.3251,2.3287,2.3309,2.3422,2.355,2.3595,2.3595,2.364,2.3729,2.3924,2.4148,2.4073,2.3954,2.4178,2.4522,2.5136,2.5899,2.6273,2.2313,2.2313,2.231,2.2324,2.2338,2.231,2.245,2.2647,2.2759,2.3141,2.3735,2.4016,2.4151,2.4199,2.4199,2.4218,2.4275,2.4401,2.4478,2.4545,2.4682,2.4824,2.4924,2.5022,2.5116,2.5264,2.5308,2.5308,2.5308,2.5317,2.5348,2.5376,2.5402,2.5427,2.542,2.5535,2.5632,2.5684,2.5605,2.5137,2.4707,2.4453,2.4043,2.3633,2.3223,2.3086,2.305,2.2985,2.2928,2.2904,2.3033,2.317,2.3244,2.3235,2.3235,2.3135,2.2876,2.2996,2.3344,2.2514,2.2229,2.2219,2.2381,2.2455,2.2822,2.3043,2.3199,2.3823,2.3988,2.4043,2.4199,2.4198,2.421,2.419,2.4018,2.3923,2.362,2.3751,2.3741,2.3411,2.2859,2.2615,2.3325,2.3712,2.3391,2.3241,2.3207,2.3291,2.3458,2.3661,2.4,2.4338,2.4477,2.4381,2.4368,2.4193,2.4014,2.3763,2.3541,2.3526,2.352,2.3565,2.3595,2.3625,2.3864,2.4118,2.4477,2.4807,2.4837,2.4941,2.5226,2.5615,2.6183,2.6602,2.6926,2.2313,2.2324,2.2487,2.2577,2.256,2.256,2.2608,2.2772,2.3165,2.3628,2.3986,2.417,2.4199,2.4199,2.4228,2.4275,2.4401,2.4426,2.4537,2.4723,2.4864,2.493,2.5022,2.5141,2.5219,2.5274,2.5308,2.5308,2.5308,2.533,2.5367,2.539,2.5476,2.5535,2.5543,2.5598,2.5653,2.5684,2.5664,2.5547,2.5293,2.5215,2.5059,2.4668,2.4175,2.391,2.3892,2.3801,2.3744,2.3767,2.3934,2.4259,2.4293,2.4293,2.4351,2.4385,2.4311,2.4335,2.4351,2.3838,2.3483,2.3355,2.3281,2.3345,2.3768,2.3786,2.3988,2.4098,2.4199,2.4199,2.4199,2.4208,2.4248,2.4327,2.4302,2.4409,2.4385,2.4888,2.5042,2.441,2.3829,2.3714,2.4135,2.4558,2.4357,2.4222,2.4222,2.4118,2.4186,2.4254,2.4491,2.4966,2.5175,2.5059,2.493,2.4724,2.4256,2.3829,2.3636,2.3565,2.358,2.3714,2.3984,2.4223,2.4388,2.4567,2.5151,2.5659,2.5884,2.6078,2.6198,2.6258,2.6527,2.6956,2.733,2.2436,2.2463,2.2751,2.2873,2.2873,2.2873,2.2935,2.3112,2.3621,2.4006,2.4152,2.419,2.4199,2.4218,2.4284,2.4358,2.452,2.4651,2.47,2.4884,2.5036,2.5094,2.5163,2.5219,2.5269,2.5308,2.5293,2.5298,2.5348,2.5368,2.5421,2.5501,2.5587,2.5627,2.5633,2.5637,2.5664,2.5703,2.5684,2.5684,2.5625,2.5625,2.5644,2.5426,2.5103,2.473,2.4687,2.4596,2.4536,2.467,2.4931,2.5308,2.5308,2.5308,2.5308,2.5308,2.5149,2.4955,2.4554,2.4355,2.4016,2.4034,2.4199,2.4199,2.4199,2.4107,2.4126,2.4199,2.4254,2.4456,2.4585,2.4575,2.4584,2.4693,2.4801,2.4918,2.5582,2.609,2.5328,2.4766,2.4642,2.4677,2.4897,2.5235,2.5405,2.5337,2.5286,2.5117,2.4965,2.5066,2.5168,2.5558,2.5831,2.5695,2.5451,2.518,2.4666,2.3981,2.3797,2.3699,2.3962,2.4156,2.4507,2.4829,2.4971,2.53,2.6048,2.6537,2.6686,2.6806,2.6911,2.6941,2.6956,2.721,2.757,2.2721,2.2772,2.3081,2.3212,2.3212,2.3265,2.3432,2.3714,2.4026,2.418,2.4199,2.4199,2.4199,2.4247,2.4401,2.4503,2.4591,2.485,2.4955,2.5053,2.5187,2.5248,2.5264,2.5284,2.5308,2.5293,2.5317,2.5337,2.5398,2.5434,2.5503,2.557,2.5638,2.5684,2.5684,2.5684,2.5703,2.5703,2.5703,2.5703,2.5703,2.5703,2.566,2.5552,2.5414,2.5288,2.5226,2.5201,2.5192,2.522,2.5274,2.5308,2.5308,2.5308,2.5308,2.5198,2.4975,2.4654,2.4466,2.433,2.454,2.4623,2.4438,2.4309,2.4254,2.4346,2.4511,2.4566,2.4667,2.5026,2.5283,2.5228,2.5199,2.5292,2.5385,2.5901,2.6729,2.6521,2.5411,2.4927,2.4929,2.5083,2.5592,2.5964,2.6048,2.6099,2.5998,2.5896,2.5828,2.6031,2.6116,2.6184,2.6354,2.6301,2.5997,2.5427,2.4736,2.397,2.3986,2.3947,2.4276,2.4619,2.4941,2.5264,2.5525,2.5989,2.6662,2.7121,2.7375,2.745,2.7345,2.7345,2.727,2.7345,2.763,2.3057,2.3093,2.3414,2.3544,2.3606,2.3806,2.3958,2.4074,2.4189,2.4199,2.4199,2.4199,2.4218,2.4218,2.441,2.4575,2.473,2.491,2.5071,2.5198,2.5264,2.5284,2.5308,2.5308,2.5308,2.5322,2.5352,2.5376,2.5425,2.5465,2.5566,2.5661,2.5684,2.5703,2.5703,2.5703,2.5703,2.5703,2.5703,2.5684,2.5684,2.5664,2.5629,2.5591,2.5517,2.5431,2.5413,2.535,2.5307,2.5303,2.5308,2.5308,2.5308,2.5284,2.5249,2.5046,2.4802,2.4566,2.4558,2.4377,2.4623,2.5369,2.5331,2.4677,2.4566,2.4713,2.5044,2.5144,2.5383,2.5805,2.6059,2.6077,2.6095,2.6201,2.6236,2.651,2.7154,2.6822,2.58,2.5708,2.5675,2.576,2.6251,2.6336,2.642,2.6607,2.664,2.6505,2.6454,2.659,2.6657,2.6691,2.6624,2.6453,2.587,2.5291,2.4648,2.4063,2.4195,2.4373,2.4664,2.5031,2.5383,2.5818,2.6273,2.6737,2.7255,2.7525,2.7585,2.7615,2.7525,2.7555,2.76,2.772,2.7869,2.3392,2.3437,2.3764,2.3896,2.3945,2.4113,2.4199,2.4199,2.4199,2.4199,2.4209,2.4284,2.433,2.4356,2.4588,2.478,2.4872,2.5066,2.5203,2.5234,2.5308,2.5308,2.5308,2.5293,2.5331,2.5352,2.5395,2.5441,2.5534,2.5587,2.5664,2.5684,2.5703,2.5723,2.5703,2.5703,2.5703,2.5703,2.5684,2.5684,2.564,2.5608,2.5591,2.5524,2.5428,2.5406,2.5367,2.5317,2.5298,2.5308,2.5308,2.5308,2.5274,2.5224,2.5107,2.4898,2.4689,2.4524,2.4496,2.4708,2.5435,2.6108,2.6197,2.576,2.5548,2.5658,2.5805,2.5933,2.6319,2.6657,2.6834,2.6976,2.7079,2.7192,2.7112,2.7028,2.7028,2.6977,2.6787,2.6657,2.6607,2.6573,2.6674,2.6708,2.6708,2.6708,2.6708,2.6657,2.659,2.664,2.6691,2.6691,2.6624,2.647,2.5885,2.5442,2.508,2.4787,2.4859,2.5032,2.5219,2.554,2.6012,2.6596,2.721,2.745,2.751,2.754,2.76,2.766,2.7854,2.8008,2.8109,2.8139,2.8334,2.3753,2.3764,2.4074,2.417,2.419,2.419,2.4199,2.4199,2.4237,2.4246,2.4284,2.4428,2.4495,2.4567,2.4797,2.4917,2.5036,2.5176,2.5259,2.5308,2.5308,2.5308,2.5308,2.5293,2.533,2.5368,2.5463,2.5607,2.5771,2.5957,2.6055,2.5879,2.6094,2.6269,2.6348,2.6328,2.6387,2.6406,2.6269,2.6147,2.5705,2.557,2.5516,2.5428,2.5387,2.5352,2.5312,2.5308,2.5308,2.5308,2.5308,2.5308,2.5203,2.5096,2.493,2.4952,2.4841,2.4532,2.4671,2.5007,2.6005,2.6585,2.6749,2.6788,2.6796,2.6631,2.6686,2.6814,2.7145,2.7412,2.7593,2.7555,2.7589,2.7482,2.7323,2.7113,2.6873,2.6837,2.6791,2.6708,2.6708,2.6708,2.6708,2.6708,2.6708,2.6708,2.6708,2.6708,2.6843,2.6843,2.686,2.6843,2.6691,2.6571,2.619,2.5826,2.5737,2.5589,2.5584,2.573,2.5937,2.6297,2.6711,2.7106,2.748,2.7525,2.7585,2.76,2.7705,2.7944,2.8143,2.8502,2.8637,2.8727,2.8966,2.4084,2.4084,2.417,2.4199,2.4199,2.4199,2.4199,2.4209,2.4366,2.4445,2.4454,2.4495,2.461,2.4756,2.4924,2.5028,2.5057,2.5208,2.5279,2.5308,2.5308,2.5308,2.5293,2.5308,2.5357,2.5398,2.5543,2.5937,2.6406,2.668,2.7051,2.7539,2.75,2.7402,2.7402,2.7422,2.7383,2.7274,2.7242,2.6675,2.5941,2.5583,2.5418,2.5437,2.5459,2.5538,2.55,2.5423,2.5365,2.5308,2.5308,2.5219,2.5082,2.4961,2.5107,2.5336,2.5319,2.4947,2.4951,2.5638,2.6812,2.7627,2.7974,2.8066,2.8007,2.7714,2.7603,2.7732,2.7889,2.8122,2.8197,2.809,2.7924,2.7699,2.7441,2.7095,2.6738,2.6723,2.6708,2.6708,2.6708,2.6708,2.6708,2.6708,2.6708,2.6708,2.6708,2.6793,2.7114,2.7232,2.7283,2.7215,2.6877,2.6653,2.6379,2.6334,2.6309,2.618,2.6086,2.6327,2.6626,2.6896,2.7151,2.7345,2.7585,2.7585,2.76,2.763,2.7779,2.8124,2.8622,2.9056,2.946,2.9624,2.9879,2.4199,2.4199,2.4199,2.4199,2.4218,2.4275,2.4339,2.4375,2.4534,2.4666,2.4715,2.4718,2.4788,2.4929,2.5059,2.5116,2.5127,2.5229,2.5284,2.5308,2.5298,2.5308,2.5303,2.535,2.5395,2.5473,2.6018,2.6543,2.709,2.748,2.791,2.832,2.8359,2.8379,2.8359,2.8299,2.831,2.8154,2.8234,2.7603,2.6644,2.6544,2.6508,2.6509,2.6453,2.6409,2.6467,2.6447,2.6467,2.6411,2.645,2.6349,2.6231,2.6012,2.5993,2.6098,2.604,2.5729,2.5782,2.6444,2.7695,2.8353,2.8688,2.8613,2.8638,2.8374,2.8356,2.8455,2.8473,2.8692,2.8334,2.8133,2.7812,2.7527,2.7194,2.6856,2.6724,2.6724,2.6708,2.6708,2.6708,2.6708,2.6708,2.6708,2.681,2.7283,2.7198,2.7486,2.7706,2.7858,2.7841,2.7788,2.7601,2.7191,2.6891,2.6925,2.7011,2.6834,2.6596,2.6881,2.7151,2.736,2.7585,2.76,2.76,2.7585,2.76,2.7839,2.8064,2.8382,2.9011,2.9654,3.0058,3.0447,3.0642,2.4199,2.4199,2.4199,2.4218,2.4257,2.4428,2.4512,2.4567,2.4753,2.4903,2.4974,2.5004,2.5053,2.5099,2.5208,2.5264,2.5308,2.5284,2.5308,2.5298,2.5322,2.5345,2.5427,2.5538,2.5864,2.6182,2.6608,2.7129,2.7656,2.8144,2.8535,2.8574,2.8613,2.8652,2.8591,2.8601,2.8754,2.8788,2.8764,2.8516,2.8251,2.8064,2.7793,2.7792,2.789,2.789,2.7876,2.7857,2.7838,2.7704,2.7437,2.7256,2.7082,2.6798,2.6868,2.6877,2.6837,2.6809,2.7001,2.7541,2.8294,2.8765,2.8929,2.8998,2.8987,2.8987,2.895,2.8874,2.891,2.8725,2.8373,2.8002,2.7648,2.7321,2.6971,2.6758,2.6742,2.6725,2.6742,2.6742,2.6759,2.6759,2.6894,2.6877,2.7215,2.7705,2.8094,2.845,2.8704,2.8768,2.8799,2.8822,2.8743,2.8257,2.7607,2.732,2.7382,2.7277,2.7091,2.739,2.7585,2.7585,2.76,2.763,2.763,2.7839,2.8094,2.8378,2.8562,2.8876,2.943,3.0118,3.0612,3.0943,3.1227,2.4199,2.4199,2.4199,2.4284,2.4426,2.4476,2.4583,2.4741,2.4904,2.4986,2.5059,2.5173,2.5234,2.5234,2.5269,2.5308,2.5308,2.5308,2.5308,2.5293,2.5496,2.5456,2.568,2.6272,2.6955,2.7279,2.7461,2.7832,2.8457,2.9082,2.9707,3.0176,3.0273,3.0254,3.0158,3.0079,2.9892,2.98,2.9761,2.9689,2.934,2.8895,2.8004,2.7895,2.789,2.789,2.789,2.789,2.789,2.786,2.7919,2.7777,2.7623,2.7483,2.7475,2.7639,2.7599,2.7827,2.8147,2.8393,2.8867,2.8886,2.8987,2.8987,2.8987,2.8987,2.8868,2.8639,2.8565,2.8347,2.802,2.7692,2.7334,2.7052,2.6725,2.6776,2.681,2.6843,2.6877,2.6928,2.6996,2.7249,2.7638,2.774,2.7977,2.8433,2.8755,2.9094,2.9313,2.9492,2.9703,2.9621,2.9609,2.9099,2.8351,2.7657,2.7543,2.7494,2.745,2.754,2.7585,2.7585,2.7615,2.7809,2.8109,2.8368,2.8637,2.8921,2.94,2.9744,3.0058,3.0567,3.1032,3.1316,3.1436]}]]